ftp/pub/palmer/observations_modified/2019/June/AR190615_BASE.txt

Download

Sample DateTime	Unit Id	WS Avg 2min	WD Avg 2min	WGS 10min	WGD 10min	Air Temp	Rel Humidity	Dew Point	Pyranometer	Quantum	Air Pressure	Snow Level	Rainfall	PW Current	Visibility	CBase 1	CBase 2	CBase 3	Vert Vis
2019/06/15  00:00:01  BASE  4.03956  307  5.08032  306  -1.1  100   -1.1  0     0     989.7    NA       0.0000   UP       BR    4900  300  
2019/06/15  00:01:00  BASE  4.02192  306  5.08032  306  -1.1  100   -1.1  0     0     989.7    NA       0.0000   UP       BR    5000  330  
2019/06/15  00:02:00  BASE  4.15128  305  5.08032  306  -1.1  100   -1.1  0     0     989.7    NA       0.0000   UP       BR    5000  330  
2019/06/15  00:03:00  BASE  3.92784  306  5.08032  306  -1.1  100   -1.1  0     0     989.7    NA       0.0000   UP       BR    6000  300  
2019/06/15  00:04:00  BASE  3.83376  307  5.08032  306  -1.1  100   -1.1  0     0     989.7    NA       0.0000   UP       BR    5000  300  
2019/06/15  00:05:01  BASE  3.80436  304  5.08032  306  -1.1  100   -1.1  0     0     989.7    NA       0.0000   UP       BR    5000  300  
2019/06/15  00:06:00  BASE  3.7926   300  4.78044  311  -1.1  100   -1.1  0     0     989.8    NA       0.0000   UP       BR    4800  230  
2019/06/15  00:07:00  BASE  3.86316  300  4.78044  311  -1.1  100   -1.1  0     0     989.8    NA       0.0000   UP       BR    4700  330  
2019/06/15  00:08:00  BASE  3.99252  301  4.68636  304  -1.1  100   -1.1  0     0     989.8    NA       0.0000   UP       BR    4600  300  
2019/06/15  00:09:00  BASE  4.00428  305  4.65696  301  -1.1  100   -1.1  0     0     989.8    NA       0.0000   UP       BR    4300  300  
2019/06/15  00:10:01  BASE  3.7338   306  4.65696  301  -1.1  100   -1.1  0     0     989.8    NA       0.0000   UP       BR    4400  260  
2019/06/15  00:11:00  BASE  3.49272  305  4.65696  301  -1.1  100   -1.1  0     0     989.8    NA       0.0000   UP       BR    4600  260  
2019/06/15  00:12:00  BASE  3.47508  304  4.56876  289  -1.1  100   -1.1  0     0     989.9    NA       0.0000   UP       BR    4300  230  
2019/06/15  00:13:00  BASE  3.66912  304  4.56876  289  -1.1  100   -1.1  0     0     989.9    NA       0.0000   UP       BR    4200  260  
2019/06/15  00:14:00  BASE  3.83376  300  4.62756  297  -1.1  100   -1.1  0     0     989.9    NA       0.0000   UP       BR    4200  260  
2019/06/15  00:15:00  BASE  3.91608  300  4.62756  292  -1.1  100   -1.1  0     0     989.9    NA       0.0000   UP       BR    4000  260  
2019/06/15  00:16:00  BASE  3.92784  301  4.62756  292  -1.1  100   -1.1  0     0     989.9    NA       0.0000   UP       BR    4100  300  
2019/06/15  00:17:00  BASE  3.86904  300  4.62756  292  -1.1  100   -1.1  0     0     989.9    NA       0.0000   -SN      BR    5000  260  
2019/06/15  00:18:00  BASE  3.7926   303  4.62756  292  -1.1  100   -1.1  0     0     989.9    NA       0.0000   -SN      BR    5000  300  
2019/06/15  00:19:00  BASE  3.63972  302  4.62756  292  -1.1  100   -1.1  0     0     989.9    NA       0.0000   -SN      BR    6000  300  
2019/06/15  00:20:01  BASE  3.65736  299  4.62756  292  -1.1  100   -1.1  0     0     989.9    NA       0.0000   -SN      BR    7000  300  
2019/06/15  00:21:00  BASE  3.79848  300  4.62756  292  -1.1  100   -1.1  0     0     989.9    NA       0.0000   -SN      BR    8000  300  
2019/06/15  00:22:00  BASE  3.91608  301  4.62756  292  -1.1  100   -1.1  0     0     989.9    NA       0.0000   -SN      BR    7000  260  
2019/06/15  00:23:00  BASE  3.93372  300  4.62756  292  -1.1  100   -1.1  0     0     989.9    NA       0.0000   -SN      BR    7000  0    
2019/06/15  00:24:00  BASE  3.68088  299  4.62756  292  -1.1  100   -1.1  0     0     990.0    NA       0.0000   -SN      BR    6000  0    
2019/06/15  00:25:00  BASE  3.73968  298  4.50996  290  -1.1  100   -1.1  0     0     990.0    NA       0.0000   -SN      BR    5000  300  
2019/06/15  00:26:00  BASE  4.3806   294  5.2332   294  -1.1  100   -1.1  0     0     990.0    NA       0.0000   -SN      BR    5000  260  
2019/06/15  00:27:00  BASE  4.26888  295  5.2332   294  -1.1  100   -1.1  0     0     990.1    NA       0.0000   -SN      BR    5000  300  
2019/06/15  00:28:00  BASE  4.0866   297  5.2332   294  -1.1  100   -1.1  0     0     990.1    NA       0.0000   -SN      BR    5000  260  
2019/06/15  00:29:01  BASE  4.18068  292  5.2332   294  -1.1  100   -1.1  0     0     990.1    NA       0.0000   -SN      BR    6000  0    
2019/06/15  00:30:00  BASE  3.98664  290  5.2332   294  -1.1  100   -1.1  0     0     990.1    NA       0.0000   -SN      BR    5000  260  
2019/06/15  00:31:00  BASE  4.05132  290  5.2332   294  -1.1  100   -1.1  0     0     990.1    NA       0.0000   -SN      BR    5000  300  
2019/06/15  00:32:00  BASE  4.33944  290  5.2332   294  -1.1  100   -1.1  0     0     990.1    NA       0.0000   -SN      BR    6000  260  
2019/06/15  00:33:00  BASE  4.3512   289  5.2332   294  -1.1  100   -1.1  0     0     990.1    NA       0.0000   -SN      BR    5000  260  
2019/06/15  00:34:00  BASE  4.25712  288  5.2332   294  -1.1  100   -1.1  0     0     990.1    NA       0.0000   -SN      BR    5000  230  
2019/06/15  00:35:00  BASE  4.56288  288  5.38608  281  -1.1  100   -1.1  0     0     990.1    NA       0.0000   -SN      BR    4500  0    
2019/06/15  00:36:00  BASE  4.53936  287  5.38608  281  -1.1  100   -1.1  0     0     990.1    NA       0.0000   -SN      BR    5000  260  
2019/06/15  00:37:00  BASE  4.1748   288  5.38608  281  -1.1  100   -1.1  0     0     990.2    NA       0.0000   -SN      BR    5000  260  
2019/06/15  00:38:00  BASE  4.03956  289  5.38608  281  -1.1  100   -1.1  0     0     990.2    NA       0.2540   -SN      BR    4800  230  
2019/06/15  00:39:00  BASE  4.08072  288  5.38608  281  -1.1  100   -1.1  0     0     990.2    NA       0.0000   -SN      BR    3800  0    
2019/06/15  00:40:00  BASE  4.15128  288  5.38608  281  -1.1  100   -1.1  0     0     990.2    NA       0.0000   -SN      BR    3900  0    
2019/06/15  00:41:00  BASE  4.03368  289  5.38608  281  -1.1  100   -1.1  0     0     990.2    NA       0.0000   -SN      BR    4700  0    
2019/06/15  00:42:00  BASE  3.822    289  5.38608  281  -1.1  100   -1.1  0     0     990.2    NA       0.0000   -SN      BR    4200  0    
2019/06/15  00:43:00  BASE  3.69852  286  5.38608  281  -1.1  100   -1.1  0     0     990.2    NA       0.0000   -SN      BR    4800  0    
2019/06/15  00:44:00  BASE  3.81024  286  5.38608  281  -1.1  100   -1.1  0     0     990.2    NA       0.0000   -SN      BR    4600  0    
2019/06/15  00:45:00  BASE  3.86904  286  5.2038   280  -1.1  100   -1.1  0     0     990.3    NA       0.0000   -SN      BR    4200  0    
2019/06/15  00:46:00  BASE  3.81612  285  5.08032  281  -1.1  100   -1.1  0     0     990.3    NA       0.0000   -SN      BR    4200  0    
2019/06/15  00:47:00  BASE  3.94548  285  5.08032  281  -1.1  100   -1.1  0     0     990.3    NA       0.0000   -SN      BR    4800  0    
2019/06/15  00:48:00  BASE  4.19832  287  4.89804  287  -1.0  100   -1.0  0     0     990.3    NA       0.0000   -SN      BR    5000  0    
2019/06/15  00:49:00  BASE  4.24536  287  4.89804  287  -1.0  100   -1.0  0     0     990.3    NA       0.0000   -SN      BR    4500  0    
2019/06/15  00:50:00  BASE  3.86316  285  4.89804  287  -1.0  100   -1.0  0     0     990.3    NA       0.0000   -SN      BR    4400  0    
2019/06/15  00:51:00  BASE  4.03368  284  5.145    279  -1.1  100   -1.1  0     0     990.4    NA       0.0000   -SN      BR    4200  0    
2019/06/15  00:52:00  BASE  4.3806   286  5.145    279  -1.0  100   -1.0  0     0     990.3    NA       0.0000   -SN      BR    3700  0    
2019/06/15  00:53:00  BASE  4.4688   286  5.2626   286  -1.0  100   -1.0  0     0     990.4    NA       0.0000   -SN      BR    3700  0    
2019/06/15  00:54:00  BASE  4.58052  284  5.2626   281  -1.0  100   -1.0  0     0     990.4    NA       0.0000   -SN      BR    4900  0    
2019/06/15  00:55:00  BASE  4.42764  284  5.2626   281  -1.0  100   -1.0  0     0     990.4    NA       0.0000   -SN      BR    8000  230  
2019/06/15  00:56:00  BASE  4.22184  285  5.2626   281  -1.0  100   -1.0  0     0     990.4    NA       0.0000   -SN      BR    9000  260  
2019/06/15  00:57:00  BASE  4.11012  284  5.2626   281  -1.0  100   -1.0  0     0     990.4    NA       0.0000   -SN      BR    9999  260  
2019/06/15  00:58:00  BASE  3.97488  282  5.2626   281  -1.0  100   -1.0  0     0     990.4    NA       0.0000   -SN      BR    9999  300  
2019/06/15  00:59:00  BASE  4.1454   281  5.2626   281  -1.0  100   -1.0  0     0     990.4    NA       0.0000   -SN      BR    9999  300  
2019/06/15  01:00:00  BASE  4.2042   280  5.2626   281  -1.0  100   -1.0  0     0     990.4    NA       0.0000   -SN      BR    9999  330  
2019/06/15  01:01:00  BASE  3.88668  283  5.2626   281  -1.0  100   -1.0  0     0     990.4    NA       0.0000   -SN      BR    9999  300  
2019/06/15  01:02:01  BASE  3.87492  283  5.2626   281  -1.0  100   -1.0  0     0     990.4    NA       0.0000   -SN      BR    9999  260  
2019/06/15  01:03:00  BASE  3.78084  283  5.2626   281  -1.0  100   -1.0  0     0     990.4    NA       0.0000   -SN      9999  260   0    
2019/06/15  01:04:00  BASE  3.82788  281  5.2038   280  -1.0  100   -1.0  0     0     990.4    NA       0.0000   -SN      9999  260   0    
2019/06/15  01:05:01  BASE  4.00428  278  5.2038   280  -1.0  100   -1.0  0     0     990.4    NA       0.0000   -SN      9999  300   0    
2019/06/15  01:06:00  BASE  4.12188  280  5.2038   280  -1.0  100   -1.0  0     0     990.4    NA       0.0000   -SN      9999  260   0    
2019/06/15  01:07:01  BASE  4.30416  281  5.2038   280  -1.0  100   -1.0  0     0     990.4    NA       0.0000   9999     260   0     0    
2019/06/15  01:08:01  BASE  4.53348  280  5.292    278  -1.0  100   -1.0  0     0     990.5    NA       0.0000   9999     260   0     0    
2019/06/15  01:09:01  BASE  4.41     277  5.292    278  -1.0  100   -1.0  0     0     990.5    NA       0.0000   9999     300   0     0    
2019/06/15  01:10:01  BASE  4.2042   278  5.292    278  -1.0  100   -1.0  0     0     990.5    NA       0.0000   9999     300   0     0    
2019/06/15  01:11:01  BASE  4.3512   277  5.292    278  -1.0  100   -1.0  0     0     990.5    NA       0.0000   9999     260   0     0    
2019/06/15  01:12:01  BASE  4.5276   275  5.3214   278  -1.0  100   -1.0  0     0     990.5    NA       0.0000   9999     300   0     0    
2019/06/15  01:13:01  BASE  4.73928  279  5.65656  277  -1.0  100   -1.0  0     0     990.5    NA       0.0000   9999     260   0     0    
2019/06/15  01:14:01  BASE  4.36884  279  5.65656  277  -1.0  100   -1.0  0     0     990.6    NA       0.0000   9000     260   0     0    
2019/06/15  01:15:01  BASE  4.01016  277  5.65656  277  -1.0  100   -1.0  0     0     990.7    NA       0.0000   9000     0     0     0    
2019/06/15  01:16:01  BASE  4.18068  280  5.65656  277  -1.0  100   -1.0  0     0     990.7    NA       0.0000   8000     0     0     0    
2019/06/15  01:17:01  BASE  4.48056  280  5.65656  277  -1.0  100   -1.0  0     0     990.7    NA       0.0000   BR       7000  0     0    
2019/06/15  01:18:01  BASE  4.48056  278  5.65656  277  -1.0  100   -1.0  0     0     990.8    NA       0.0000   -SN      BR    8000  230  
2019/06/15  01:19:01  BASE  4.31004  279  5.65656  277  -1.0  100   -1.0  0     0     990.8    NA       0.0000   -SN      BR    6000  0    
2019/06/15  01:20:01  BASE  4.35708  275  5.65656  277  -1.0  100   -1.0  0     0     990.8    NA       0.0000   -SN      BR    5000  0    
2019/06/15  01:21:01  BASE  4.44528  274  5.65656  277  -1.0  100   -1.0  0     0     990.8    NA       0.0000   -SN      BR    4600  0    
2019/06/15  01:22:01  BASE  4.43352  278  5.65656  277  -1.0  100   -1.0  0     0     990.9    NA       0.0000   -SN      BR    4600  0    
2019/06/15  01:23:01  BASE  4.45704  278  5.41548  282  -1.0  100   -1.0  0     0     990.9    NA       0.0000   -SN      BR    5000  0    
2019/06/15  01:24:01  BASE  4.36296  276  5.41548  282  -1.0  100   -1.0  0     0     990.9    NA       0.0000   -SN      BR    4800  0    
2019/06/15  01:25:01  BASE  4.45116  275  5.47428  264  -1.0  100   -1.0  0     0     991.0    NA       0.0000   -SN      BR    4900  0    
2019/06/15  01:26:01  BASE  4.76868  274  5.65656  274  -1.0  100   -1.0  0     0     991.0    NA       0.0000   -SN      BR    6000  0    
2019/06/15  01:27:00  BASE  4.77456  275  5.99172  265  -1.0  100   -1.0  0     0     991.0    NA       0.0000   -SN      BR    8000  0    
2019/06/15  01:28:01  BASE  4.41     275  5.99172  265  -1.0  100   -1.0  0     0     991.0    NA       0.0000   -SN      BR    8000  0    
2019/06/15  01:29:00  BASE  4.25712  272  5.99172  265  -1.0  100   -1.0  0     0     991.0    NA       0.0000   -SN      BR    7000  0    
2019/06/15  01:30:01  BASE  4.41     272  5.99172  265  -1.0  100   -1.0  0     0     991.0    NA       0.0000   -SN      BR    7000  0    
2019/06/15  01:31:00  BASE  4.2042   271  5.99172  265  -1.0  100   -1.0  0     0     991.0    NA       0.0000   -SN      BR    7000  0    
2019/06/15  01:32:01  BASE  4.263    272  5.99172  265  -1.0  100   -1.0  0     0     991.0    NA       0.0000   -SN      BR    7000  0    
2019/06/15  01:33:01  BASE  4.31592  277  5.99172  265  -1.0  100   -1.0  0     0     991.1    NA       0.0000   -SN      BR    9000  0    
2019/06/15  01:34:00  BASE  4.26888  277  5.99172  265  -1.0  100   -1.0  0     0     991.1    NA       0.0000   -SN      BR    9000  0    
2019/06/15  01:35:01  BASE  4.56876  275  5.99172  265  -1.0  100   -1.0  0     0     991.2    NA       0.2540   -SN      BR    9999  0    
2019/06/15  01:36:00  BASE  4.86276  276  5.99172  265  -1.0  100   -1.0  0     0     991.2    NA       0.0000   -SN      BR    9999  0    
2019/06/15  01:37:00  BASE  5.1744   276  6.02112  276  -1.0  100   -1.0  0     0     991.2    NA       0.0000   -SN      BR    9999  260  
2019/06/15  01:38:00  BASE  5.09796  277  6.02112  276  -1.0  100   -1.0  0     0     991.3    NA       0.0000   -SN      BR    9999  0    
2019/06/15  01:39:00  BASE  4.7628   277  6.02112  276  -1.0  100   -1.0  0     0     991.3    NA       0.0000   -SN      BR    9999  0    
2019/06/15  01:40:01  BASE  4.7628   275  6.02112  276  -1.0  100   -1.0  0     0     991.3    NA       0.0000   -SN      BR    7000  0    
2019/06/15  01:41:00  BASE  4.72164  276  6.02112  276  -1.0  100   -1.0  0     0     991.3    NA       0.0000   -SN      BR    6000  0    
2019/06/15  01:42:00  BASE  4.78632  274  6.07992  274  -1.0  100   -1.0  0     0     991.4    NA       0.0000   -SN      BR    6000  0    
2019/06/15  01:43:00  BASE  4.89216  275  6.07992  274  -1.0  100   -1.0  0     0     991.4    NA       0.0000   -SN      BR    6000  0    
2019/06/15  01:44:01  BASE  4.79808  273  6.07992  274  -1.0  100   -1.0  0     0     991.4    NA       0.0000   -SN      BR    5000  0    
2019/06/15  01:45:01  BASE  4.56288  269  6.07992  274  -1.0  100   -1.0  0     0     991.4    NA       0.0000   -SN      BR    5000  0    
2019/06/15  01:46:00  BASE  4.46292  269  6.07992  274  -1.0  100   -1.0  0     0     991.4    NA       0.0000   -SN      BR    5000  0    
2019/06/15  01:47:00  BASE  4.22184  269  6.07992  274  -1.0  100   -1.0  0     0     991.4    NA       0.0000   -SN      BR    5000  0    
2019/06/15  01:48:00  BASE  3.89256  269  6.07992  274  -1.0  100   -1.0  0     0     991.4    NA       0.0000   -SN      BR    6000  0    
2019/06/15  01:49:00  BASE  3.91608  267  6.07992  274  -1.0  100   -1.0  0     0     991.4    NA       0.0000   -SN      BR    7000  0    
2019/06/15  01:50:01  BASE  3.93372  271  6.07992  274  -1.0  100   -1.0  0     0     991.4    NA       0.0000   -SN      BR    6000  0    
2019/06/15  01:51:00  BASE  3.88668  273  6.07992  274  -1.0  100   -1.0  0     0     991.4    NA       0.0000   -SN      BR    5000  0    
2019/06/15  01:52:00  BASE  3.90432  272  6.02112  256  -1.0  100   -1.0  0     0     991.5    NA       0.0000   -SN      BR    6000  0    
2019/06/15  01:53:00  BASE  4.18068  269  6.02112  256  -1.0  100   -1.0  0     0     991.5    NA       0.0000   -SN      BR    5000  0    
2019/06/15  01:54:00  BASE  4.26888  269  5.89764  260  -1.0  100   -1.0  0     0     991.5    NA       0.0000   -SN      BR    4600  0    
2019/06/15  01:55:01  BASE  4.21008  272  5.89764  260  -1.1  100   -1.1  0     0     991.4    NA       0.0000   -SN      BR    4300  0    
2019/06/15  01:56:00  BASE  4.15128  271  5.35668  258  -1.1  100   -1.1  0     0     991.4    NA       0.0000   -SN      BR    5000  0    
2019/06/15  01:57:00  BASE  3.969    270  5.35668  258  -1.1  100   -1.1  0     0     991.4    NA       0.0000   -SN      BR    4900  0    
2019/06/15  01:58:00  BASE  4.15128  267  5.35668  258  -1.1  100   -1.1  0     0     991.5    NA       0.0000   -SN      BR    5000  0    
2019/06/15  01:59:00  BASE  4.25124  266  5.62716  247  -1.1  100   -1.1  0     0     991.5    NA       0.0000   -SN      BR    6000  0    
2019/06/15  02:00:00  BASE  4.33944  267  5.62716  247  -1.1  100   -1.1  0     0     991.6    NA       0.0000   -SN      BR    6000  0    
2019/06/15  02:01:00  BASE  4.15716  268  5.62716  247  -1.1  100   -1.1  0     0     991.6    NA       0.0000   -SN      BR    9999  260  
2019/06/15  02:02:00  BASE  4.1454   267  6.2916   271  -1.1  100   -1.1  0     0     991.6    NA       0.0000   -SN      BR    9999  260  
2019/06/15  02:03:00  BASE  4.28064  269  6.2916   271  -1.1  100   -1.1  0     0     991.6    NA       0.0000   -SN      BR    9999  330  
2019/06/15  02:04:00  BASE  4.33944  271  6.53268  292  -1.1  100   -1.1  0     0     991.7    NA       0.0000   -SN      BR    9999  300  
2019/06/15  02:05:00  BASE  4.51584  272  6.53268  292  -1.1  100   -1.1  0     0     991.7    NA       0.0000   -SN      BR    9999  360  
2019/06/15  02:06:00  BASE  4.40412  270  6.53268  292  -1.1  100   -1.1  0     0     991.7    NA       0.0000   -SN      BR    9999  330  
2019/06/15  02:07:00  BASE  4.28064  265  6.53268  292  -1.1  100   -1.1  0     0     991.8    NA       0.0000   -SN      BR    9999  360  
2019/06/15  02:08:00  BASE  4.16892  263  6.53268  292  -1.1  100   -1.1  0     0     991.8    NA       0.0000   -SN      BR    9999  360  
2019/06/15  02:09:00  BASE  4.116    265  6.53268  292  -1.1  100   -1.1  0     0     991.8    NA       0.0000   -SN      9999  360   0    
2019/06/15  02:10:00  BASE  4.39236  265  6.53268  292  -1.1  100   -1.1  0     0     991.8    NA       0.0000   -SN      9999  360   0    
2019/06/15  02:11:00  BASE  4.8804   263  6.53268  292  -1.1  100   -1.1  0     0     991.8    NA       0.0000   -SN      9999  330   0    
2019/06/15  02:12:00  BASE  5.06856  262  6.53268  292  -1.1  100   -1.1  0     0     991.9    NA       0.0000   9999     300   0     0    
2019/06/15  02:13:00  BASE  5.0568   265  6.53268  292  -1.1  100   -1.1  0     0     991.9    NA       0.0000   9999     300   0     0    
2019/06/15  02:14:00  BASE  5.1744   266  6.53268  262  -1.1  100   -1.1  0     0     991.9    NA       0.0000   9999     300   0     0    
2019/06/15  02:15:00  BASE  5.13912  268  6.53268  262  -1.1  100   -1.1  0     0     992.0    NA       0.0000   9999     260   0     0    
2019/06/15  02:16:00  BASE  4.80984  271  6.53268  262  -1.1  100   -1.1  0     0     992.0    NA       0.0000   9999     260   0     0    
2019/06/15  02:17:00  BASE  4.7628   273  6.53268  262  -1.1  100   -1.1  0     0     992.1    NA       0.0000   9999     0     0     0    
2019/06/15  02:18:00  BASE  4.95684  272  6.53268  262  -1.1  100   -1.1  0     0     992.1    NA       0.0000   9999     0     0     0    
2019/06/15  02:19:00  BASE  5.01564  269  6.80316  257  -1.1  100   -1.1  0     0     992.1    NA       0.0000   9999     0     0     0    
2019/06/15  02:20:01  BASE  4.7334   269  6.80316  257  -1.0  100   -1.0  0     0     992.1    NA       0.0000   9000     0     0     0    
2019/06/15  02:21:00  BASE  4.34532  269  6.80316  257  -1.0  100   -1.0  0     0     992.1    NA       0.0000   9000     0     0     0    
2019/06/15  02:22:00  BASE  4.28652  269  6.80316  257  -1.0  100   -1.0  0     0     992.1    NA       0.0000   9000     0     0     0    
2019/06/15  02:23:00  BASE  4.25124  270  6.80316  257  -1.1  100   -1.1  0     0     992.1    NA       0.0000   BR       9000  0     0    
2019/06/15  02:24:00  BASE  3.85728  271  6.80316  257  -1.1  100   -1.1  0     0     992.1    NA       0.0000   BR       9000  0     0    
2019/06/15  02:25:00  BASE  3.675    269  6.80316  257  -1.1  100   -1.1  0     0     992.1    NA       0.0000   BR       8000  0     0    
2019/06/15  02:26:00  BASE  3.81612  269  6.80316  257  -1.1  100   -1.1  0     0     992.1    NA       0.0000   BR       8000  0     0    
2019/06/15  02:27:01  BASE  4.12188  269  6.80316  257  -1.1  100   -1.1  0     0     992.1    NA       0.0000   BR       8000  0     0    
2019/06/15  02:28:00  BASE  4.43352  270  6.80316  257  -1.1  100   -1.1  0     0     992.2    NA       0.2540   BR       8000  0     0    
2019/06/15  02:29:00  BASE  4.24536  271  5.62716  268  -1.1  100   -1.1  0     0     992.2    NA       0.0000   BR       8000  0     0    
2019/06/15  02:30:00  BASE  4.15716  271  5.50368  267  -1.1  100   -1.1  0     0     992.2    NA       0.0000   BR       8000  0     0    
2019/06/15  02:31:00  BASE  4.1454   270  5.50368  267  -1.1  100   -1.1  0     0     992.2    NA       0.0000   BR       7000  0     0    
2019/06/15  02:32:00  BASE  4.04544  268  5.50368  267  -1.1  100   -1.1  0     0     992.2    NA       0.0000   BR       7000  0     0    
2019/06/15  02:33:00  BASE  4.04544  268  5.50368  267  -1.1  100   -1.1  0     0     992.2    NA       0.0000   BR       7000  0     0    
2019/06/15  02:34:00  BASE  3.90432  268  5.50368  267  -1.1  100   -1.1  0     0     992.2    NA       0.0000   BR       7000  0     0    
2019/06/15  02:35:00  BASE  3.68676  269  5.50368  267  -1.1  100   -1.1  0     0     992.2    NA       0.0000   BR       7000  0     0    
2019/06/15  02:36:00  BASE  3.6456   269  5.50368  267  -1.1  100   -1.1  0     0     992.2    NA       0.0000   BR       7000  0     0    
2019/06/15  02:37:00  BASE  3.62796  269  5.50368  267  -1.1  100   -1.1  0     0     992.2    NA       0.0000   BR       7000  0     0    
2019/06/15  02:38:00  BASE  4.00428  272  5.53308  271  -1.1  100   -1.1  0     0     992.2    NA       0.0000   BR       7000  0     0    
2019/06/15  02:39:00  BASE  4.7922   273  6.10932  275  -1.1  100   -1.1  0     0     992.3    NA       0.0000   BR       7000  0     0    
2019/06/15  02:40:00  BASE  4.66284  273  6.10932  275  -1.1  100   -1.1  0     0     992.3    NA       0.0000   BR       7000  0     0    
2019/06/15  02:41:00  BASE  4.28064  271  6.10932  275  -1.1  100   -1.1  0     0     992.3    NA       0.0000   BR       6000  0     0    
2019/06/15  02:42:00  BASE  4.25124  271  6.10932  275  -1.1  100   -1.1  0     0     992.3    NA       0.0000   BR       6000  200   0    
2019/06/15  02:43:00  BASE  4.12776  271  6.10932  275  -1.1  100   -1.1  0     0     992.3    NA       0.0000   BR       6000  230   0    
2019/06/15  02:44:00  BASE  4.39236  268  6.10932  275  -1.1  100   -1.1  0     0     992.3    NA       0.0000   BR       6000  230   0    
2019/06/15  02:45:00  BASE  4.69812  268  6.10932  275  -1.1  100   -1.1  0     0     992.3    NA       0.0000   BR       6000  0     0    
2019/06/15  02:46:00  BASE  4.72164  267  6.10932  275  -1.1  100   -1.1  0     0     992.3    NA       0.0000   BR       7000  230   0    
2019/06/15  02:47:00  BASE  4.78632  267  6.10932  275  -1.1  100   -1.1  0     0     992.3    NA       0.0000   BR       9999  230   0    
2019/06/15  02:48:00  BASE  4.43352  268  6.10932  275  -1.1  100   -1.1  0     0     992.3    NA       0.0000   BR       9999  230   0    
2019/06/15  02:49:00  BASE  4.22184  264  5.74476  261  -1.1  100   -1.1  0     0     992.3    NA       0.0000   BR       9999  260   0    
2019/06/15  02:50:00  BASE  4.25124  262  5.74476  261  -1.1  100   -1.1  0     0     992.3    NA       0.0000   BR       9999  260   0    
2019/06/15  02:51:00  BASE  4.0572   263  5.74476  261  -1.1  100   -1.1  0     0     992.3    NA       0.0000   BR       9999  230   0    
2019/06/15  02:52:00  BASE  4.24536  263  5.74476  261  -1.1  100   -1.1  0     0     992.3    NA       0.0000   BR       9999  260   0    
2019/06/15  02:53:00  BASE  4.63344  265  6.16812  270  -1.1  100   -1.1  0     0     992.3    NA       0.0000   BR       9999  260   0    
2019/06/15  02:54:00  BASE  4.99212  266  6.2034   266  -1.1  100   -1.1  0     0     992.3    NA       0.0000   BR       9999  230   0    
2019/06/15  02:55:00  BASE  4.81572  262  6.2034   266  -1.1  100   -1.1  0     0     992.4    NA       0.0000   BR       9999  230   0    
2019/06/15  02:56:00  BASE  4.22184  262  6.2034   266  -1.1  100   -1.1  0     0     992.4    NA       0.0000   9999     260   0     0    
2019/06/15  02:57:00  BASE  4.16304  264  6.2034   266  -1.1  100   -1.1  0     0     992.4    NA       0.0000   BR       9999  0     0    
2019/06/15  02:58:00  BASE  4.31592  267  6.2034   266  -1.1  100   -1.1  0     0     992.5    NA       0.0000   BR       9999  0     0    
2019/06/15  02:59:00  BASE  4.66284  267  6.2034   266  -1.1  100   -1.1  0     0     992.6    NA       0.2540   BR       9000  230   0    
2019/06/15  03:00:00  BASE  4.83924  270  6.2034   266  -1.1  100   -1.1  0     0     992.6    NA       0.0000   BR       9000  0     0    
2019/06/15  03:01:00  BASE  4.65108  272  6.2034   266  -1.1  100   -1.1  0     0     992.6    NA       0.0000   BR       9000  0     0    
2019/06/15  03:02:00  BASE  4.56288  270  6.2034   266  -1.1  100   -1.1  0     0     992.6    NA       0.0000   BR       9000  0     0    
2019/06/15  03:03:00  BASE  4.27476  269  6.2034   266  -1.1  100   -1.1  0     0     992.6    NA       0.0000   BR       9000  0     0    
2019/06/15  03:04:00  BASE  4.19832  271  6.07992  269  -1.1  100   -1.1  0     0     992.6    NA       0.0000   BR       9000  0     0    
2019/06/15  03:05:00  BASE  4.2042   271  6.07992  269  -1.1  100   -1.1  0     0     992.6    NA       0.0000   BR       9000  260   0    
2019/06/15  03:06:00  BASE  3.97488  270  6.07992  269  -1.1  100   -1.1  0     0     992.6    NA       0.0000   BR       9000  230   0    
2019/06/15  03:07:00  BASE  3.84552  271  6.07992  269  -1.1  100   -1.1  0     0     992.6    NA       0.0000   BR       9000  300   0    
2019/06/15  03:08:00  BASE  3.71616  271  6.07992  269  -1.1  100   -1.1  0     0     992.6    NA       0.0000   BR       9000  300   0    
2019/06/15  03:09:00  BASE  3.528    268  5.86824  251  -1.1  100   -1.1  0     0     992.6    NA       0.0000   BR       9000  300   0    
2019/06/15  03:10:00  BASE  3.54564  267  5.44488  269  -1.2  100   -1.2  0     0     992.7    NA       0.0000   BR       9000  360   0    
2019/06/15  03:11:00  BASE  3.95136  271  5.44488  269  -1.2  100   -1.2  0     0     992.7    NA       0.0000   BR       9999  390   0    
2019/06/15  03:12:00  BASE  4.10424  271  5.44488  269  -1.2  100   -1.2  0     0     992.8    NA       0.0000   BR       9999  390   0    
2019/06/15  03:13:00  BASE  4.25712  270  5.92704  278  -1.2  100   -1.2  0     0     992.8    NA       0.0000   BR       9999  360   0    
2019/06/15  03:14:00  BASE  4.32768  269  5.92704  278  -1.2  100   -1.2  0     0     992.8    NA       0.0000   BR       9999  390   0    
2019/06/15  03:15:00  BASE  4.23948  271  5.92704  278  -1.2  100   -1.2  0     0     992.9    NA       0.0000   BR       9999  390   0    
2019/06/15  03:16:00  BASE  4.39236  273  5.92704  278  -1.2  100   -1.2  0     0     992.9    NA       0.0000   9999     390   0     0    
2019/06/15  03:17:00  BASE  3.9984   274  5.92704  278  -1.1  100   -1.1  0     0     992.9    NA       0.0000   9999     390   0     0    
2019/06/15  03:18:00  BASE  4.0572   278  5.92704  278  -1.1  100   -1.1  0     0     992.9    NA       0.0000   9999     430   0     0    
2019/06/15  03:19:00  BASE  4.3218   272  5.92704  278  -1.1  100   -1.1  0     0     992.9    NA       0.0000   9999     460   0     0    
2019/06/15  03:20:00  BASE  4.263    269  5.92704  278  -1.2  100   -1.2  0     0     992.8    NA       0.0000   9999     430   0     0    
2019/06/15  03:21:00  BASE  4.52172  268  5.92704  278  -1.2  100   -1.2  0     0     992.9    NA       0.0000   9999     460   0     0    
2019/06/15  03:22:00  BASE  4.65696  266  5.92704  278  -1.2  100   -1.2  0     0     992.9    NA       0.0000   9999     490   0     0    
2019/06/15  03:23:00  BASE  4.95684  264  6.16812  270  -1.2  100   -1.2  0     0     992.8    NA       0.0000   9999     460   0     0    
2019/06/15  03:24:00  BASE  5.29788  262  6.16812  270  -1.2  100   -1.2  0     0     992.8    NA       0.0000   9999     430   0     0    
2019/06/15  03:25:00  BASE  5.13912  264  6.16812  270  -1.2  100   -1.2  0     0     992.8    NA       0.0000   9999     430   0     0    
2019/06/15  03:26:00  BASE  4.9098   265  6.3504   272  -1.2  100   -1.2  0     0     992.8    NA       0.0000   9999     390   0     0    
2019/06/15  03:27:00  BASE  5.0568   260  6.3504   272  -1.2  100   -1.2  0     0     992.8    NA       0.0000   9999     430   0     0    
2019/06/15  03:28:00  BASE  5.68008  255  7.02072  265  -1.2  100   -1.2  0     0     992.8    NA       0.0000   9999     460   0     0    
2019/06/15  03:29:00  BASE  5.88588  254  7.02072  265  -1.2  100   -1.2  0     0     992.8    NA       0.0000   9999     460   0     0    
2019/06/15  03:30:00  BASE  5.36844  256  7.53228  254  -1.2  100   -1.2  0     0     992.9    NA       0.0000   9999     520   0     0    
2019/06/15  03:31:00  BASE  5.46252  257  7.53228  254  -1.2  100   -1.2  0     0     992.9    NA       0.0000   9999     590   0     0    
2019/06/15  03:32:00  BASE  5.95644  255  7.53228  254  -1.2  100   -1.2  0     0     992.9    NA       0.0000   9999     560   0     0    
2019/06/15  03:33:00  BASE  6.22692  254  7.53228  254  -1.2  100   -1.2  0     0     992.9    NA       0.0000   9999     560   0     0    
2019/06/15  03:34:00  BASE  6.54444  254  7.95564  251  -1.2  100   -1.2  0     0     992.8    NA       0.0000   9999     560   0     0    
2019/06/15  03:35:01  BASE  7.03836  255  7.98504  251  -1.2  100   -1.2  0     0     992.8    NA       0.0000   9999     520   0     0    
2019/06/15  03:36:00  BASE  6.83256  254  7.98504  251  -1.2  100   -1.2  0     0     992.9    NA       0.0000   9999     560   0     0    
2019/06/15  03:37:00  BASE  6.2328   253  7.98504  251  -1.2  100   -1.2  0     0     992.9    NA       0.0000   9999     560   0     0    
2019/06/15  03:38:00  BASE  6.06816  254  7.98504  251  -1.2  100   -1.2  0     0     992.9    NA       0.0000   9999     490   0     0    
2019/06/15  03:39:00  BASE  5.36256  259  7.98504  251  -1.2  100   -1.2  0     0     993.0    NA       0.0000   9999     460   0     0    
2019/06/15  03:40:00  BASE  4.8216   259  7.98504  251  -1.2  100   -1.2  0     0     993.0    NA       0.0000   9999     390   0     0    
2019/06/15  03:41:00  BASE  4.98624  259  7.98504  251  -1.2  100   -1.2  0     0     993.0    NA       0.0000   9999     390   0     0    
2019/06/15  03:42:00  BASE  5.2038   262  7.98504  251  -1.2  100   -1.2  0     0     993.1    NA       0.0000   9999     360   0     0    
2019/06/15  03:43:00  BASE  5.439    260  7.98504  251  -1.2  100   -1.2  0     0     993.2    NA       0.0000   9999     330   0     0    
2019/06/15  03:44:00  BASE  5.68008  259  7.98504  251  -1.2  100   -1.2  0     0     993.2    NA       0.0000   9999     300   0     0    
2019/06/15  03:45:00  BASE  6.12696  258  7.44408  249  -1.2  100   -1.2  0     0     993.1    NA       0.0000   9999     260   0     0    
2019/06/15  03:46:00  BASE  5.8212   257  7.44408  249  -1.2  100   -1.2  0     0     993.2    NA       0.0000   9999     230   0     0    
2019/06/15  03:47:00  BASE  5.74476  257  7.44408  249  -1.2  100   -1.2  0     0     993.1    NA       0.0000   9999     230   0     0    
2019/06/15  03:48:00  BASE  6.03288  260  7.50288  251  -1.2  100   -1.2  0     0     993.2    NA       0.0000   9999     0     0     0    
2019/06/15  03:49:00  BASE  5.63892  266  7.50288  251  -1.2  100   -1.2  0     0     993.2    NA       0.0000   9999     0     0     0    
2019/06/15  03:50:00  BASE  5.37432  264  7.50288  251  -1.2  100   -1.2  0     0     993.2    NA       0.0000   9999     0     0     0    
2019/06/15  03:51:00  BASE  5.09208  263  7.50288  251  -1.2  100   -1.2  0     0     993.2    NA       0.0000   9999     0     0     0    
2019/06/15  03:52:00  BASE  4.76868  266  7.50288  251  -1.2  100   -1.2  0     0     993.3    NA       0.0000   9999     0     0     0    
2019/06/15  03:53:00  BASE  5.04504  264  7.50288  251  -1.2  100   -1.2  0     0     993.3    NA       0.0000   9999     0     0     0    
2019/06/15  03:54:00  BASE  4.6158   266  7.50288  251  -1.2  100   -1.2  0     0     993.3    NA       0.0000   9999     0     0     0    
2019/06/15  03:55:00  BASE  3.87492  272  7.50288  251  -1.1  100   -1.1  0     0     993.3    NA       0.0000   9999     0     0     0    
2019/06/15  03:56:00  BASE  4.75692  268  7.50288  251  -1.1  100   -1.1  0     0     993.3    NA       0.0000   9999     0     0     0    
2019/06/15  03:57:00  BASE  5.13912  264  7.50288  251  -1.1  100   -1.1  0     0     993.3    NA       0.0000   9999     0     0     0    
2019/06/15  03:58:00  BASE  5.18028  263  7.2618   252  -1.1  100   -1.1  0     0     993.3    NA       0.0000   9999     260   0     0    
2019/06/15  03:59:00  BASE  5.87412  262  7.2618   252  -1.2  100   -1.2  0     0     993.3    NA       0.0000   9999     260   0     0    
2019/06/15  04:00:00  BASE  6.06228  262  7.2618   252  -1.2  100   -1.2  0     0     993.3    NA       0.0000   9999     0     0     0    
2019/06/15  04:01:00  BASE  5.75064  260  7.2618   252  -1.2  100   -1.2  0     0     993.3    NA       0.0000   9999     0     0     0    
2019/06/15  04:02:00  BASE  5.79768  261  7.2618   252  -1.2  100   -1.2  0     0     993.3    NA       0.0000   9999     0     0     0    
2019/06/15  04:03:00  BASE  6.321    261  7.2618   252  -1.2  100   -1.2  0     0     993.3    NA       0.0000   9999     0     0     0    
2019/06/15  04:04:00  BASE  5.27436  262  7.2618   252  -1.2  100   -1.2  0     0     993.4    NA       0.0000   9999     0     0     0    
2019/06/15  04:05:00  BASE  4.12188  263  7.2618   252  -1.2  100   -1.2  0     0     993.4    NA       0.0000   9999     0     0     0    
2019/06/15  04:06:00  BASE  4.04544  265  7.2324   263  -1.2  100   -1.2  0     0     993.4    NA       0.0000   9999     0     0     0    
2019/06/15  04:07:00  BASE  4.2924   266  7.2324   263  -1.2  100   -1.2  0     0     993.4    NA       0.0000   9999     0     0     0    
2019/06/15  04:08:00  BASE  4.12188  270  7.2324   263  -1.2  100   -1.2  0     0     993.5    NA       0.0000   9999     0     0     0    
2019/06/15  04:09:00  BASE  4.03368  271  7.2324   263  -1.2  100   -1.2  0     0     993.5    NA       0.0000   9999     0     0     0    
2019/06/15  04:10:00  BASE  4.3218   270  7.2324   263  -1.2  100   -1.2  0     0     993.5    NA       0.0000   9999     0     0     0    
2019/06/15  04:11:00  BASE  4.09836  275  7.2324   263  -1.2  100   -1.2  0     0     993.5    NA       0.0000   9999     0     0     0    
2019/06/15  04:12:00  BASE  3.66324  275  7.07952  261  -1.2  100   -1.2  0     0     993.5    NA       0.0000   9999     0     0     0    
2019/06/15  04:13:00  BASE  3.9102   268  5.95644  260  -1.2  100   -1.2  0     0     993.5    NA       0.0000   9999     0     0     0    
2019/06/15  04:14:00  BASE  4.35708  269  5.95644  260  -1.2  100   -1.2  0     0     993.5    NA       0.0000   9999     0     0     0    
2019/06/15  04:15:00  BASE  4.3218   276  5.95644  260  -1.2  100   -1.2  0     0     993.5    NA       0.0000   9999     0     0     0    
2019/06/15  04:16:00  BASE  4.25124  275  5.95644  260  -1.2  100   -1.2  0     0     993.5    NA       0.0000   9999     0     0     0    
2019/06/15  04:17:00  BASE  4.02192  270  5.92704  295  -1.2  100   -1.2  0     0     993.5    NA       0.0000   9999     0     0     0    
2019/06/15  04:18:00  BASE  3.65736  267  5.92704  295  -1.2  100   -1.2  0     0     993.6    NA       0.0000   9999     0     0     0    
2019/06/15  04:19:00  BASE  3.8514   265  5.92704  295  -1.2  100   -1.2  0     0     993.6    NA       0.0000   9999     0     0     0    
2019/06/15  04:20:00  BASE  4.09836  268  5.92704  295  -1.2  100   -1.2  0     0     993.5    NA       0.0000   9999     0     0     0    
2019/06/15  04:21:00  BASE  4.03368  275  5.92704  295  -1.2  100   -1.2  0     0     993.5    NA       0.0000   9999     0     0     0    
2019/06/15  04:22:00  BASE  3.95724  273  5.92704  295  -1.2  100   -1.2  0     0     993.5    NA       0.0000   9999     200   0     0    
2019/06/15  04:23:00  BASE  3.80436  271  5.92704  295  -1.2  100   -1.2  0     0     993.5    NA       0.0000   9999     260   0     0    
2019/06/15  04:24:00  BASE  4.1748   264  6.2622   252  -1.2  100   -1.2  0     0     993.5    NA       0.0000   9999     300   0     0    
2019/06/15  04:25:00  BASE  4.15128  261  6.2622   252  -1.2  100   -1.2  0     0     993.5    NA       0.0000   9999     260   0     0    
2019/06/15  04:26:00  BASE  3.56328  263  6.2622   252  -1.2  100   -1.2  0     0     993.5    NA       0.0000   9999     300   0     0    
2019/06/15  04:27:00  BASE  3.86316  260  6.2622   252  -1.2  100   -1.2  0     0     993.5    NA       0.0000   9999     300   0     0    
2019/06/15  04:28:00  BASE  3.6456   259  6.2622   252  -1.2  100   -1.2  0     0     993.5    NA       0.0000   9999     330   0     0    
2019/06/15  04:29:00  BASE  3.35748  258  6.2622   252  -1.2  100   -1.2  0     0     993.5    NA       0.0000   9999     330   0     0    
2019/06/15  04:30:00  BASE  3.49272  255  6.2622   252  -1.2  100   -1.2  0     0     993.5    NA       0.0000   9999     300   0     0    
2019/06/15  04:31:00  BASE  3.2634   258  6.2622   252  -1.2  100   -1.2  0     0     993.5    NA       0.0000   9999     330   0     0    
2019/06/15  04:32:00  BASE  3.31632  261  6.2622   252  -1.2  100   -1.2  0     0     993.5    NA       0.0000   9999     360   0     0    
2019/06/15  04:33:00  BASE  3.45156  260  6.2622   252  -1.2  100   -1.2  0     0     993.5    NA       0.0000   9999     360   0     0    
2019/06/15  04:34:00  BASE  3.1458   266  4.93332  257  -1.2  100   -1.2  0     0     993.6    NA       0.0000   9999     330   0     0    
2019/06/15  04:35:00  BASE  3.26928  275  4.93332  257  -1.2  100   -1.2  0     0     993.6    NA       0.0000   9999     330   0     0    
2019/06/15  04:36:00  BASE  3.59268  276  4.83924  257  -1.2  100   -1.2  0     0     993.6    NA       0.0000   9999     330   0     0    
2019/06/15  04:37:00  BASE  3.06348  278  4.62756  266  -1.2  100   -1.2  0     0     993.6    NA       0.0000   9999     330   0     0    
2019/06/15  04:38:00  BASE  2.71068  280  4.62756  266  -1.2  100   -1.2  0     0     993.6    NA       0.0000   9999     260   0     0    
2019/06/15  04:39:00  BASE  3.31044  279  4.62756  266  -1.2  100   -1.2  0     0     993.6    NA       0.0000   9999     330   0     0    
2019/06/15  04:40:00  BASE  3.72204  276  4.62756  266  -1.2  100   -1.2  0     0     993.6    NA       0.0000   9999     300   0     0    
2019/06/15  04:41:00  BASE  3.4398   275  4.62756  266  -1.2  100   -1.2  0     0     993.6    NA       0.0000   9999     330   0     0    
2019/06/15  04:42:00  BASE  3.18108  271  4.62756  266  -1.2  100   -1.2  0     0     993.6    NA       0.0000   9999     300   0     0    
2019/06/15  04:43:00  BASE  3.28692  265  4.93332  260  -1.2  100   -1.2  0     0     993.6    NA       0.0000   9999     330   0     0    
2019/06/15  04:44:00  BASE  4.05132  260  4.93332  260  -1.2  100   -1.2  0     0     993.5    NA       0.0000   9999     360   0     0    
2019/06/15  04:45:00  BASE  4.07484  258  4.93332  260  -1.2  100   -1.2  0     0     993.5    NA       0.0000   9999     360   0     0    
2019/06/15  04:46:00  BASE  3.92196  256  4.93332  260  -1.2  100   -1.2  0     0     993.5    NA       0.0000   9999     330   0     0    
2019/06/15  04:47:00  BASE  3.86904  258  4.93332  260  -1.2  100   -1.2  0     0     993.5    NA       0.0000   9999     360   0     0    
2019/06/15  04:48:00  BASE  4.06896  255  5.38608  243  -1.2  100   -1.2  0     0     993.5    NA       0.0000   9999     330   0     0    
2019/06/15  04:49:00  BASE  4.62168  253  5.41548  250  -1.2  100   -1.2  0     0     993.5    NA       0.0000   9999     360   0     0    
2019/06/15  04:50:00  BASE  4.71576  252  5.53308  252  -1.2  100   -1.2  0     0     993.5    NA       0.0000   9999     360   0     0    
2019/06/15  04:51:00  BASE  4.89804  252  6.2622   257  -1.2  100   -1.2  0     0     993.5    NA       0.0000   9999     360   0     0    
2019/06/15  04:52:00  BASE  4.6452   253  6.2622   257  -1.2  100   -1.2  0     0     993.5    NA       0.0000   9999     330   0     0    
2019/06/15  04:53:00  BASE  4.6158   254  6.2622   257  -1.2  100   -1.2  0     0     993.5    NA       0.0000   9999     330   0     0    
2019/06/15  04:54:00  BASE  4.89216  254  6.2622   257  -1.2  100   -1.2  0     0     993.5    NA       0.0000   9999     360   0     0    
2019/06/15  04:55:00  BASE  4.80984  253  6.2622   257  -1.2  100   -1.2  0     0     993.6    NA       0.0000   9999     360   0     0    
2019/06/15  04:56:00  BASE  4.62756  254  6.2622   257  -1.2  100   -1.2  0     0     993.5    NA       0.0000   9999     360   0     0    
2019/06/15  04:57:00  BASE  4.60404  255  6.2622   257  -1.2  100   -1.2  0     0     993.5    NA       0.0000   9999     360   0     0    
2019/06/15  04:58:00  BASE  4.83336  256  6.2622   257  -1.2  100   -1.2  0     0     993.5    NA       0.0000   9999     360   0     0    
2019/06/15  04:59:00  BASE  4.92744  256  6.2622   257  -1.2  100   -1.2  0     0     993.5    NA       0.0000   9999     330   0     0    
2019/06/15  05:00:00  BASE  4.83336  257  6.2622   257  -1.2  100   -1.2  0     0     993.5    NA       0.0000   9999     330   0     0    
2019/06/15  05:01:00  BASE  4.7922   256  5.99172  257  -1.2  100   -1.2  0     0     993.6    NA       0.0000   9999     330   0     0    
2019/06/15  05:02:00  BASE  4.52172  261  5.99172  257  -1.2  100   -1.2  0     0     993.6    NA       0.0000   9999     330   0     0    
2019/06/15  05:03:00  BASE  4.42176  266  5.99172  257  -1.2  100   -1.2  0     0     993.6    NA       0.0000   9999     330   0     0    
2019/06/15  05:04:00  BASE  4.13364  270  5.99172  257  -1.2  100   -1.2  0     0     993.7    NA       0.0000   9999     330   0     0    
2019/06/15  05:05:00  BASE  4.03956  269  5.99172  257  -1.2  100   -1.2  0     0     993.7    NA       0.0000   9999     330   0     0    
2019/06/15  05:06:00  BASE  4.36296  263  5.99172  257  -1.2  100   -1.2  0     0     993.7    NA       0.0000   9999     330   0     0    
2019/06/15  05:07:00  BASE  4.1748   265  5.99172  257  -1.2  100   -1.2  0     0     993.7    NA       0.0000   9999     360   0     0    
2019/06/15  05:08:00  BASE  4.33356  268  5.99172  257  -1.2  100   -1.2  0     0     993.8    NA       0.0000   9999     300   0     0    
2019/06/15  05:09:00  BASE  4.4982   266  5.99172  257  -1.2  100   -1.2  0     0     993.9    NA       0.0000   9999     330   0     0    
2019/06/15  05:10:00  BASE  3.86316  265  5.59776  270  -1.2  100   -1.2  0     0     993.9    NA       0.0000   9999     260   0     0    
2019/06/15  05:11:00  BASE  3.5868   266  5.59776  270  -1.2  100   -1.2  0     0     993.9    NA       0.0000   9999     230   0     0    
2019/06/15  05:12:00  BASE  3.88668  272  5.59776  270  -1.2  100   -1.2  0     0     993.9    NA       0.0000   9999     0     0     0    
2019/06/15  05:13:00  BASE  4.38648  274  6.07992  273  -1.2  100   -1.2  0     0     993.9    NA       0.0000   9999     0     0     0    
2019/06/15  05:14:00  BASE  4.84512  272  6.07992  273  -1.2  100   -1.2  0     0     993.9    NA       0.0000   9999     0     0     0    
2019/06/15  05:15:00  BASE  4.88628  277  6.07992  273  -1.2  100   -1.2  0     0     993.9    NA       0.0000   9999     0     0     0    
2019/06/15  05:16:00  BASE  4.97448  278  6.07992  275  -1.2  100   -1.2  0     0     993.9    NA       0.0000   9000     0     0     0    
2019/06/15  05:17:00  BASE  5.06268  282  6.2622   278  -1.2  100   -1.2  0     0     994.0    NA       0.0000   8000     0     0     0    
2019/06/15  05:18:00  BASE  5.54484  283  6.68556  274  -1.1  100   -1.1  0     0     994.0    NA       0.0000   7000     0     0     0    
2019/06/15  05:19:00  BASE  5.76828  282  6.68556  274  -1.1  100   -1.1  0     0     994.0    NA       0.0000   7000     0     0     0    
2019/06/15  05:20:00  BASE  5.7036   281  6.98544  278  -1.1  100   -1.1  0     0     993.9    NA       0.0000   BR       5000  0     0    
2019/06/15  05:21:00  BASE  5.76828  277  6.98544  278  -1.1  100   -1.1  0     0     994.0    NA       0.0000   BR       4900  0     0    
2019/06/15  05:22:00  BASE  5.68596  274  6.98544  278  -1.1  100   -1.1  0     0     993.9    NA       0.0000   BR       5000  0     0    
2019/06/15  05:23:00  BASE  5.48604  274  6.98544  278  -1.1  100   -1.1  0     0     994.0    NA       0.0000   BR       6000  0     0    
2019/06/15  05:24:00  BASE  5.31552  276  6.98544  278  -1.1  100   -1.1  0     0     994.0    NA       0.0000   BR       6000  0     0    
2019/06/15  05:25:00  BASE  5.27436  276  6.98544  278  -1.1  100   -1.1  0     0     994.0    NA       0.0000   BR       7000  0     0    
2019/06/15  05:26:00  BASE  5.10384  278  6.98544  278  -1.1  100   -1.1  0     0     993.9    NA       0.0000   BR       8000  0     0    
2019/06/15  05:27:00  BASE  4.9686   277  6.98544  278  -1.1  100   -1.1  0     0     993.9    NA       0.0000   BR       7000  0     0    
2019/06/15  05:28:00  BASE  4.851    274  6.98544  278  -1.1  100   -1.1  0     0     993.9    NA       0.0000   BR       8000  0     0    
2019/06/15  05:29:00  BASE  5.06268  276  6.98544  278  -1.1  100   -1.1  0     0     994.0    NA       0.0000   BR       8000  0     0    
2019/06/15  05:30:00  BASE  5.25672  277  6.83844  269  -1.1  100   -1.1  0     0     993.9    NA       0.0000   BR       9000  0     0    
2019/06/15  05:31:00  BASE  4.99212  278  6.83844  269  -1.1  100   -1.1  0     0     994.0    NA       0.0000   BR       9000  0     0    
2019/06/15  05:32:00  BASE  5.07444  277  6.53268  283  -1.1  100   -1.1  0     0     993.9    NA       0.0000   BR       8000  0     0    
2019/06/15  05:33:00  BASE  5.22732  277  6.53268  283  -1.1  100   -1.1  0     0     994.0    NA       0.0000   BR       9000  0     0    
2019/06/15  05:34:00  BASE  5.3508   279  6.47388  279  -1.1  100   -1.1  0     0     994.0    NA       0.0000   BR       8000  0     0    
2019/06/15  05:35:00  BASE  5.33316  279  6.44448  268  -1.1  100   -1.1  0     0     994.0    NA       0.0000   BR       8000  0     0    
2019/06/15  05:36:00  BASE  5.12148  282  6.44448  268  -1.1  100   -1.1  0     0     994.1    NA       0.0000   BR       9000  0     0    
2019/06/15  05:37:00  BASE  5.05092  283  6.44448  268  -1.1  100   -1.1  0     0     994.1    NA       0.0000   BR       8000  0     0    
2019/06/15  05:38:00  BASE  4.86864  283  6.44448  268  -1.1  100   -1.1  0     0     994.1    NA       0.0000   BR       7000  0     0    
2019/06/15  05:39:00  BASE  4.998    285  6.44448  268  -1.1  100   -1.1  0     0     994.1    NA       0.0000   BR       7000  0     0    
2019/06/15  05:40:00  BASE  5.22144  284  6.44448  268  -1.1  100   -1.1  0     0     994.1    NA       0.0000   BR       8000  0     0    
2019/06/15  05:41:00  BASE  4.92156  285  6.44448  268  -1.1  100   -1.1  0     0     994.1    NA       0.0000   BR       8000  0     0    
2019/06/15  05:42:00  BASE  4.56288  284  6.16812  277  -1.1  100   -1.1  0     0     994.1    NA       0.0000   BR       8000  0     0    
2019/06/15  05:43:00  BASE  4.36296  285  6.16812  277  -1.1  100   -1.1  0     0     994.2    NA       0.0000   BR       8000  0     0    
2019/06/15  05:44:00  BASE  4.2924   287  6.05052  285  -1.1  100   -1.1  0     0     994.2    NA       0.0000   BR       8000  0     0    
2019/06/15  05:45:00  BASE  4.22184  289  6.05052  285  -1.1  100   -1.1  0     0     994.2    NA       0.0000   BR       7000  0     0    
2019/06/15  05:46:00  BASE  4.04544  292  6.05052  285  -1.1  100   -1.1  0     0     994.2    NA       0.0000   BR       7000  0     0    
2019/06/15  05:47:00  BASE  3.92784  291  6.05052  285  -1.1  100   -1.1  0     0     994.3    NA       0.0000   BR       5000  0     0    
2019/06/15  05:48:00  BASE  3.8514   291  6.05052  285  -1.1  100   -1.1  0     0     994.3    NA       0.0000   BR       6000  0     0    
2019/06/15  05:49:00  BASE  3.88668  295  5.65656  289  -1.1  100   -1.1  0     0     994.3    NA       0.0000   BR       8000  0     0    
2019/06/15  05:50:00  BASE  3.9102   297  5.59776  284  -1.1  100   -1.1  0     0     994.4    NA       0.0000   BR       9999  0     0    
2019/06/15  05:51:00  BASE  3.8808   294  5.59776  284  -1.1  100   -1.1  0     0     994.3    NA       0.0000   BR       9999  0     0    
2019/06/15  05:52:00  BASE  3.79848  292  5.2626   289  -1.1  100   -1.1  0     0     994.3    NA       0.0000   BR       9999  0     0    
2019/06/15  05:53:00  BASE  3.88668  294  5.2626   289  -1.1  100   -1.1  0     0     994.2    NA       0.2540   BR       9999  0     0    
2019/06/15  05:54:00  BASE  3.81024  295  4.78044  278  -1.1  100   -1.1  0     0     994.2    NA       0.0000   BR       9000  0     0    
2019/06/15  05:55:00  BASE  3.52212  294  4.78044  278  -1.1  100   -1.1  0     0     994.2    NA       0.0000   BR       6000  0     0    
2019/06/15  05:56:00  BASE  3.53976  293  4.78044  278  -1.1  100   -1.1  0     0     994.2    NA       0.0000   BR       5000  0     0    
2019/06/15  05:57:00  BASE  3.62208  291  4.78044  278  -1.1  100   -1.1  0     0     994.3    NA       0.0000   BR       5000  0     0    
2019/06/15  05:58:00  BASE  3.7926   289  4.78044  278  -1.1  100   -1.1  0     0     994.3    NA       0.0000   BR       6000  0     0    
2019/06/15  05:59:00  BASE  3.82788  288  4.78044  278  -1.1  100   -1.1  0     0     994.4    NA       0.0000   BR       7000  0     0    
2019/06/15  06:00:00  BASE  3.83376  289  4.78044  278  -1.1  100   -1.1  0     0     994.4    NA       0.0000   BR       8000  0     0    
2019/06/15  06:01:00  BASE  3.83376  292  4.78044  278  -1.1  100   -1.1  0     0     994.5    NA       0.0000   BR       8000  0     0    
2019/06/15  06:02:00  BASE  3.969    291  4.78044  291  -1.1  100   -1.1  0     0     994.5    NA       0.0000   BR       9000  0     0    
2019/06/15  06:03:00  BASE  4.30416  286  4.78044  291  -1.1  100   -1.1  0     0     994.6    NA       0.0000   BR       8000  0     0    
2019/06/15  06:04:00  BASE  4.07484  285  4.78044  291  -1.1  100   -1.1  0     0     994.6    NA       0.0000   BR       8000  0     0    
2019/06/15  06:05:00  BASE  3.7926   287  4.78044  291  -1.0  100   -1.0  0     0     994.7    NA       0.0000   BR       7000  0     0    
2019/06/15  06:06:00  BASE  3.97488  286  4.89804  280  -1.0  100   -1.0  0     0     994.7    NA       0.0000   BR       7000  0     0    
2019/06/15  06:07:01  BASE  4.36884  283  5.38608  288  -1.0  100   -1.0  0     0     994.7    NA       0.0000   BR       7000  0     0    
2019/06/15  06:08:00  BASE  4.40412  281  5.38608  288  -1.0  100   -1.0  0     0     994.8    NA       0.0000   BR       8000  0     0    
2019/06/15  06:09:01  BASE  4.15128  281  5.38608  288  -1.0  100   -1.0  0     0     994.8    NA       0.0000   BR       9000  0     0    
2019/06/15  06:10:00  BASE  4.08072  278  5.38608  288  -1.0  100   -1.0  0     0     994.9    NA       0.0000   BR       9999  0     0    
2019/06/15  06:11:00  BASE  4.26888  275  5.41548  269  -1.0  100   -1.0  0     0     994.9    NA       0.0000   BR       9999  0     0    
2019/06/15  06:12:00  BASE  4.13364  273  5.41548  269  -1.0  100   -1.0  0     0     994.9    NA       0.0000   BR       9000  0     0    
2019/06/15  06:13:00  BASE  3.71616  275  5.41548  269  -1.0  100   -1.0  0     0     995.0    NA       0.0000   BR       9000  0     0    
2019/06/15  06:14:01  BASE  3.54564  273  5.41548  269  -1.0  100   -1.0  0     0     994.9    NA       0.0000   BR       9000  0     0    
2019/06/15  06:15:00  BASE  3.58092  270  5.41548  269  -1.0  100   -1.0  0     0     994.9    NA       0.0000   BR       9999  0     0    
2019/06/15  06:16:00  BASE  3.66912  267  5.41548  269  -1.0  100   -1.0  0     0     994.9    NA       0.0000   BR       9999  0     0    
2019/06/15  06:17:01  BASE  3.37512  267  5.41548  269  -1.1  100   -1.1  0     0     994.8    NA       0.0000   BR       9999  0     0    
2019/06/15  06:18:00  BASE  3.10464  270  5.41548  269  -1.1  100   -1.1  0     0     994.8    NA       0.0000   BR       9999  0     0    
2019/06/15  06:19:00  BASE  2.95176  266  5.41548  269  -1.1  100   -1.1  0     0     994.8    NA       0.0000   9999     0     0     0    
2019/06/15  06:20:00  BASE  2.84004  270  5.41548  269  -1.1  100   -1.1  0     0     994.8    NA       0.0000   9999     0     0     0    
2019/06/15  06:21:00  BASE  3.16344  272  4.93332  262  -1.1  100   -1.1  0     0     994.7    NA       0.0000   9999     0     0     0    
2019/06/15  06:22:00  BASE  3.05172  271  4.93332  262  -1.1  100   -1.1  0     0     994.7    NA       0.0000   9999     0     0     0    
2019/06/15  06:23:00  BASE  2.81064  272  4.93332  262  -1.1  100   -1.1  0     0     994.7    NA       0.0000   9999     0     0     0    
2019/06/15  06:24:00  BASE  2.65776  267  4.93332  262  -1.1  100   -1.1  0     0     994.7    NA       0.0000   9999     260   0     0    
2019/06/15  06:25:00  BASE  2.64012  264  4.93332  262  -1.1  100   -1.1  0     0     994.7    NA       0.0000   9999     260   0     0    
2019/06/15  06:26:00  BASE  2.75184  267  3.93372  273  -1.2  100   -1.2  0     0     994.8    NA       0.0000   9999     260   0     0    
2019/06/15  06:27:01  BASE  2.80476  266  3.93372  273  -1.2  100   -1.2  0     0     994.8    NA       0.0000   9999     300   0     0    
2019/06/15  06:28:01  BASE  3.22224  262  3.81024  255  -1.2  100   -1.2  0     0     994.7    NA       0.0000   9999     300   0     0    
2019/06/15  06:29:01  BASE  3.19872  262  3.81024  255  -1.2  100   -1.2  0     0     994.7    NA       0.0000   9999     330   0     0    
2019/06/15  06:30:01  BASE  2.95176  262  3.81024  255  -1.2  100   -1.2  0     0     994.7    NA       0.0000   9999     330   0     0    
2019/06/15  06:31:00  BASE  3.06348  261  3.81024  255  -1.2  100   -1.2  0     0     994.7    NA       0.0000   9999     330   0     0    
2019/06/15  06:32:00  BASE  3.22812  257  3.93372  257  -1.2  100   -1.2  0     0     994.7    NA       0.0000   9999     360   0     0    
2019/06/15  06:33:00  BASE  3.45156  254  4.263    254  -1.3  100   -1.3  0     0     994.7    NA       0.0000   9999     430   1540  0    
2019/06/15  06:34:00  BASE  3.91608  251  4.62756  250  -1.3  100   -1.3  0     0     994.7    NA       0.0000   9999     430   1440  0    
2019/06/15  06:35:00  BASE  4.15128  251  4.68636  252  -1.3  100   -1.3  0     0     994.7    NA       0.0000   9999     660   0     0    
2019/06/15  06:36:00  BASE  3.88668  251  4.68636  252  -1.4  100   -1.4  0     0     994.7    NA       0.0000   9999     890   0     0    
2019/06/15  06:37:00  BASE  3.41628  250  4.68636  252  -1.4  100   -1.4  0     0     994.8    NA       0.0000   9999     850   1870  0    
2019/06/15  06:38:00  BASE  3.12816  249  4.68636  252  -1.4  100   -1.4  0     0     994.8    NA       0.0000   9999     690   0     0    
2019/06/15  06:39:00  BASE  2.97528  249  4.68636  252  -1.4  100   -1.4  0     0     994.9    NA       0.0000   9999     820   0     0    
2019/06/15  06:40:00  BASE  2.9988   251  4.68636  252  -1.4  100   -1.4  0     0     994.9    NA       0.0000   9999     720   0     0    
2019/06/15  06:41:00  BASE  3.087    254  4.68636  252  -1.4  100   -1.4  0     0     995.0    NA       0.0000   9999     790   0     0    
2019/06/15  06:42:00  BASE  2.94588  257  4.68636  252  -1.4  100   -1.4  0     0     995.0    NA       0.0000   9999     750   0     0    
2019/06/15  06:43:00  BASE  2.66952  260  4.68636  252  -1.4  100   -1.4  0     0     995.1    NA       0.0000   9999     920   0     0    
2019/06/15  06:44:00  BASE  2.35788  265  4.68636  252  -1.4  100   -1.4  0     0     995.2    NA       0.0000   9999     890   0     0    
2019/06/15  06:45:00  BASE  2.36376  268  4.29828  248  -1.4  100   -1.4  0     0     995.2    NA       0.0000   9999     820   0     0    
2019/06/15  06:46:00  BASE  2.68716  271  3.69264  265  -1.3  100   -1.3  0     0     995.2    NA       0.0000   9999     690   0     0    
2019/06/15  06:47:00  BASE  3.2046   268  4.1748   261  -1.3  100   -1.3  0     0     995.2    NA       0.0000   9999     560   0     0    
2019/06/15  06:48:00  BASE  3.48096  267  4.1748   261  -1.3  100   -1.3  0     0     995.2    NA       0.0000   9999     390   0     0    
2019/06/15  06:49:00  BASE  3.36336  266  4.2042   257  -1.3  100   -1.3  0     0     995.2    NA       0.0000   9999     390   0     0    
2019/06/15  06:50:00  BASE  2.92824  265  4.2042   257  -1.3  100   -1.3  0     0     995.2    NA       0.0000   9999     330   0     0    
2019/06/15  06:51:00  BASE  2.94     268  4.2042   257  -1.3  100   -1.3  0     0     995.2    NA       0.0000   9999     330   0     0    
2019/06/15  06:52:01  BASE  3.16932  264  4.2042   257  -1.3  100   -1.3  0     0     995.2    NA       0.0000   9999     330   0     0    
2019/06/15  06:53:00  BASE  3.25164  264  4.2042   257  -1.3  100   -1.3  0     0     995.2    NA       0.0000   9999     330   0     0    
2019/06/15  06:54:00  BASE  3.087    267  4.2042   257  -1.3  100   -1.3  0     0     995.3    NA       0.0000   9999     330   0     0    
2019/06/15  06:55:00  BASE  2.7048   268  4.2042   257  -1.3  100   -1.3  0     0     995.3    NA       0.0000   9999     330   0     0    
2019/06/15  06:56:00  BASE  2.7636   267  4.2042   257  -1.3  100   -1.3  0     0     995.3    NA       0.0000   9999     330   0     0    
2019/06/15  06:57:00  BASE  2.7048   267  4.2042   257  -1.3  100   -1.3  0     0     995.3    NA       0.0000   9999     330   0     0    
2019/06/15  06:58:00  BASE  2.60484  271  4.2042   257  -1.2  100   -1.2  0     0     995.4    NA       0.0000   9999     360   0     0    
2019/06/15  06:59:00  BASE  2.86944  277  3.96312  276  -1.2  100   -1.2  0     0     995.4    NA       0.0000   9999     360   0     0    
2019/06/15  07:00:00  BASE  3.13404  276  3.96312  276  -1.3  100   -1.3  0     0     995.3    NA       0.0000   9999     360   0     0    
2019/06/15  07:01:00  BASE  3.34572  273  4.44528  270  -1.3  100   -1.3  0     0     995.4    NA       0.0000   9999     360   0     0    
2019/06/15  07:02:00  BASE  3.31632  271  4.44528  270  -1.3  100   -1.3  0     0     995.3    NA       0.0000   9999     390   0     0    
2019/06/15  07:03:00  BASE  3.19872  270  4.44528  270  -1.3  100   -1.3  0     0     995.4    NA       0.0000   9999     430   0     0    
2019/06/15  07:04:00  BASE  3.50448  266  4.44528  270  -1.3  100   -1.3  0     0     995.4    NA       0.0000   9999     430   0     0    
2019/06/15  07:05:00  BASE  3.4986   262  4.44528  270  -1.3  100   -1.3  0     0     995.4    NA       0.0000   9999     430   0     0    
2019/06/15  07:06:00  BASE  3.01056  265  4.44528  270  -1.3  100   -1.3  0     0     995.4    NA       0.0000   9999     460   0     0    
2019/06/15  07:07:00  BASE  2.92236  266  4.44528  270  -1.3  100   -1.3  0     0     995.4    NA       0.0000   9999     750   0     0    
2019/06/15  07:08:00  BASE  2.96352  264  4.44528  270  -1.3  100   -1.3  0     0     995.4    NA       0.0000   9999     590   0     0    
2019/06/15  07:09:00  BASE  2.85768  269  4.44528  270  -1.4  100   -1.4  0     0     995.4    NA       0.0000   9999     1050  0     0    
2019/06/15  07:10:00  BASE  3.25752  269  4.44528  270  -1.4  100   -1.4  0     0     995.4    NA       0.0000   9999     590   0     0    
2019/06/15  07:11:00  BASE  3.2928   264  4.2336   268  -1.4  100   -1.4  0     0     995.5    NA       0.0000   9999     890   0     0    
2019/06/15  07:12:00  BASE  2.74008  263  4.2336   268  -1.4  100   -1.4  0     0     995.5    NA       0.0000   9999     1150  0     0    
2019/06/15  07:13:00  BASE  2.84004  262  4.41588  257  -1.4  100   -1.4  0     0     995.5    NA       0.0000   9999     1250  0     0    
2019/06/15  07:14:00  BASE  3.03996  265  4.41588  257  -1.4  100   -1.4  0     0     995.5    NA       0.0000   9999     1210  1970  0    
2019/06/15  07:15:00  BASE  3.234    265  4.41588  257  -1.4  100   -1.4  0     0     995.5    NA       0.0000   9999     1150  0     0    
2019/06/15  07:16:00  BASE  3.19284  262  4.41588  257  -1.4  100   -1.4  0     0     995.6    NA       0.0000   9999     1210  0     0    
2019/06/15  07:17:00  BASE  2.8518   263  4.41588  257  -1.4  100   -1.4  0     0     995.7    NA       0.0000   9999     1250  0     0    
2019/06/15  07:18:00  BASE  2.64012  264  4.41588  257  -1.4  100   -1.4  0     0     995.7    NA       0.0000   9999     1180  0     0    
2019/06/15  07:19:00  BASE  2.64012  265  4.41588  257  -1.4  100   -1.4  0     0     995.7    NA       0.0000   9999     1250  0     0    
2019/06/15  07:20:00  BASE  2.99292  265  4.41588  257  -1.4  100   -1.4  0     0     995.7    NA       0.0000   9999     1210  1900  0    
2019/06/15  07:21:00  BASE  3.23988  263  4.41588  257  -1.4  100   -1.4  0     0     995.7    NA       0.0000   9999     1210  0     0    
2019/06/15  07:22:00  BASE  3.40452  265  4.41588  257  -1.4  100   -1.4  0     0     995.7    NA       0.0000   9999     1210  0     0    
2019/06/15  07:23:00  BASE  3.3222   263  4.02192  261  -1.4  100   -1.4  0     0     995.7    NA       0.0000   9999     1250  0     0    
2019/06/15  07:24:00  BASE  3.15756  264  4.02192  261  -1.4  100   -1.4  0     0     995.7    NA       0.0000   9999     1150  0     0    
2019/06/15  07:25:00  BASE  3.0282   267  4.02192  261  -1.4  100   -1.4  0     0     995.7    NA       0.0000   9999     1050  0     0    
2019/06/15  07:26:00  BASE  3.05172  264  4.02192  261  -1.4  100   -1.4  0     0     995.7    NA       0.0000   9999     1150  0     0    
2019/06/15  07:27:00  BASE  3.18696  260  4.02192  261  -1.4  100   -1.4  0     0     995.6    NA       0.0000   9999     1180  0     0    
2019/06/15  07:28:00  BASE  3.1458   260  4.02192  261  -1.4  100   -1.4  0     0     995.6    NA       0.0000   9999     1250  0     0    
2019/06/15  07:29:00  BASE  2.83416  261  4.02192  261  -1.4  100   -1.4  0     0     995.6    NA       0.0000   9999     1280  2300  0    
2019/06/15  07:30:00  BASE  2.646    266  4.02192  261  -1.5  100   -1.5  0     0     995.6    NA       0.0000   9999     1210  2760  0    
2019/06/15  07:31:00  BASE  2.74008  268  4.02192  261  -1.5  100   -1.5  0     0     995.6    NA       0.0000   9999     2530  0     0    
2019/06/15  07:32:00  BASE  2.92824  266  3.83964  267  -1.5  100   -1.5  0     0     995.6    NA       0.0000   9999     2560  2990  0    
2019/06/15  07:33:00  BASE  2.84592  266  3.83964  267  -1.5  100   -1.5  0     0     995.6    NA       0.0000   9999     1210  2490  3050 
2019/06/15  07:34:00  BASE  2.6166   267  3.83964  267  -1.5  100   -1.5  0     0     995.5    NA       0.0000   9999     1280  2400  3080 
2019/06/15  07:35:00  BASE  2.64012  269  3.83964  267  -1.5  100   -1.5  0     0     995.6    NA       0.0000   9999     1150  2400  0    
2019/06/15  07:36:00  BASE  2.64012  275  3.83964  267  -1.5  100   -1.5  0     0     995.6    NA       0.0000   9999     2400  2950  0    
2019/06/15  07:37:00  BASE  2.51664  272  3.83964  267  -1.5  100   -1.5  0     0     995.6    NA       0.0000   9999     2360  3020  0    
2019/06/15  07:38:00  BASE  2.59308  270  3.83964  267  -1.5  100   -1.5  0     0     995.5    NA       0.0000   9999     2330  3050  0    
2019/06/15  07:39:00  BASE  2.71656  272  3.83964  267  -1.5  100   -1.5  0     0     995.5    NA       0.0000   9999     2400  2990  0    
2019/06/15  07:40:00  BASE  2.59308  267  3.83964  267  -1.5  100   -1.5  0     0     995.5    NA       0.0000   9999     2030  0     0    
2019/06/15  07:41:00  BASE  2.62248  267  3.83964  267  -1.5  100   -1.5  0     0     995.5    NA       0.0000   9999     2000  0     0    
2019/06/15  07:42:00  BASE  2.7636   270  3.51036  260  -1.5  100   -1.5  0     0     995.4    NA       0.0000   9999     2130  0     0    
2019/06/15  07:43:00  BASE  2.52252  272  3.51036  260  -1.5  100   -1.5  0     0     995.4    NA       0.0000   9999     2100  0     0    
2019/06/15  07:44:00  BASE  2.28144  267  3.29868  268  -1.5  100   -1.5  0     0     995.4    NA       0.0000   9999     2170  0     0    
2019/06/15  07:45:00  BASE  2.28732  266  3.29868  268  -1.5  100   -1.5  0     0     995.4    NA       0.0000   9999     2430  0     0    
2019/06/15  07:46:00  BASE  2.19324  269  3.29868  268  -1.5  100   -1.5  0     0     995.4    NA       0.0000   9999     2620  0     0    
2019/06/15  07:47:00  BASE  2.3814   268  3.32808  265  -1.5  100   -1.5  0     0     995.4    NA       0.0000   9999     2330  0     0    
2019/06/15  07:48:00  BASE  2.59308  271  3.32808  265  -1.5  100   -1.5  0     0     995.4    NA       0.0000   9999     2460  0     0    
2019/06/15  07:49:00  BASE  2.79888  270  3.59856  265  -1.5  100   -1.5  0     0     995.4    NA       0.0000   9999     2360  0     0    
2019/06/15  07:50:00  BASE  2.90472  266  3.69264  268  -1.5  100   -1.5  0     0     995.4    NA       0.0000   UP       9999  2360  0    
2019/06/15  07:51:00  BASE  2.84592  264  3.69264  268  -1.6  100   -1.6  0     0     995.4    NA       0.0000   UP       9999  2400  0    
2019/06/15  07:52:00  BASE  2.59308  267  3.69264  268  -1.6  100   -1.6  0     0     995.4    NA       0.0000   UP       9999  2460  0    
2019/06/15  07:53:00  BASE  2.2932   269  3.69264  268  -1.6  100   -1.6  0     0     995.4    NA       0.0000   UP       9999  2560  0    
2019/06/15  07:54:00  BASE  1.9992   269  3.69264  268  -1.6  100   -1.6  0     0     995.4    NA       0.0000   UP       9999  2590  0    
2019/06/15  07:55:00  BASE  1.7934   270  3.69264  268  -1.6  100   -1.6  0     0     995.4    NA       0.0000   UP       9999  2560  3120 
2019/06/15  07:56:00  BASE  2.02272  270  3.69264  268  -1.6  100   -1.6  0     0     995.4    NA       0.0000   UP       9999  2760  0    
2019/06/15  07:57:00  BASE  2.06976  271  3.69264  268  -1.6  100   -1.6  0     0     995.4    NA       0.0000   UP       9999  2400  3380 
2019/06/15  07:58:00  BASE  1.95216  272  3.69264  268  -1.6  100   -1.6  0     0     995.4    NA       0.0000   UP       9999  2330  0    
2019/06/15  07:59:00  BASE  1.9404   279  3.69264  268  -1.6  100   -1.6  0     0     995.4    NA       0.0000   UP       9999  2400  0    
2019/06/15  08:00:00  BASE  2.00508  279  3.41628  260  -1.6  100   -1.6  0     0     995.4    NA       0.0000   UP       9999  2430  0    
2019/06/15  08:01:00  BASE  2.1462   274  3.087    283  -1.6  100   -1.6  0     0     995.3    NA       0.0000   9999     2330  0     0    
2019/06/15  08:02:00  BASE  2.34024  275  2.87532  278  -1.5  100   -1.5  0     0     995.3    NA       0.0000   9999     2260  0     0    
2019/06/15  08:03:00  BASE  2.25204  278  2.87532  278  -1.5  100   -1.5  0     0     995.3    NA       0.0000   9999     2260  0     0    
2019/06/15  08:04:00  BASE  2.06388  278  2.87532  278  -1.5  100   -1.5  0     0     995.2    NA       0.0000   9999     2300  0     0    
2019/06/15  08:05:00  BASE  2.058    279  2.87532  278  -1.5  100   -1.5  0     0     995.2    NA       0.0000   9999     2460  0     0    
2019/06/15  08:06:00  BASE  1.9698   279  2.87532  278  -1.5  100   -1.5  0     0     995.2    NA       0.0000   9999     2560  0     0    
2019/06/15  08:07:00  BASE  1.9404   275  2.87532  278  -1.5  100   -1.5  0     0     995.1    NA       0.0000   9999     2590  0     0    
2019/06/15  08:08:00  BASE  2.0286   277  2.87532  278  -1.5  100   -1.5  0     0     995.1    NA       0.0000   9999     2690  0     0    
2019/06/15  08:09:00  BASE  2.00508  282  2.87532  278  -1.5  100   -1.5  0     0     995.1    NA       0.0000   9999     0     0     0    
2019/06/15  08:10:00  BASE  1.97568  281  2.87532  278  -1.5  100   -1.5  0     0     995.1    NA       0.0000   9999     0     0     0    
2019/06/15  08:11:00  BASE  1.8522   274  2.87532  278  -1.5  100   -1.5  0     0     995.1    NA       0.0000   9999     0     0     0    
2019/06/15  08:12:00  BASE  1.71696  273  2.45196  280  -1.5  100   -1.5  0     0     995.1    NA       0.0000   9999     0     0     0    
2019/06/15  08:13:00  BASE  1.86984  277  2.45196  280  -1.5  100   -1.5  0     0     995.1    NA       0.0000   9999     0     0     0    
2019/06/15  08:14:00  BASE  1.83456  274  2.45196  280  -1.5  100   -1.5  0     0     995.1    NA       0.0000   9999     0     0     0    
2019/06/15  08:15:00  BASE  1.59348  275  2.45196  280  -1.5  100   -1.5  0     0     995.1    NA       0.0000   9999     0     0     0    
2019/06/15  08:16:00  BASE  1.59936  277  2.45196  280  -1.5  100   -1.5  0     0     995.1    NA       0.0000   9999     0     0     0    
2019/06/15  08:17:00  BASE  1.57584  276  2.45196  280  -1.5  100   -1.5  0     0     995.1    NA       0.0000   9999     0     0     0    
2019/06/15  08:18:00  BASE  1.31712  277  2.45196  280  -1.5  100   -1.5  0     0     995.0    NA       0.0000   9999     0     0     0    
2019/06/15  08:19:00  BASE  1.15248  271  2.45196  280  -1.5  100   -1.5  0     0     995.0    NA       0.0000   9999     0     0     0    
2019/06/15  08:20:00  BASE  1.19364  271  2.35788  280  -1.5  100   -1.5  0     0     995.0    NA       0.0000   9999     0     0     0    
2019/06/15  08:21:00  BASE  1.45824  278  2.35788  280  -1.5  100   -1.5  0     0     994.9    NA       0.0000   9999     6730  0     0    
2019/06/15  08:22:00  BASE  1.54056  274  2.35788  280  -1.5  100   -1.5  0     0     995.0    NA       0.0000   9999     0     0     0    
2019/06/15  08:23:00  BASE  1.30536  272  2.0286   273  -1.5  100   -1.5  0     0     995.0    NA       0.0000   9999     6660  0     0    
2019/06/15  08:24:00  BASE  1.27008  278  2.0286   273  -1.5  100   -1.5  0     0     995.0    NA       0.0000   9999     0     0     0    
2019/06/15  08:25:00  BASE  1.39356  284  2.0286   273  -1.5  100   -1.5  0     0     995.0    NA       0.0000   9999     0     0     0    
2019/06/15  08:26:00  BASE  1.45824  284  1.96392  267  -1.5  100   -1.5  0     0     994.9    NA       0.0000   9999     0     0     0    
2019/06/15  08:27:00  BASE  1.42296  287  1.96392  267  -1.4  100   -1.4  0     0     995.0    NA       0.0000   9999     0     0     0    
2019/06/15  08:28:00  BASE  1.43472  292  1.96392  267  -1.4  100   -1.4  0     0     995.0    NA       0.0000   9999     0     0     0    
2019/06/15  08:29:00  BASE  1.40532  292  1.96392  267  -1.4  100   -1.4  0     0     995.0    NA       0.0000   9999     0     0     0    
2019/06/15  08:30:00  BASE  1.37592  290  1.96392  267  -1.4  100   -1.4  0     0     995.0    NA       0.0000   9999     6690  0     0    
2019/06/15  08:31:00  BASE  1.50528  292  1.81692  292  -1.4  100   -1.4  0     0     995.0    NA       0.0000   9999     6590  0     0    
2019/06/15  08:32:00  BASE  1.47588  296  1.81692  292  -1.4  100   -1.4  0     0     995.0    NA       0.0000   9999     6730  0     0    
2019/06/15  08:33:00  BASE  1.49352  297  1.81692  290  -1.4  100   -1.4  0     0     995.0    NA       0.0000   9999     6990  0     0    
2019/06/15  08:34:00  BASE  1.55232  301  1.81692  290  -1.4  100   -1.4  0     0     995.0    NA       0.0000   9999     5710  0     0    
2019/06/15  08:35:01  BASE  1.44648  308  1.81692  290  -1.4  100   -1.4  0     0     994.9    NA       0.0000   9999     5610  0     0    
2019/06/15  08:36:00  BASE  1.38768  314  1.81692  290  -1.4  100   -1.4  0     0     994.9    NA       0.0000   9999     0     0     0    
2019/06/15  08:37:00  BASE  1.39944  317  1.81692  290  -1.4  100   -1.4  0     0     994.9    NA       0.0000   9999     5910  0     0    
2019/06/15  08:38:00  BASE  1.47     319  1.81692  290  -1.4  100   -1.4  0     0     994.8    NA       0.0000   9999     6920  0     0    
2019/06/15  08:39:00  BASE  1.50528  324  1.81692  290  -1.4  100   -1.4  0     0     994.8    NA       0.0000   9999     0     0     0    
2019/06/15  08:40:00  BASE  1.42884  327  1.81692  290  -1.4  100   -1.4  0     0     994.8    NA       0.0000   9999     0     0     0    
2019/06/15  08:41:00  BASE  1.41708  328  1.81692  290  -1.4  100   -1.4  0     0     994.7    NA       0.0000   9999     0     0     0    
2019/06/15  08:42:00  BASE  1.59936  326  1.87572  319  -1.4  100   -1.4  0     0     994.7    NA       0.0000   9999     0     0     0    
2019/06/15  08:43:00  BASE  1.69932  325  1.87572  319  -1.4  100   -1.4  0     0     994.7    NA       0.0000   9999     0     0     0    
2019/06/15  08:44:00  BASE  1.76988  325  2.1462   324  -1.4  100   -1.4  0     0     994.7    NA       0.0000   9999     0     0     0    
2019/06/15  08:45:00  BASE  1.911    322  2.1462   324  -1.4  100   -1.4  0     0     994.7    NA       0.0000   9999     0     0     0    
2019/06/15  08:46:00  BASE  1.94628  320  2.1462   324  -1.4  100   -1.4  0     0     994.7    NA       0.0000   9999     0     0     0    
2019/06/15  08:47:01  BASE  1.94628  321  2.1462   324  -1.4  100   -1.4  0     0     994.7    NA       0.0000   9999     4890  0     0    
2019/06/15  08:48:00  BASE  1.90512  321  2.1462   324  -1.4  100   -1.4  0     0     994.7    NA       0.0000   9999     4760  0     0    
2019/06/15  08:49:00  BASE  1.911    319  2.1462   324  -1.4  100   -1.4  0     0     994.7    NA       0.0000   9999     4690  0     0    
2019/06/15  08:50:00  BASE  1.98744  318  2.1756   307  -1.4  100   -1.4  0     0     994.8    NA       0.0000   9999     0     0     0    
2019/06/15  08:51:00  BASE  2.0874   317  2.24028  316  -1.4  100   -1.4  0     0     994.7    NA       0.0000   9999     0     0     0    
2019/06/15  08:52:00  BASE  2.08152  319  2.24028  316  -1.4  100   -1.4  0     0     994.7    NA       0.0000   9999     0     0     0    
2019/06/15  08:53:00  BASE  2.01096  321  2.24028  316  -1.4  100   -1.4  0     0     994.7    NA       0.0000   9999     0     0     0    
2019/06/15  08:54:00  BASE  2.01096  321  2.24028  316  -1.4  100   -1.4  0     0     994.7    NA       0.0000   9999     0     0     0    
2019/06/15  08:55:00  BASE  2.05212  321  2.24028  316  -1.4  100   -1.4  0     0     994.7    NA       0.0000   9999     0     0     0    
2019/06/15  08:56:00  BASE  2.15208  322  2.38728  318  -1.4  100   -1.4  0     0     994.6    NA       0.0000   9999     0     0     0    
2019/06/15  08:57:00  BASE  2.15208  324  2.38728  318  -1.4  100   -1.4  0     0     994.6    NA       0.0000   9999     0     0     0    
2019/06/15  08:58:00  BASE  2.12856  326  2.38728  318  -1.4  100   -1.4  0     0     994.5    NA       0.0000   9999     0     0     0    
2019/06/15  08:59:00  BASE  2.19324  328  2.38728  318  -1.4  100   -1.4  0     0     994.5    NA       0.0000   9999     0     0     0    
2019/06/15  09:00:00  BASE  2.29908  328  2.48136  328  -1.4  100   -1.4  0     0     994.5    NA       0.0000   9999     0     0     0    
2019/06/15  09:01:00  BASE  2.39316  328  2.69304  321  -1.4  100   -1.4  0     0     994.4    NA       0.0000   9999     0     0     0    
2019/06/15  09:02:00  BASE  2.47548  326  2.69304  321  -1.4  100   -1.4  0     0     994.4    NA       0.0000   9999     0     0     0    
2019/06/15  09:03:00  BASE  2.55192  326  2.69304  331  -1.4  100   -1.4  0     0     994.4    NA       0.0000   9999     0     0     0    
2019/06/15  09:04:00  BASE  2.65776  327  2.93412  329  -1.4  100   -1.4  0     0     994.3    NA       0.0000   9999     0     0     0    
2019/06/15  09:05:00  BASE  2.7342   326  2.93412  329  -1.4  100   -1.4  0     0     994.3    NA       0.0000   9999     0     0     0    
2019/06/15  09:06:00  BASE  2.62248  325  2.93412  329  -1.4  100   -1.4  0     0     994.3    NA       0.0000   9999     0     0     0    
2019/06/15  09:07:00  BASE  2.5872   324  2.93412  329  -1.4  100   -1.4  0     0     994.4    NA       0.0000   9999     7450  0     0    
2019/06/15  09:08:00  BASE  2.6754   322  3.087    320  -1.4  100   -1.4  0     0     994.4    NA       0.0000   9999     7450  0     0    
2019/06/15  09:09:00  BASE  2.71656  321  3.087    320  -1.4  100   -1.4  0     0     994.4    NA       0.0000   9999     7420  0     0    
2019/06/15  09:10:00  BASE  2.793    319  3.087    320  -1.4  100   -1.4  0     0     994.4    NA       0.0000   9999     8270  0     0    
2019/06/15  09:11:00  BASE  2.86356  319  3.1164   309  -1.4  100   -1.4  0     0     994.3    NA       0.0000   9999     7380  0     0    
2019/06/15  09:12:00  BASE  2.79888  318  3.1164   314  -1.4  100   -1.4  0     0     994.3    NA       0.0000   9999     8400  0     0    
2019/06/15  09:13:00  BASE  2.8224   317  3.35748  312  -1.4  100   -1.4  0     0     994.3    NA       0.0000   9999     9420  0     0    
2019/06/15  09:14:00  BASE  2.81652  317  3.35748  312  -1.4  100   -1.4  0     0     994.3    NA       0.0000   9999     8600  0     0    
2019/06/15  09:15:00  BASE  2.72832  317  3.35748  312  -1.4  100   -1.4  0     0     994.2    NA       0.0000   9999     9450  0     0    
2019/06/15  09:16:00  BASE  2.72832  316  3.35748  312  -1.4  100   -1.4  0     0     994.3    NA       0.0000   9999     8170  9420  0    
2019/06/15  09:17:00  BASE  2.59896  314  3.35748  312  -1.4  100   -1.4  0     0     994.3    NA       0.0000   9999     8860  0     0    
2019/06/15  09:18:00  BASE  2.65776  314  3.35748  312  -1.4  100   -1.4  0     0     994.2    NA       0.0000   9999     8860  0     0    
2019/06/15  09:19:00  BASE  2.77536  314  3.35748  312  -1.4  100   -1.4  0     0     994.3    NA       0.0000   9999     8430  0     0    
2019/06/15  09:20:00  BASE  2.80476  314  3.35748  312  -1.4  100   -1.4  0     0     994.2    NA       0.0000   9999     8560  0     0    
2019/06/15  09:21:00  BASE  3.03996  314  3.53976  311  -1.4  100   -1.4  0     0     994.2    NA       0.0000   9999     9090  0     0    
2019/06/15  09:22:00  BASE  3.29868  309  3.59856  306  -1.4  100   -1.4  0     0     994.2    NA       0.0000   9999     920   9190  0    
2019/06/15  09:23:00  BASE  3.4398   307  3.69264  308  -1.3  100   -1.3  0     0     994.2    NA       0.0000   9999     890   0     0    
2019/06/15  09:24:00  BASE  3.49272  304  3.86904  298  -1.3  100   -1.3  0     0     994.2    NA       0.0000   9999     1050  0     0    
2019/06/15  09:25:00  BASE  3.51624  300  3.86904  298  -1.4  100   -1.4  0     0     994.2    NA       0.0000   9999     1080  0     0    
2019/06/15  09:26:00  BASE  3.31632  301  3.86904  298  -1.4  100   -1.4  0     0     994.2    NA       0.0000   9999     9350  0     0    
2019/06/15  09:27:00  BASE  3.06936  303  3.86904  298  -1.4  100   -1.4  0     0     994.3    NA       0.0000   9999     8630  0     0    
2019/06/15  09:28:00  BASE  3.0282   304  3.86904  298  -1.5  100   -1.5  0     0     994.3    NA       0.0000   9999     1280  0     0    
2019/06/15  09:29:00  BASE  3.00468  304  3.86904  298  -1.5  100   -1.5  0     0     994.3    NA       0.0000   9999     1480  0     0    
2019/06/15  09:30:00  BASE  2.96352  304  3.86904  298  -1.5  100   -1.5  0     0     994.3    NA       0.0000   9999     1800  8660  0    
2019/06/15  09:31:00  BASE  2.94588  306  3.86904  298  -1.5  100   -1.5  0     0     994.3    NA       0.0000   9999     720   1540  0    
2019/06/15  09:32:00  BASE  3.12228  308  3.86904  298  -1.5  100   -1.5  0     0     994.3    NA       0.0000   9999     690   1510  0    
2019/06/15  09:33:00  BASE  3.26928  311  3.86904  298  -1.5  100   -1.5  0     0     994.3    NA       0.0000   9999     660   1770  0    
2019/06/15  09:34:00  BASE  3.31632  310  3.78084  297  -1.5  100   -1.5  0     0     994.3    NA       0.0000   9999     560   0     0    
2019/06/15  09:35:00  BASE  3.40452  308  3.59856  310  -1.5  100   -1.5  0     0     994.3    NA       0.0000   9999     750   1610  0    
2019/06/15  09:36:00  BASE  3.19872  305  3.59856  310  -1.5  100   -1.5  0     0     994.4    NA       0.0000   9999     720   1770  0    
2019/06/15  09:37:00  BASE  2.87532  303  3.59856  310  -1.5  100   -1.5  0     0     994.4    NA       0.0000   9999     720   1740  0    
2019/06/15  09:38:00  BASE  2.84592  304  3.59856  310  -1.5  100   -1.5  0     0     994.4    NA       0.0000   9999     8560  0     0    
2019/06/15  09:39:00  BASE  2.91648  306  3.59856  310  -1.5  100   -1.5  0     0     994.4    NA       0.0000   9999     1970  8460  0    
2019/06/15  09:40:00  BASE  2.92236  306  3.59856  310  -1.5  100   -1.5  0     0     994.4    NA       0.0000   9999     8560  0     0    
2019/06/15  09:41:00  BASE  2.89884  305  3.59856  310  -1.5  100   -1.5  0     0     994.4    NA       0.0000   9999     8530  0     0    
2019/06/15  09:42:00  BASE  2.88708  306  3.59856  310  -1.5  100   -1.5  0     0     994.4    NA       0.0000   9999     8500  0     0    
2019/06/15  09:43:00  BASE  2.793    305  3.59856  310  -1.5  100   -1.5  0     0     994.4    NA       0.0000   9999     8430  0     0    
2019/06/15  09:44:00  BASE  2.64012  305  3.56916  305  -1.5  100   -1.5  0     0     994.4    NA       0.0000   9999     1710  9090  0    
2019/06/15  09:45:00  BASE  2.52252  307  3.44568  297  -1.5  100   -1.5  0     0     994.4    NA       0.0000   9999     1670  9220  0    
2019/06/15  09:46:00  BASE  2.55192  308  3.2046   305  -1.5  100   -1.5  0     0     994.3    NA       0.0000   9999     8370  0     0    
2019/06/15  09:47:00  BASE  2.57544  304  3.2046   305  -1.5  100   -1.5  0     0     994.3    NA       0.0000   9999     8400  0     0    
2019/06/15  09:48:00  BASE  2.52252  304  3.2046   305  -1.5  100   -1.5  0     0     994.3    NA       0.0000   9999     9190  0     0    
2019/06/15  09:49:00  BASE  2.41668  307  3.2046   305  -1.5  100   -1.5  0     0     994.3    NA       0.0000   9999     9250  0     0    
2019/06/15  09:50:00  BASE  2.499    305  3.2046   305  -1.5  100   -1.5  0     0     994.2    NA       0.0000   9999     9220  0     0    
2019/06/15  09:51:00  BASE  2.62248  303  3.2046   305  -1.6  100   -1.6  0     0     994.1    NA       0.0000   9999     8330  0     0    
2019/06/15  09:52:00  BASE  2.51664  304  3.087    299  -1.6  100   -1.6  0     0     994.0    NA       0.0000   9999     8240  0     0    
2019/06/15  09:53:00  BASE  2.41668  303  3.087    299  -1.6  100   -1.6  0     0     994.0    NA       0.0000   9999     8170  9190  0    
2019/06/15  09:54:00  BASE  2.39316  301  3.087    299  -1.6  100   -1.6  0     0     994.0    NA       0.0000   9999     8140  0     0    
2019/06/15  09:55:00  BASE  2.53428  301  3.087    299  -1.6  100   -1.6  0     0     993.9    NA       0.0000   9999     8170  0     0    
2019/06/15  09:56:00  BASE  2.5284   301  3.087    299  -1.6  100   -1.6  0     0     993.9    NA       0.0000   9999     9420  0     0    
2019/06/15  09:57:00  BASE  2.55192  302  3.087    299  -1.6  100   -1.6  0     0     993.9    NA       0.0000   9999     8140  0     0    
2019/06/15  09:58:00  BASE  2.5872   303  3.087    299  -1.6  100   -1.6  0     0     993.8    NA       0.0000   9999     8140  0     0    
2019/06/15  09:59:00  BASE  2.5284   303  3.087    299  -1.6  100   -1.6  0     0     993.8    NA       0.0000   9999     8960  0     0    
2019/06/15  10:00:00  BASE  2.39904  303  2.99292  303  -1.6  100   -1.6  0     0     993.7    NA       0.0000   9999     8240  0     0    
2019/06/15  10:01:00  BASE  2.43432  303  2.99292  303  -1.6  100   -1.6  0     0     993.7    NA       0.0000   9999     8860  0     0    
2019/06/15  10:02:00  BASE  2.43432  303  2.99292  303  -1.6  100   -1.6  0     0     993.6    NA       0.0000   9999     8460  0     0    
2019/06/15  10:03:00  BASE  2.25204  304  2.99292  303  -1.6  100   -1.6  0     0     993.6    NA       0.0000   9999     8040  0     0    
2019/06/15  10:04:00  BASE  2.24028  303  2.99292  303  -1.6  100   -1.6  0     0     993.6    NA       0.0000   9999     8100  0     0    
2019/06/15  10:05:00  BASE  2.1462   303  2.93412  298  -1.6  100   -1.6  0     0     993.6    NA       0.0000   9999     8170  0     0    
2019/06/15  10:06:00  BASE  2.18148  302  2.93412  298  -1.6  100   -1.6  0     0     993.6    NA       0.0000   9999     8240  0     0    
2019/06/15  10:07:00  BASE  2.16384  305  2.93412  298  -1.6  100   -1.6  0     0     993.6    NA       0.0000   9999     9320  0     0    
2019/06/15  10:08:00  BASE  2.06976  308  2.93412  298  -1.6  100   -1.6  0     0     993.5    NA       0.0000   9999     3220  8990  0    
2019/06/15  10:09:00  BASE  2.16972  308  2.84592  303  -1.6  100   -1.6  0     0     993.5    NA       0.0000   9999     3180  9020  0    
2019/06/15  10:10:00  BASE  2.21676  309  2.87532  311  -1.6  100   -1.6  0     0     993.5    NA       0.0000   9999     3180  0     0    
2019/06/15  10:11:00  BASE  2.19912  306  2.87532  311  -1.6  100   -1.6  0     0     993.5    NA       0.0000   9999     3180  0     0    
2019/06/15  10:12:00  BASE  2.1168   305  2.87532  311  -1.6  100   -1.6  0     0     993.5    NA       0.0000   9999     3050  0     0    
2019/06/15  10:13:00  BASE  2.04624  305  2.87532  311  -1.6  100   -1.6  0     0     993.5    NA       0.0000   9999     2990  0     0    
2019/06/15  10:14:00  BASE  1.95804  305  2.87532  311  -1.6  100   -1.6  0     0     993.5    NA       0.0000   9999     2990  0     0    
2019/06/15  10:15:00  BASE  1.94628  302  2.87532  311  -1.6  100   -1.6  0     0     993.5    NA       0.0000   9999     3050  0     0    
2019/06/15  10:16:00  BASE  1.81692  302  2.87532  311  -1.6  100   -1.6  0     0     993.5    NA       0.0000   9999     3120  0     0    
2019/06/15  10:17:00  BASE  1.68756  303  2.87532  311  -1.6  100   -1.6  0     0     993.5    NA       0.0000   9999     3080  0     0    
2019/06/15  10:18:00  BASE  1.63464  301  2.87532  311  -1.6  100   -1.6  0     0     993.5    NA       0.0000   9999     3050  0     0    
2019/06/15  10:19:00  BASE  1.8228   298  2.87532  311  -1.6  100   -1.6  0     0     993.5    NA       0.0000   9999     2990  0     0    
2019/06/15  10:20:00  BASE  2.058    298  2.59896  306  -1.5  100   -1.5  0     0     993.5    NA       0.0000   9999     2990  0     0    
2019/06/15  10:21:00  BASE  1.95804  301  2.42256  307  -1.5  100   -1.5  0     0     993.5    NA       0.0000   9999     2950  0     0    
2019/06/15  10:22:00  BASE  1.89336  303  2.32848  298  -1.5  100   -1.5  0     0     993.5    NA       0.0000   9999     2990  0     0    
2019/06/15  10:23:00  BASE  1.87572  304  2.32848  298  -1.5  100   -1.5  0     0     993.5    NA       0.0000   9999     2990  0     0    
2019/06/15  10:24:00  BASE  1.80516  305  2.32848  298  -1.5  100   -1.5  0     0     993.5    NA       0.0000   9999     3020  0     0    
2019/06/15  10:25:00  BASE  1.90512  306  2.35788  308  -1.5  100   -1.5  0     0     993.5    NA       0.0000   9999     2950  0     0    
2019/06/15  10:26:00  BASE  2.05212  309  2.35788  308  -1.5  100   -1.5  0     0     993.5    NA       0.0000   9999     2720  0     0    
2019/06/15  10:27:00  BASE  2.07564  313  2.35788  308  -1.5  100   -1.5  0     0     993.5    NA       0.0000   9999     2850  0     0    
2019/06/15  10:28:00  BASE  2.1462   313  2.54016  311  -1.5  100   -1.5  0     0     993.5    NA       0.0000   9999     2920  0     0    
2019/06/15  10:29:00  BASE  2.15208  312  2.54016  311  -1.5  100   -1.5  0     0     993.5    NA       0.0000   9999     2620  0     0    
2019/06/15  10:30:00  BASE  2.13444  311  2.54016  311  -1.5  100   -1.5  0     0     993.4    NA       0.0000   9999     2460  0     0    
2019/06/15  10:31:00  BASE  2.1462   310  2.54016  311  -1.5  100   -1.5  0     0     993.3    NA       0.0000   9999     2460  0     0    
2019/06/15  10:32:00  BASE  2.21088  311  2.54016  311  -1.5  100   -1.5  0     0     993.3    NA       0.0000   9999     2460  0     0    
2019/06/15  10:33:00  BASE  2.21676  313  2.54016  311  -1.5  100   -1.5  0     0     993.2    NA       0.0000   9999     2460  0     0    
2019/06/15  10:34:00  BASE  2.35788  311  2.56956  304  -1.5  100   -1.5  0     0     993.3    NA       0.0000   9999     2460  0     0    
2019/06/15  10:35:00  BASE  2.44608  310  2.63424  308  -1.5  100   -1.5  0     0     993.2    NA       0.0000   9999     2460  0     0    
2019/06/15  10:36:00  BASE  2.37552  310  2.63424  312  -1.5  100   -1.5  0     0     993.2    NA       0.0000   9999     2430  0     0    
2019/06/15  10:37:00  BASE  2.39904  307  2.63424  302  -1.5  100   -1.5  0     0     993.1    NA       0.0000   9999     2400  0     0    
2019/06/15  10:38:00  BASE  2.499    306  2.75184  312  -1.5  100   -1.5  0     0     993.0    NA       0.0000   9999     2430  0     0    
2019/06/15  10:39:00  BASE  2.69304  307  2.87532  312  -1.5  100   -1.5  0     0     993.0    NA       0.0000   9999     2430  0     0    
2019/06/15  10:40:00  BASE  2.66952  307  2.87532  312  -1.5  100   -1.5  0     0     992.9    NA       0.0000   9999     2490  0     0    
2019/06/15  10:41:00  BASE  2.50488  308  2.87532  312  -1.5  100   -1.5  0     0     992.9    NA       0.0000   9999     2560  0     0    
2019/06/15  10:42:00  BASE  2.51664  308  2.87532  312  -1.4  100   -1.4  0     0     992.8    NA       0.0000   9999     2690  0     0    
2019/06/15  10:43:00  BASE  2.62248  306  2.96352  304  -1.4  100   -1.4  0     0     992.8    NA       0.0000   9999     2590  0     0    
2019/06/15  10:44:00  BASE  2.81064  307  3.02232  310  -1.4  100   -1.4  0     0     992.8    NA       0.0000   9999     2620  0     0    
2019/06/15  10:45:00  BASE  2.92824  307  3.1458   306  -1.4  100   -1.4  0     0     992.7    NA       0.0000   9999     2850  0     0    
2019/06/15  10:46:00  BASE  2.89296  306  3.1458   306  -1.4  100   -1.4  0     0     992.7    NA       0.0000   9999     2890  0     0    
2019/06/15  10:47:00  BASE  2.9106   305  3.1458   308  -1.4  100   -1.4  0     0     992.6    NA       0.0000   9999     2560  0     0    
2019/06/15  10:48:00  BASE  2.97528  306  3.1458   308  -1.5  100   -1.5  0     0     992.5    NA       0.0000   9999     10010 0     0    
2019/06/15  10:49:00  BASE  2.88708  307  3.1458   308  -1.5  100   -1.5  0     0     992.5    NA       0.0000   9999     10040 0     0    
2019/06/15  10:50:00  BASE  2.86944  307  3.1458   308  -1.5  100   -1.5  0     0     992.4    NA       0.0000   9999     10010 0     0    
2019/06/15  10:51:00  BASE  2.94     305  3.1458   308  -1.5  100   -1.5  0     0     992.4    NA       0.0000   9999     10140 0     0    
2019/06/15  10:52:00  BASE  2.86356  304  3.1458   308  -1.5  100   -1.5  0     0     992.4    NA       0.0000   9999     10110 0     0    
2019/06/15  10:53:00  BASE  2.82828  305  3.1458   308  -1.5  100   -1.5  0     0     992.4    NA       0.0000   9999     10170 0     0    
2019/06/15  10:54:00  BASE  2.75772  307  3.1458   308  -1.5  100   -1.5  0     0     992.4    NA       0.0000   9999     0     0     0    
2019/06/15  10:55:00  BASE  2.6754   308  3.1458   308  -1.5  100   -1.5  0     0     992.4    NA       0.0000   9999     10430 0     0    
2019/06/15  10:56:00  BASE  2.646    310  3.1458   308  -1.5  100   -1.5  0     0     992.3    NA       0.0000   9999     0     0     0    
2019/06/15  10:57:00  BASE  2.5578   311  3.1164   307  -1.5  100   -1.5  0     0     992.3    NA       0.0000   9999     10560 0     0    
2019/06/15  10:58:00  BASE  2.59308  311  3.1164   307  -1.5  100   -1.5  0     0     992.3    NA       0.0000   9999     0     0     0    
2019/06/15  10:59:00  BASE  2.45784  310  3.1164   307  -1.5  100   -1.5  0     0     992.3    NA       0.0000   9999     0     0     0    
2019/06/15  11:00:00  BASE  2.352    312  3.087    304  -1.5  100   -1.5  0     0     992.3    NA       0.0000   9999     0     0     0    
2019/06/15  11:01:00  BASE  2.59308  312  3.02232  311  -1.5  100   -1.5  0     0     992.3    NA       0.0000   9999     0     0     0    
2019/06/15  11:02:00  BASE  2.63424  315  3.02232  311  -1.5  100   -1.5  0     0     992.3    NA       0.0000   9999     0     0     0    
2019/06/15  11:03:00  BASE  2.49312  317  3.02232  311  -1.5  100   -1.5  0     0     992.3    NA       0.0000   9999     0     0     0    
2019/06/15  11:04:00  BASE  2.47548  316  3.02232  311  -1.5  100   -1.5  0     0     992.3    NA       0.0000   9999     2530  0     0    
2019/06/15  11:05:00  BASE  2.48136  320  2.90472  312  -1.5  100   -1.5  0     0     992.3    NA       0.0000   9999     2560  0     0    
2019/06/15  11:06:00  BASE  2.499    323  2.90472  312  -1.5  100   -1.5  0     0     992.3    NA       0.0000   9999     2560  0     0    
2019/06/15  11:07:00  BASE  2.46372  322  2.90472  312  -1.5  100   -1.5  0     0     992.2    NA       0.0000   9999     2560  0     0    
2019/06/15  11:08:00  BASE  2.33436  324  2.90472  312  -1.5  100   -1.5  0     0     992.2    NA       0.0000   9999     2590  0     0    
2019/06/15  11:09:00  BASE  2.2638   327  2.90472  312  -1.5  100   -1.5  0     0     992.2    NA       0.0000   9999     2620  0     0    
2019/06/15  11:10:00  BASE  2.12268  331  2.90472  312  -1.5  100   -1.5  0     0     992.2    NA       0.0000   9999     2760  0     0    
2019/06/15  11:11:00  BASE  2.04624  331  2.78124  325  -1.5  100   -1.5  0     0     992.2    NA       0.0000   9999     2660  0     0    
2019/06/15  11:12:00  BASE  2.12856  330  2.78124  325  -1.6  100   -1.6  0     0     992.1    NA       0.0000   9999     2620  0     0    
2019/06/15  11:13:00  BASE  2.14032  332  2.78124  325  -1.6  100   -1.6  0     0     992.1    NA       0.0000   9999     2590  0     0    
2019/06/15  11:14:00  BASE  2.22264  333  2.78124  325  -1.6  100   -1.6  0     0     992.0    NA       0.0000   9999     2590  0     0    
2019/06/15  11:15:00  BASE  2.28732  332  2.78124  325  -1.6  100   -1.6  0     0     992.0    NA       0.0000   9999     2620  0     0    
2019/06/15  11:16:00  BASE  2.28144  333  2.78124  325  -1.6  100   -1.6  0     0     992.0    NA       0.0000   9999     2620  0     0    
2019/06/15  11:17:00  BASE  2.28732  334  2.56956  329  -1.6  100   -1.6  0     0     992.0    NA       0.0000   9999     2590  0     0    
2019/06/15  11:18:00  BASE  2.2638   336  2.56956  329  -1.6  100   -1.6  0     0     991.9    NA       0.0000   9999     2560  0     0    
2019/06/15  11:19:00  BASE  2.18148  339  2.56956  329  -1.6  100   -1.6  0     0     991.8    NA       0.0000   9999     2590  0     0    
2019/06/15  11:20:00  BASE  2.1168   336  2.56956  329  -1.6  100   -1.6  0     0     991.8    NA       0.0000   9999     2620  0     0    
2019/06/15  11:21:00  BASE  2.09916  332  2.56956  329  -1.6  100   -1.6  0     0     991.8    NA       0.0000   9999     2660  0     0    
2019/06/15  11:22:00  BASE  2.12856  331  2.56956  329  -1.6  100   -1.6  0     0     991.8    NA       0.0000   9999     2690  0     0    
2019/06/15  11:23:00  BASE  2.22852  331  2.56956  329  -1.6  100   -1.6  0     0     991.7    NA       0.0000   9999     2690  0     0    
2019/06/15  11:24:00  BASE  2.29908  330  2.56956  329  -1.6  100   -1.6  0     0     991.7    NA       0.0000   9999     2690  0     0    
2019/06/15  11:25:00  BASE  2.27556  331  2.56956  329  -1.6  100   -1.6  0     0     991.6    NA       0.0000   9999     2720  0     0    
2019/06/15  11:26:00  BASE  2.28732  330  2.56956  329  -1.6  100   -1.6  0     0     991.6    NA       0.0000   9999     0     0     0    
2019/06/15  11:27:00  BASE  2.34024  328  2.48136  329  -1.6  100   -1.6  0     0     991.6    NA       0.0000   9999     0     0     0    
2019/06/15  11:28:00  BASE  2.3814   328  2.54016  323  -1.6  100   -1.6  0     0     991.6    NA       0.0000   9999     0     0     0    
2019/06/15  11:29:00  BASE  2.51076  326  2.66364  328  -1.6  100   -1.6  0     0     991.6    NA       0.0000   9999     0     0     0    
2019/06/15  11:30:00  BASE  2.57544  328  2.66364  328  -1.6  100   -1.6  0     0     991.6    NA       0.0000   9999     0     0     0    
2019/06/15  11:31:00  BASE  2.54016  330  2.66364  335  -1.6  100   -1.6  0     0     991.5    NA       0.0000   9999     0     0     0    
2019/06/15  11:32:00  BASE  2.52252  331  2.66364  335  -1.6  100   -1.6  0     0     991.6    NA       0.0000   9999     2920  0     0    
2019/06/15  11:33:00  BASE  2.54604  331  2.69304  326  -1.6  100   -1.6  0     0     991.5    NA       0.0000   9999     2920  0     0    
2019/06/15  11:34:00  BASE  2.46372  333  2.69304  326  -1.6  100   -1.6  0     0     991.5    NA       0.0000   9999     2920  0     0    
2019/06/15  11:35:00  BASE  2.25204  335  2.69304  326  -1.6  100   -1.6  0     0     991.5    NA       0.0000   9999     2890  0     0    
2019/06/15  11:36:00  BASE  2.1168   335  2.69304  326  -1.6  100   -1.6  0     0     991.5    NA       0.0000   9999     2820  0     0    
2019/06/15  11:37:00  BASE  2.09916  336  2.69304  326  -1.6  100   -1.6  0     0     991.5    NA       0.0000   9999     2820  0     0    
2019/06/15  11:38:00  BASE  2.01684  338  2.69304  326  -1.6  100   -1.6  0     0     991.6    NA       0.0000   9999     2790  0     0    
2019/06/15  11:39:00  BASE  1.86396  343  2.69304  326  -1.7  100   -1.7  0     0     991.6    NA       0.0000   9999     2460  0     0    
2019/06/15  11:40:00  BASE  1.764    347  2.69304  326  -1.7  100   -1.7  0     0     991.6    NA       0.0000   9999     2400  0     0    
2019/06/15  11:41:00  BASE  1.71696  347  2.69304  326  -1.7  100   -1.7  0     0     991.6    NA       0.0000   9999     2360  0     0    
2019/06/15  11:42:00  BASE  1.66992  349  2.69304  326  -1.7  100   -1.7  0     0     991.6    NA       0.0000   9999     2360  0     0    
2019/06/15  11:43:00  BASE  1.69344  351  2.54016  331  -1.7  100   -1.7  0     0     991.6    NA       0.0000   9999     2360  0     0    
2019/06/15  11:44:00  BASE  1.68168  353  2.26968  335  -1.7  100   -1.7  0     0     991.6    NA       0.0000   9999     2360  0     0    
2019/06/15  11:45:00  BASE  1.51704  357  2.26968  335  -1.7  100   -1.7  0     0     991.6    NA       0.0000   9999     2360  0     0    
2019/06/15  11:46:00  BASE  1.45824  1    2.1756   338  -1.7  100   -1.7  0     0     991.6    NA       0.0000   9999     2360  0     0    
2019/06/15  11:47:00  BASE  1.48176  1    2.1756   338  -1.7  100   -1.7  0     0     991.6    NA       0.0000   9999     2360  0     0    
2019/06/15  11:48:00  BASE  1.48764  360  1.90512  335  -1.7  100   -1.7  0     0     991.7    NA       0.0000   9999     2400  0     0    
2019/06/15  11:49:00  BASE  1.51116  3    1.90512  335  -1.7  100   -1.7  0     0     991.6    NA       0.0000   9999     2400  0     0    
2019/06/15  11:50:00  BASE  1.54056  7    1.90512  335  -1.7  100   -1.7  0     0     991.6    NA       0.0000   9999     2400  0     0    
2019/06/15  11:51:00  BASE  1.53468  7    1.87572  346  -1.7  100   -1.7  0     0     991.6    NA       0.0000   9999     2400  0     0    
2019/06/15  11:52:00  BASE  1.50528  6    1.87572  346  -1.7  100   -1.7  0     0     991.6    NA       0.0000   9999     2360  0     0    
2019/06/15  11:53:00  BASE  1.5582   7    1.78752  6    -1.7  100   -1.7  0     0     991.6    NA       0.0000   9999     2400  0     0    
2019/06/15  11:54:00  BASE  1.61112  5    1.81692  5    -1.7  100   -1.7  0     0     991.5    NA       0.0000   9999     2430  0     0    
2019/06/15  11:55:00  BASE  1.62876  4    1.81692  5    -1.7  100   -1.7  0     0     991.5    NA       0.0000   9999     2430  0     0    
2019/06/15  11:56:00  BASE  1.5876   1    1.81692  5    -1.7  100   -1.7  0     0     991.4    NA       0.0000   9999     2400  0     0    
2019/06/15  11:57:00  BASE  1.58172  1    1.81692  5    -1.7  100   -1.7  0     0     991.3    NA       0.0000   9999     2400  0     0    
2019/06/15  11:58:00  BASE  1.56996  3    1.81692  5    -1.7  100   -1.7  0     0     991.4    NA       0.0000   9999     2400  0     0    
2019/06/15  11:59:00  BASE  1.48176  4    1.81692  5    -1.8  100   -1.8  0     0     991.4    NA       0.0000   9999     2490  0     0    
2019/06/15  12:00:00  BASE  1.47588  5    1.81692  5    -1.8  100   -1.8  0     0     991.4    NA       0.0000   9999     2490  0     0    
2019/06/15  12:01:00  BASE  1.50528  9    1.81692  5    -1.8  100   -1.8  0     0     991.3    NA       0.0000   9999     2490  0     0    
2019/06/15  12:02:00  BASE  1.54056  11   1.81692  5    -1.8  100   -1.8  0     0     991.4    NA       0.0000   9999     2430  0     0    
2019/06/15  12:03:00  BASE  1.54056  14   1.81692  5    -1.8  100   -1.8  0     0     991.4    NA       0.0000   9999     2430  0     0    
2019/06/15  12:04:00  BASE  1.53468  22   1.72284  3    -1.8  100   -1.8  0     0     991.4    NA       0.0000   9999     2430  0     0    
2019/06/15  12:05:00  BASE  1.59936  26   1.72284  29   -1.8  100   -1.8  0     0     991.5    NA       0.0000   9999     2430  0     0    
2019/06/15  12:06:00  BASE  1.69344  27   1.90512  24   -1.8  100   -1.8  0     0     991.4    NA       0.0000   9999     2430  0     0    
2019/06/15  12:07:00  BASE  1.76988  28   1.90512  33   -1.8  100   -1.8  0     0     991.4    NA       0.0000   9999     2430  0     0    
2019/06/15  12:08:00  BASE  1.78164  33   1.96392  32   -1.8  100   -1.8  0     0     991.4    NA       0.0000   9999     1050  2070  0    
2019/06/15  12:09:00  BASE  1.8228   38   1.96392  39   -1.8  100   -1.8  0     0     991.4    NA       0.0000   9999     1970  0     0    
2019/06/15  12:10:00  BASE  1.95804  39   2.1756   38   -1.8  100   -1.8  0     0     991.4    NA       0.0000   9999     1210  0     0    
2019/06/15  12:11:00  BASE  2.03448  39   2.24028  41   -1.9  100   -1.9  0     0     991.4    NA       0.0000   9999     1380  0     0    
2019/06/15  12:12:00  BASE  2.11092  40   2.29908  39   -1.9  100   -1.9  0     0     991.3    NA       0.0000   9999     1410  0     0    
2019/06/15  12:13:00  BASE  2.15796  40   2.29908  39   -2.0  100   -2.0  0     0     991.2    NA       0.0000   9999     1940  0     0    
2019/06/15  12:14:00  BASE  2.04624  40   2.29908  39   -2.0  100   -2.0  0     0     991.2    NA       0.0000   9999     1970  0     0    
2019/06/15  12:15:00  BASE  1.92864  38   2.29908  39   -2.0  100   -2.0  0     0     991.1    NA       0.0000   9999     2000  0     0    
2019/06/15  12:16:00  BASE  1.90512  33   2.29908  39   -2.0  100   -2.0  0     0     991.1    NA       0.0000   9999     2400  0     0    
2019/06/15  12:17:00  BASE  1.89336  30   2.29908  39   -2.0  100   -2.0  0     0     991.1    NA       0.0000   9999     2400  0     0    
2019/06/15  12:18:00  BASE  1.81692  28   2.29908  39   -1.9  100   -1.9  0     0     991.1    NA       0.0000   9999     2400  0     0    
2019/06/15  12:19:00  BASE  1.71108  27   2.29908  39   -1.9  100   -1.9  0     0     991.0    NA       0.0000   9999     2330  0     0    
2019/06/15  12:20:00  BASE  1.62876  24   2.29908  39   -1.9  100   -1.9  0     0     991.0    NA       0.0000   9999     2330  0     0    
2019/06/15  12:21:00  BASE  1.62288  22   2.29908  39   -1.9  100   -1.9  0     0     991.0    NA       0.0000   9999     2300  0     0    
2019/06/15  12:22:00  BASE  1.68756  23   2.24028  42   -1.9  100   -1.9  0     0     990.9    NA       0.0000   9999     2260  0     0    
2019/06/15  12:23:00  BASE  1.74636  24   2.1462   46   -1.9  100   -1.9  0     0     990.8    NA       0.0000   9999     2300  0     0    
2019/06/15  12:24:00  BASE  1.77576  27   2.0874   21   -1.9  100   -1.9  0     0     990.8    NA       0.0000   9999     2170  0     0    
2019/06/15  12:25:00  BASE  1.86984  28   2.0874   29   -1.9  100   -1.9  0     0     990.7    NA       0.0000   9999     2130  0     0    
2019/06/15  12:26:00  BASE  1.84632  29   2.0874   29   -1.9  100   -1.9  0     0     990.8    NA       0.0000   9999     2030  0     0    
2019/06/15  12:27:00  BASE  1.69344  30   2.0874   29   -1.9  100   -1.9  0     0     990.7    NA       0.0000   9999     1940  0     0    
2019/06/15  12:28:00  BASE  1.64052  30   2.0874   29   -1.9  100   -1.9  0     0     990.8    NA       0.0000   9999     1940  0     0    
2019/06/15  12:29:00  BASE  1.66992  34   2.0874   29   -1.9  100   -1.9  0     0     990.7    NA       0.0000   9999     1940  0     0    
2019/06/15  12:30:00  BASE  1.6758   40   2.0874   29   -1.9  100   -1.9  0     0     990.7    NA       0.0000   9999     1970  0     0    
2019/06/15  12:31:00  BASE  1.66404  43   2.0874   29   -1.9  100   -1.9  0     0     990.7    NA       0.0000   9999     2000  0     0    
2019/06/15  12:32:00  BASE  1.72284  44   2.0874   29   -1.9  100   -1.9  0     0     990.6    NA       0.0000   9999     1940  2660  0    
2019/06/15  12:33:00  BASE  1.80516  44   2.0874   29   -1.9  100   -1.9  0     0     990.5    NA       0.0000   9999     1970  2530  0    
2019/06/15  12:34:00  BASE  1.81104  44   2.0874   29   -1.9  100   -1.9  0     0     990.5    NA       0.0000   9999     2490  0     0    
2019/06/15  12:35:00  BASE  1.6464   47   1.96392  42   -1.9  100   -1.9  0     0     990.5    NA       0.0000   9999     2430  0     0    
2019/06/15  12:36:00  BASE  1.51116  50   1.96392  42   -1.9  100   -1.9  0     0     990.5    NA       0.0000   9999     1940  2430  0    
2019/06/15  12:37:00  BASE  1.53468  52   1.96392  42   -1.9  100   -1.9  0     0     990.5    NA       0.0000   9999     1900  0     0    
2019/06/15  12:38:00  BASE  1.56996  51   1.96392  42   -1.9  100   -1.9  0     0     990.5    NA       0.0000   9999     1900  0     0    
2019/06/15  12:39:00  BASE  1.63464  49   1.96392  42   -1.9  100   -1.9  0     0     990.5    NA       0.0000   9999     1900  0     0    
2019/06/15  12:40:00  BASE  1.71108  48   1.96392  42   -2.0  100   -2.0  0     0     990.5    NA       0.0000   9999     1900  0     0    
2019/06/15  12:41:00  BASE  1.71696  48   1.96392  42   -2.0  100   -2.0  0     0     990.4    NA       0.0000   9999     2360  0     0    
2019/06/15  12:42:00  BASE  1.76988  47   1.96392  41   -1.9  100   -1.9  0     0     990.4    NA       0.0000   9999     2360  0     0    
2019/06/15  12:43:00  BASE  1.78164  47   1.96392  41   -1.9  100   -1.9  0     0     990.3    NA       0.0000   9999     2430  0     0    
2019/06/15  12:44:00  BASE  1.71696  48   1.96392  41   -1.9  100   -1.9  0     0     990.3    NA       0.0000   9999     2430  0     0    
2019/06/15  12:45:00  BASE  1.7052   47   1.96392  41   -1.9  100   -1.9  0     0     990.4    NA       0.0000   9999     2400  0     0    
2019/06/15  12:46:00  BASE  1.68756  47   1.96392  41   -1.9  100   -1.9  0     0     990.3    NA       0.0000   9999     2400  0     0    
2019/06/15  12:47:00  BASE  1.65228  46   1.96392  41   -1.9  100   -1.9  0     0     990.3    NA       0.0000   9999     2300  0     0    
2019/06/15  12:48:00  BASE  1.72872  46   1.96392  41   -1.9  100   -1.9  0     0     990.3    NA       0.0000   9999     2230  0     0    
2019/06/15  12:49:00  BASE  1.83456  47   1.96392  41   -1.9  100   -1.9  0     0     990.2    NA       0.0000   9999     2300  0     0    
2019/06/15  12:50:00  BASE  1.82868  47   1.96392  41   -1.9  100   -1.9  0     0     990.2    NA       0.0000   9999     2230  0     0    
2019/06/15  12:51:00  BASE  1.86396  47   1.96392  45   -1.9  100   -1.9  0     0     990.2    NA       0.0000   9999     2300  0     0    
2019/06/15  12:52:00  BASE  1.90512  48   1.96392  45   -1.9  100   -1.9  0     0     990.2    NA       0.0000   9999     2230  0     0    
2019/06/15  12:53:00  BASE  1.87572  48   1.96392  45   -1.9  100   -1.9  0     0     990.1    NA       0.0000   9999     2230  0     0    
2019/06/15  12:54:00  BASE  1.86396  46   1.9992   39   -1.9  100   -1.9  0     0     990.1    NA       0.0000   9999     2260  0     0    
2019/06/15  12:55:00  BASE  1.9404   44   2.1462   39   -1.9  100   -1.9  0     0     990.1    NA       0.0000   9999     2330  0     0    
2019/06/15  12:56:00  BASE  1.98156  40   2.1462   39   -1.9  100   -1.9  0     0     990.0    NA       0.0000   9999     2130  0     0    
2019/06/15  12:57:00  BASE  2.01096  37   2.24028  38   -1.9  100   -1.9  0     0     989.9    NA       0.0000   9999     2170  0     0    
2019/06/15  12:58:00  BASE  2.0874   37   2.26968  36   -1.9  100   -1.9  0     0     989.8    NA       0.0000   9999     2170  0     0    
2019/06/15  12:59:00  BASE  2.06976  36   2.26968  36   -1.8  100   -1.8  0     0     989.8    NA       0.0000   9999     2200  0     0    
2019/06/15  13:00:00  BASE  1.98156  35   2.26968  36   -1.8  100   -1.8  0     0     989.7    NA       0.0000   9999     2000  0     0    
2019/06/15  13:01:00  BASE  1.96392  33   2.26968  36   -1.8  100   -1.8  0     0     989.6    NA       0.0000   9999     2030  0     0    
2019/06/15  13:02:00  BASE  2.0286   29   2.26968  36   -1.8  100   -1.8  0     0     989.6    NA       0.0000   9999     2030  0     0    
2019/06/15  13:03:00  BASE  2.07564  24   2.26968  36   -1.8  100   -1.8  0     0     989.5    NA       0.0000   9999     1940  0     0    
2019/06/15  13:04:00  BASE  2.06976  21   2.26968  36   -1.8  100   -1.8  0     0     989.4    NA       0.0000   9999     0     0     0    
2019/06/15  13:05:00  BASE  2.08152  16   2.29908  15   -1.8  100   -1.8  0     0     989.3    NA       0.0000   9999     0     0     0    
2019/06/15  13:06:00  BASE  2.22264  14   2.38728  12   -1.8  100   -1.8  0     0     989.2    NA       0.0000   9999     0     0     0    
2019/06/15  13:07:00  BASE  2.34612  13   2.42256  12   -1.8  100   -1.8  0     0     989.1    NA       0.0000   9999     0     0     0    
2019/06/15  13:08:00  BASE  2.3226   10   2.42256  12   -1.8  100   -1.8  0     0     989.1    NA       0.0000   9999     0     0     0    
2019/06/15  13:09:00  BASE  2.16384  8    2.42256  12   -1.8  100   -1.8  0     0     989.1    NA       0.0000   9999     0     0     0    
2019/06/15  13:10:00  BASE  1.9404   6    2.42256  12   -1.8  100   -1.8  0     0     989.1    NA       0.0000   9999     0     0     0    
2019/06/15  13:11:00  BASE  1.7346   9    2.42256  12   -1.8  100   -1.8  0     0     989.1    NA       0.0000   9999     8860  0     0    
2019/06/15  13:12:00  BASE  1.54056  16   2.42256  12   -1.8  100   -1.8  0     0     989.1    NA       0.0000   9999     9580  0     0    
2019/06/15  13:13:00  BASE  1.36416  18   2.42256  12   -1.8  100   -1.8  0     0     989.1    NA       0.0000   9999     9480  0     0    
2019/06/15  13:14:00  BASE  1.16424  9    2.42256  12   -1.8  100   -1.8  0     0     989.0    NA       0.0000   9999     8630  0     0    
2019/06/15  13:15:00  BASE  1.01724  358  2.42256  12   -1.8  100   -1.8  0     0     989.0    NA       0.0000   9999     8600  0     0    
2019/06/15  13:16:00  BASE  0.95256  352  2.42256  12   -1.8  100   -1.8  0     0     989.0    NA       0.0000   9999     0     0     0    
2019/06/15  13:17:00  BASE  0.89964  359  2.38728  9    -1.7  100   -1.7  0     0     989.0    NA       0.0000   9999     0     0     0    
2019/06/15  13:18:00  BASE  0.85848  11   2.1756   9    -1.7  100   -1.7  0     0     989.0    NA       0.0000   9999     0     0     0    
2019/06/15  13:19:00  BASE  0.7644   24   1.9992   4    -1.7  100   -1.7  0     0     989.0    NA       0.0000   9999     0     0     0    
2019/06/15  13:20:00  BASE  0.72912  38   1.81692  9    -1.7  100   -1.7  0     0     989.1    NA       0.0000   9999     0     0     0    
2019/06/15  13:21:00  BASE  0.84084  48   1.48176  19   -1.8  100   -1.8  0     0     989.0    NA       0.0000   9999     9740  0     0    
2019/06/15  13:22:00  BASE  1.13484  65   1.54056  77   -1.8  100   -1.8  0     0     989.0    NA       0.0000   9999     10040 0     0    
2019/06/15  13:23:00  BASE  1.47     77   1.81692  85   -1.9  100   -1.9  0     0     988.9    NA       0.0000   9999     0     0     0    
2019/06/15  13:24:00  BASE  1.6464   80   1.81692  76   -1.9  100   -1.9  0     0     988.9    NA       0.0000   9999     8460  0     0    
2019/06/15  13:25:00  BASE  1.59936  74   1.81692  76   -2.0  100   -2.0  0     0     988.9    NA       0.0000   9999     8530  0     0    
2019/06/15  13:26:00  BASE  1.42296  61   1.81692  76   -2.1  100   -2.1  0     0     988.8    NA       0.0000   9999     8530  0     0    
2019/06/15  13:27:00  BASE  1.4406   45   1.81692  76   -2.1  100   -2.1  0     0     988.7    NA       0.0000   9999     8400  0     0    
2019/06/15  13:28:00  BASE  1.61112  35   1.81692  33   -2.1  100   -2.1  0     0     988.6    NA       0.0000   9999     8300  0     0    
2019/06/15  13:29:00  BASE  1.71696  33   1.81692  36   -2.1  100   -2.1  0     0     988.5    NA       0.0000   9999     8270  0     0    
2019/06/15  13:30:00  BASE  1.81104  32   1.96392  31   -2.1  100   -2.1  0     0     988.5    NA       0.0000   9999     8370  0     0    
2019/06/15  13:31:00  BASE  1.89336  29   1.96392  28   -2.1  100   -2.1  0     0     988.5    NA       0.0000   9999     0     0     0    
2019/06/15  13:32:00  BASE  1.85808  25   1.96392  28   -2.1  100   -2.1  0     0     988.5    NA       0.0000   9999     0     0     0    
2019/06/15  13:33:00  BASE  1.89924  22   2.21088  21   -2.0  100   -2.0  0     0     988.5    NA       0.0000   9999     7970  0     0    
2019/06/15  13:34:00  BASE  2.02272  23   2.21088  22   -2.0  100   -2.0  0     0     988.5    NA       0.0000   9999     8010  0     0    
2019/06/15  13:35:00  BASE  2.058    22   2.21088  22   -2.0  100   -2.0  0     0     988.4    NA       0.0000   9999     9550  0     0    
2019/06/15  13:36:00  BASE  2.00508  22   2.21088  22   -2.0  100   -2.0  0     0     988.4    NA       0.0000   9999     9550  0     0    
2019/06/15  13:37:00  BASE  1.8816   26   2.21088  22   -2.0  100   -2.0  0     0     988.4    NA       0.0000   9999     8690  0     0    
2019/06/15  13:38:00  BASE  1.80516  32   2.21088  22   -2.0  100   -2.0  0     0     988.3    NA       0.0000   9999     8560  0     0    
2019/06/15  13:39:00  BASE  1.78752  34   2.21088  22   -2.1  100   -2.1  0     0     988.2    NA       0.0000   9999     9580  0     0    
2019/06/15  13:40:00  BASE  1.80516  32   2.21088  22   -2.1  100   -2.1  0     0     988.3    NA       0.0000   9999     9610  0     0    
2019/06/15  13:41:00  BASE  1.77576  32   2.21088  22   -2.2  100   -2.2  0     0     988.3    NA       0.0000   9999     8430  0     0    
2019/06/15  13:42:00  BASE  1.66404  33   2.21088  22   -2.2  100   -2.2  0     0     988.2    NA       0.0000   9999     8330  0     0    
2019/06/15  13:43:00  BASE  1.64052  32   2.21088  22   -2.2  100   -2.2  0     0     988.2    NA       0.0000   9999     8200  0     0    
2019/06/15  13:44:00  BASE  1.62876  35   2.1756   20   -2.2  100   -2.2  0     0     988.2    NA       0.0000   9999     9580  0     0    
2019/06/15  13:45:00  BASE  1.62876  37   2.1462   19   -2.2  100   -2.2  0     0     988.2    NA       0.0000   9999     9450  0     0    
2019/06/15  13:46:00  BASE  1.66992  38   1.96392  34   -2.2  100   -2.2  0     0     988.2    NA       0.0000   9999     9320  0     0    
2019/06/15  13:47:00  BASE  1.65816  40   1.96392  34   -2.2  100   -2.2  0     0     988.2    NA       0.0000   9999     9550  0     0    
2019/06/15  13:48:00  BASE  1.68168  44   1.96392  34   -2.2  100   -2.2  0     0     988.1    NA       0.0000   9999     9610  0     0    
2019/06/15  13:49:00  BASE  1.69932  48   1.96392  34   -2.2  100   -2.2  0     0     988.0    NA       0.0000   9999     9480  0     0    
2019/06/15  13:50:00  BASE  1.68168  45   1.9992   42   -2.2  100   -2.2  0     0     988.0    NA       0.0000   9999     9220  0     0    
2019/06/15  13:51:00  BASE  1.68756  45   1.9992   42   -2.3  100   -2.3  0     0     987.9    NA       0.0000   9999     8630  0     0    
2019/06/15  13:52:00  BASE  1.5288   44   1.9992   42   -2.3  100   -2.3  0     0     987.9    NA       0.0000   9999     9020  0     0    
2019/06/15  13:53:00  BASE  1.4994   42   1.9992   42   -2.3  100   -2.3  0     0     987.9    NA       0.0000   9999     8790  0     0    
2019/06/15  13:54:00  BASE  1.53468  36   1.9992   42   -2.3  100   -2.3  0     0     987.8    NA       0.0000   9999     8860  0     0    
2019/06/15  13:55:00  BASE  1.43472  31   1.9992   42   -2.3  100   -2.3  0     0     987.8    NA       0.0000   9999     8990  0     0    
2019/06/15  13:56:00  BASE  1.32888  28   1.9992   42   -2.3  100   -2.3  0     0     987.7    NA       0.0000   9999     9020  0     0    
2019/06/15  13:57:00  BASE  1.18188  27   1.9992   42   -2.3  100   -2.3  0     0     987.7    NA       0.0000   9999     8920  0     0    
2019/06/15  13:58:00  BASE  1.1466   24   1.9992   42   -2.3  99    -2.3  0     0     987.7    NA       0.0000   9999     8730  0     0    
2019/06/15  13:59:00  BASE  1.08192  21   1.9992   42   -2.3  99    -2.4  0     0     987.6    NA       0.0000   9999     8730  0     0    
2019/06/15  14:00:00  BASE  0.95844  17   1.93452  45   -2.3  99    -2.4  0     0     987.6    NA       0.0000   9999     8560  0     0    
2019/06/15  14:01:00  BASE  0.85848  13   1.84632  35   -2.3  99    -2.4  0     0     987.6    NA       0.0000   9999     8460  0     0    
2019/06/15  14:02:00  BASE  0.7644   9    1.84632  35   -2.3  99    -2.4  0     0     987.6    NA       0.0000   9999     8630  0     0    
2019/06/15  14:03:00  BASE  0.66444  7    1.75224  39   -2.2  99    -2.4  0     0     987.6    NA       0.0000   9999     8240  0     0    
2019/06/15  14:04:00  BASE  0.40572  11   1.60524  27   -2.2  99    -2.4  0     0     987.5    NA       0.0000   9999     7610  0     0    
2019/06/15  14:05:00  BASE  0.21168  12   1.42296  29   -2.2  99    -2.4  0     0     987.4    NA       0.0000   9999     9020  0     0    
2019/06/15  14:06:00  BASE  0.10584  6    1.24068  35   -2.2  98    -2.4  0     0     987.4    NA       0.0000   9999     8830  0     0    
2019/06/15  14:07:00  BASE  0        1    1.21128  10   -2.2  98    -2.4  0     0     987.4    NA       0.0000   9999     8560  0     0    
2019/06/15  14:08:00  BASE  0        1    1.0878   23   -2.2  98    -2.5  1     0     987.3    NA       0.0000   9999     8790  0     0    
2019/06/15  14:09:00  BASE  0        5    0.9996   10   -2.2  98    -2.5  1     0     987.3    NA       0.0000   9999     8460  0     0    
2019/06/15  14:10:00  BASE  0        57   0.87612  11   -2.2  98    -2.5  1     0     987.2    NA       0.0000   9999     8530  0     0    
2019/06/15  14:11:00  BASE  0        113  0.84672  1    -2.2  97    -2.6  1     0     987.2    NA       0.0000   9999     8460  0     0    
2019/06/15  14:12:00  BASE  0        127  0.81732  6    -2.2  97    -2.7  1     0     987.2    NA       0.0000   9999     7380  0     0    
2019/06/15  14:13:00  BASE  0        140  0.66444  16   -2.2  96    -2.7  1     0     987.1    NA       0.0000   9999     7220  0     0    
2019/06/15  14:14:00  BASE  0        146  0.66444  16   -2.2  95    -2.8  1     0     987.1    NA       0.0000   9999     7610  0     0    
2019/06/15  14:15:00  BASE  0.17052  142  0.75852  129  -2.2  94    -3.0  1     0     987.1    NA       0.0000   9999     8330  0     0    
2019/06/15  14:16:00  BASE  0.54684  134  0.84672  132  -2.3  94    -3.1  1     0     987.0    NA       0.0000   9999     7780  0     0    
2019/06/15  14:17:00  BASE  0.77616  135  0.84672  137  -2.3  94    -3.2  1     0     987.0    NA       0.0000   9999     7710  0     0    
2019/06/15  14:18:00  BASE  0.77616  141  0.84672  137  -2.4  94    -3.3  1     0     987.0    NA       0.0000   9999     7550  0     0    
2019/06/15  14:19:00  BASE  0.87024  142  1.1466   137  -2.5  94    -3.3  1     0     987.0    NA       0.0000   9999     7510  0     0    
2019/06/15  14:20:00  BASE  0.95256  146  1.1466   137  -2.5  94    -3.2  1     0     987.0    NA       0.0000   9999     7780  0     0    
2019/06/15  14:21:00  BASE  0.9702   149  1.1466   145  -2.5  95    -3.2  1     0     986.9    NA       0.0000   9999     7610  0     0    
2019/06/15  14:22:00  BASE  0.98196  144  1.1466   145  -2.5  95    -3.2  1     0     986.9    NA       0.0000   9999     6860  0     0    
2019/06/15  14:23:00  BASE  0.9114   138  1.1466   145  -2.5  95    -3.2  1     0     986.8    NA       0.0000   9999     6660  0     0    
2019/06/15  14:24:00  BASE  0.86436  125  1.1466   145  -2.6  96    -3.2  1     0     986.9    NA       0.0000   9999     6370  0     0    
2019/06/15  14:25:00  BASE  0.8232   115  1.1466   145  -2.6  96    -3.1  1     0     987.0    NA       0.0000   9999     6860  0     0    
2019/06/15  14:26:00  BASE  0.87024  116  1.1466   145  -2.5  96    -3.0  1     0     986.9    NA       0.0000   9999     6660  0     0    
2019/06/15  14:27:00  BASE  0.94668  121  1.1466   145  -2.5  97    -3.0  1     0     986.9    NA       0.0000   9999     6230  0     0    
2019/06/15  14:28:00  BASE  1.06428  128  1.24068  129  -2.5  97    -2.9  1     0     986.8    NA       0.0000   9999     5510  0     0    
2019/06/15  14:29:00  BASE  1.05252  132  1.24068  129  -2.5  97    -2.8  1     0     986.8    NA       0.0000   9999     5940  0     0    
2019/06/15  14:30:00  BASE  0.86436  129  1.24068  129  -2.4  98    -2.8  1     0     986.8    NA       0.0000   9999     5480  0     0    
2019/06/15  14:31:00  BASE  0.80556  127  1.24068  129  -2.4  98    -2.7  1     0     986.8    NA       0.0000   9999     6170  0     0    
2019/06/15  14:32:00  BASE  0.6762   128  1.24068  129  -2.3  98    -2.6  1     0     986.7    NA       0.0000   9999     7280  0     0    
2019/06/15  14:33:00  BASE  0.34104  125  1.24068  129  -2.3  98    -2.6  1     0     986.7    NA       0.0000   9999     6040  0     0    
2019/06/15  14:34:00  BASE  0.15288  126  1.24068  129  -2.2  98    -2.6  1     0     986.6    NA       0.0000   9999     5910  0     0    
2019/06/15  14:35:00  BASE  0.07644  133  1.24068  129  -2.3  97    -2.6  1     0     986.6    NA       0.0000   9999     5940  0     0    
2019/06/15  14:36:00  BASE  0        125  1.24068  129  -2.2  97    -2.7  1     0     986.6    NA       0.0000   9999     5540  0     0    
2019/06/15  14:37:00  BASE  0        92   1.24068  129  -2.3  97    -2.7  1     0     986.5    NA       0.0000   9999     5050  0     0    
2019/06/15  14:38:00  BASE  0.17052  58   1.029    132  -2.3  96    -2.8  1     0     986.4    NA       0.0000   9999     5940  0     0    
2019/06/15  14:39:00  BASE  0.58212  40   0.90552  127  -2.3  96    -2.8  1     0     986.4    NA       0.0000   9999     5910  0     0    
2019/06/15  14:40:00  BASE  0.82908  31   0.90552  127  -2.3  96    -2.8  1     0     986.4    NA       0.0000   9999     6040  0     0    
2019/06/15  14:41:00  BASE  0.82908  25   0.87612  25   -2.3  96    -2.9  1     0     986.3    NA       0.0000   9999     5410  0     0    
2019/06/15  14:42:00  BASE  0.75264  13   0.87612  25   -2.4  96    -3.0  1     0     986.3    NA       0.0000   9999     5510  0     0    
2019/06/15  14:43:00  BASE  0.71148  359  0.87612  25   -2.4  96    -3.0  1     0     986.2    NA       0.0000   9999     5180  0     0    
2019/06/15  14:44:00  BASE  0.8232   352  1.029    354  -2.5  96    -3.0  1     0     986.2    NA       0.0000   9999     4660  0     0    
2019/06/15  14:45:00  BASE  0.9996   351  1.18188  355  -2.5  96    -3.0  1     0     986.2    NA       0.0000   9999     4720  0     0    
2019/06/15  14:46:00  BASE  1.12308  353  1.21128  354  -2.5  97    -2.9  1     0     986.1    NA       0.0000   9999     4890  0     0    
2019/06/15  14:47:00  BASE  1.176    359  1.35828  360  -2.5  98    -2.8  1     0     986.0    NA       0.0000   9999     4760  0     0    
2019/06/15  14:48:00  BASE  1.2642   356  1.42296  354  -2.5  99    -2.6  1     0     986.0    NA       0.0000   9999     4460  0     0    
2019/06/15  14:49:00  BASE  1.323    350  1.42296  346  -2.4  99    -2.5  1     0     986.0    NA       0.0000   9999     4530  0     0    
2019/06/15  14:50:00  BASE  1.41708  350  1.63464  350  -2.4  100   -2.4  2     0     986.0    NA       0.0000   9999     4490  0     0    
2019/06/15  14:51:00  BASE  1.45824  352  1.69344  347  -2.3  100   -2.3  2     0     986.0    NA       0.0000   9999     4660  0     0    
2019/06/15  14:52:00  BASE  1.39356  349  1.69344  347  -2.3  100   -2.3  2     0     986.0    NA       0.0000   9999     4400  0     0    
2019/06/15  14:53:00  BASE  1.39944  347  1.69344  347  -2.3  100   -2.3  2     0     985.9    NA       0.0000   9999     4070  0     0    
2019/06/15  14:54:00  BASE  1.22304  351  1.69344  347  -2.2  100   -2.2  2     0     985.9    NA       0.0000   9999     4270  0     0    
2019/06/15  14:55:00  BASE  1.06428  347  1.69344  347  -2.2  100   -2.2  2     0     985.8    NA       0.0000   9999     4490  0     0    
2019/06/15  14:56:00  BASE  0.95844  347  1.69344  347  -2.2  100   -2.2  2     0     985.8    NA       0.0000   9999     4360  0     0    
2019/06/15  14:57:00  BASE  0.8526   12   1.69344  347  -2.1  99    -2.2  2     0     985.8    NA       0.0000   9999     4430  0     0    
2019/06/15  14:58:00  BASE  1.07016  39   1.69344  347  -2.1  99    -2.2  2     0     985.7    NA       0.0000   9999     4560  0     0    
2019/06/15  14:59:00  BASE  1.0878   44   1.69344  347  -2.0  99    -2.2  2     0     985.7    NA       0.0000   9999     4490  0     0    
2019/06/15  15:00:00  BASE  0.64092  27   1.69344  347  -2.0  98    -2.2  2     0     985.7    NA       0.0000   9999     4820  0     0    
2019/06/15  15:01:00  BASE  0.441    353  1.63464  347  -1.9  98    -2.2  2     0     985.6    NA       0.0000   9999     5090  0     0    
2019/06/15  15:02:00  BASE  0.67032  326  1.51116  354  -1.8  97    -2.2  2     0     985.6    NA       0.0000   9999     0     0     0    
2019/06/15  15:03:00  BASE  0.8232   317  1.35828  44   -1.8  96    -2.3  2     0     985.6    NA       0.0000   9999     0     0     0    
2019/06/15  15:04:00  BASE  0.89964  315  1.35828  44   -1.7  96    -2.3  2     0     985.6    NA       0.0000   9999     0     0     0    
2019/06/15  15:05:00  BASE  1.07604  308  1.35828  44   -1.7  95    -2.4  2     0     985.4    NA       0.0000   9999     0     0     0    
2019/06/15  15:06:00  BASE  1.22892  295  1.45236  279  -1.7  94    -2.6  3     0     985.4    NA       0.0000   9999     0     0     0    
2019/06/15  15:07:00  BASE  1.19952  288  1.45236  279  -1.7  93    -2.7  3     0     985.4    NA       0.0000   9999     0     0     0    
2019/06/15  15:08:00  BASE  1.04076  291  1.45236  279  -1.7  93    -2.7  3     0     985.4    NA       0.0000   9999     6560  0     0    
2019/06/15  15:09:00  BASE  0.9996   289  1.45236  279  -1.8  93    -2.8  3     0     985.3    NA       0.0000   9999     6630  0     0    
2019/06/15  15:10:00  BASE  1.27008  287  2.81064  328  -1.8  93    -2.8  3     0     985.2    NA       0.0000   9999     6170  0     0    
2019/06/15  15:11:00  BASE  1.97568  312  2.96352  339  -1.8  93    -2.8  3     0     985.1    NA       0.0000   9999     6460  0     0    
2019/06/15  15:12:00  BASE  1.81104  353  2.96352  339  -1.8  94    -2.7  3     0     985.0    NA       0.0000   9999     6170  0     0    
2019/06/15  15:13:00  BASE  1.49352  59   2.96352  339  -1.8  94    -2.6  4     0     985.2    NA       0.0000   9999     6660  0     0    
2019/06/15  15:14:00  BASE  2.50488  75   5.05092  55   -1.8  94    -2.6  4     0     985.0    NA       0.0000   9999     5940  0     0    
2019/06/15  15:15:00  BASE  3.8514   41   5.05092  55   -1.7  94    -2.6  4     0     984.8    NA       0.0000   9999     5580  0     0    
2019/06/15  15:16:00  BASE  3.73968  17   5.10972  22   -1.7  95    -2.4  4     0     984.7    NA       0.0000   9999     5710  0     0    
2019/06/15  15:17:00  BASE  2.3226   11   5.10972  22   -1.5  95    -2.3  3     0     984.7    NA       0.0000   9999     5770  0     0    
2019/06/15  15:18:00  BASE  1.03488  351  5.10972  22   -1.3  94    -2.2  3     0     984.8    NA       0.0000   9999     5480  0     0    
2019/06/15  15:19:00  BASE  0.89964  16   5.10972  22   -1.1  93    -2.1  3     0     984.7    NA       0.0000   9999     1940  0     0    
2019/06/15  15:20:00  BASE  1.2642   51   5.10972  22   -0.9  90    -2.3  3     0     984.7    NA       0.0000   9999     2030  0     0    
2019/06/15  15:21:00  BASE  0.7056   46   5.10972  22   -0.7  88    -2.6  3     0     984.7    NA       0.0000   9999     2070  0     0    
2019/06/15  15:22:00  BASE  0.87024  83   5.10972  22   -0.7  85    -3.0  3     0     984.6    NA       0.0000   9999     2100  0     0    
2019/06/15  15:23:00  BASE  2.04036  102  5.10972  22   -0.8  83    -3.4  3     0     984.6    NA       0.0000   9999     1770  0     0    
2019/06/15  15:24:00  BASE  2.66952  93   5.10972  22   -0.8  81    -3.7  3     0     984.5    NA       0.0000   9999     1800  0     0    
2019/06/15  15:25:00  BASE  2.63424  92   5.10972  22   -0.9  81    -3.9  3     0     984.5    NA       0.0000   9999     1800  0     0    
2019/06/15  15:26:00  BASE  2.58132  101  3.48096  122  -1.1  81    -4.0  3     0     984.5    NA       0.0000   9999     2030  0     0    
2019/06/15  15:27:00  BASE  2.68716  102  3.53976  105  -1.2  81    -4.0  3     0     984.4    NA       0.0000   9999     2030  4820  0    
2019/06/15  15:28:00  BASE  3.29868  90   5.02152  91   -1.3  82    -4.0  3     0     984.3    NA       0.0000   9999     3740  0     0    
2019/06/15  15:29:00  BASE  3.71616  94   5.02152  91   -1.4  83    -3.9  3     0     984.5    NA       0.0000   9999     3970  0     0    
2019/06/15  15:30:00  BASE  3.06936  100  5.02152  91   -1.4  84    -3.8  3     0     984.3    NA       0.0000   9999     5410  0     0    
2019/06/15  15:31:00  BASE  2.1462   91   5.02152  91   -1.5  85    -3.7  3     0     984.3    NA       0.0000   9999     4300  0     0    
2019/06/15  15:32:00  BASE  2.499    62   5.02152  91   -1.4  86    -3.5  3     0     984.1    NA       0.0000   9999     4130  0     0    
2019/06/15  15:33:00  BASE  3.4398   39   5.02152  91   -1.4  86    -3.4  3     0     984.0    NA       0.0000   9999     4070  0     0    
2019/06/15  15:34:00  BASE  4.26888  41   5.65656  45   -1.4  87    -3.3  3     0     983.9    NA       0.0000   9999     5450  0     0    
2019/06/15  15:35:00  BASE  4.95096  44   5.65656  45   -1.3  88    -3.1  3     0     983.7    NA       0.0000   9999     5410  0     0    
2019/06/15  15:36:00  BASE  5.42136  44   6.3504   41   -1.3  88    -3.0  3     0     983.6    NA       0.0000   9999     5090  0     0    
2019/06/15  15:37:00  BASE  5.78592  45   6.71496  44   -1.3  89    -2.9  3     0     983.5    NA       0.0000   9999     4430  0     0    
2019/06/15  15:38:00  BASE  5.62716  46   6.71496  44   -1.3  89    -2.9  3     0     983.4    NA       0.0000   9999     4230  0     0    
2019/06/15  15:39:00  BASE  5.89764  43   7.02072  49   -1.3  90    -2.8  3     0     983.3    NA       0.0000   9999     5350  0     0    
2019/06/15  15:40:00  BASE  6.13284  44   7.02072  49   -1.3  90    -2.8  3     0     983.2    NA       0.0000   9999     5480  0     0    
2019/06/15  15:41:00  BASE  6.1446   47   7.02072  49   -1.3  90    -2.7  3     0     983.2    NA       0.0000   9999     5320  0     0    
2019/06/15  15:42:00  BASE  6.30924  46   7.02072  49   -1.2  90    -2.7  3     0     983.1    NA       0.0000   9999     5150  0     0    
2019/06/15  15:43:00  BASE  6.34452  45   7.47348  44   -1.2  90    -2.6  3     0     983.1    NA       0.0000   9999     0     0     0    
2019/06/15  15:44:00  BASE  6.33864  47   7.47348  44   -1.1  90    -2.5  3     0     983.1    NA       0.0000   UP       9999  0     0    
2019/06/15  15:45:02  BASE  6.2034   48   7.47348  44   -1.0  90    -2.5  3     0     983.0    NA       0.0000   UP       9999  0     0    
2019/06/15  15:46:00  BASE  6.19164  47   7.47348  44   -0.9  90    -2.4  3     0     983.0    NA       0.0000   UP       9999  0     0    
2019/06/15  15:47:00  BASE  6.36216  45   7.47348  44   -0.9  89    -2.4  3     0     983.0    NA       0.0000   UP       9999  0     0    
2019/06/15  15:48:00  BASE  6.54444  45   7.47348  44   -0.8  89    -2.4  3     0     982.9    NA       0.0000   UP       9999  0     0    
2019/06/15  15:49:00  BASE  6.92076  46   7.92624  45   -0.8  88    -2.5  3     0     982.8    NA       0.0000   UP       9999  0     0    
2019/06/15  15:50:00  BASE  7.06188  47   7.92624  45   -0.8  88    -2.5  3     0     982.8    NA       0.0000   UP       9000  0     0    
2019/06/15  15:51:00  BASE  6.63264  47   7.92624  45   -0.8  88    -2.6  3     0     982.8    NA       0.0000   UP       9000  0     0    
2019/06/15  15:52:00  BASE  6.615    49   7.92624  45   -0.8  88    -2.6  3     0     982.8    NA       0.0000   UP       BR    9000  0    
2019/06/15  15:53:00  BASE  6.81492  50   7.92624  45   -0.8  88    -2.6  3     0     982.8    NA       0.0000   UP       BR    9000  0    
2019/06/15  15:54:00  BASE  6.90312  51   7.92624  45   -0.8  88    -2.6  3     0     982.8    NA       0.0000   UP       BR    9999  0    
2019/06/15  15:55:00  BASE  6.98544  50   7.92624  45   -0.8  88    -2.6  3     0     982.8    NA       0.0000   UP       BR    9000  0    
2019/06/15  15:56:00  BASE  6.59148  51   7.92624  45   -0.8  88    -2.5  3     0     982.8    NA       0.0000   UP       BR    9000  0    
2019/06/15  15:57:00  BASE  7.5852   51   10.4958  52   -0.8  89    -2.5  3     0     982.7    NA       0.0000   UP       BR    9000  0    
2019/06/15  15:58:00  BASE  9.114    51   10.4958  52   -0.8  89    -2.4  3     0     982.7    NA       0.0000   UP       BR    8000  0    
2019/06/15  15:59:00  BASE  9.32568  51   10.4958  52   -0.8  89    -2.3  3     0     982.7    NA       0.0000   UP       BR    5000  0    
2019/06/15  16:00:00  BASE  9.46092  52   12.0716  51   -0.7  89    -2.3  3     0     982.6    NA       0.0000   UP       BR    4100  0    
2019/06/15  16:01:00  BASE  10.978   52   13.0066  50   -0.7  89    -2.3  3     0     982.6    NA       0.0000   UP       BR    3500  0    
2019/06/15  16:02:00  BASE  12.2598  52   13.036   55   -0.7  89    -2.3  3     0     982.6    NA       0.0000   UP       BR    3500  0    
2019/06/15  16:03:00  BASE  11.8188  53   13.036   55   -0.7  89    -2.2  3     0     982.5    NA       0.0000   UP       BR    3200  0    
2019/06/15  16:04:00  BASE  11.3954  53   13.036   55   -0.6  89    -2.2  3     0     982.4    NA       0.0000   UP       BR    3000  0    
2019/06/15  16:05:00  BASE  11.6836  55   13.036   55   -0.7  90    -2.2  3     0     982.4    NA       0.0000   UP       BR    3200  0    
2019/06/15  16:06:00  BASE  11.7424  56   13.036   55   -0.7  90    -2.1  3     0     982.3    NA       0.0000   UP       BR    3400  0    
2019/06/15  16:07:00  BASE  11.6894  55   13.036   55   -0.7  90    -2.0  3     0     982.3    NA       0.0000   UP       BR    3400  0    
2019/06/15  16:08:00  BASE  11.1544  56   13.036   55   -0.7  91    -2.0  3     0     982.2    NA       0.0000   UP       BR    3400  0    
2019/06/15  16:09:00  BASE  10.9192  55   13.036   55   -0.7  91    -2.0  3     0     982.2    NA       0.0000   UP       BR    3700  0    
2019/06/15  16:10:00  BASE  11.2837  55   13.036   55   -0.7  91    -2.0  3     0     982.1    NA       0.0000   UP       BR    4000  0    
2019/06/15  16:11:00  BASE  11.0426  57   13.036   55   -0.7  91    -1.9  3     0     982.1    NA       0.0000   UP       BR    4400  0    
2019/06/15  16:12:00  BASE  11.1896  57   12.9184  53   -0.7  92    -1.9  3     0     982.0    NA       0.0000   UP       BR    5000  0    
2019/06/15  16:13:00  BASE  11.219   57   12.9184  53   -0.7  92    -1.8  3     0     982.0    NA       0.0000   UP       BR    5000  0    
2019/06/15  16:14:00  BASE  11.2014  58   12.9184  53   -0.6  92    -1.8  3     0     981.9    NA       0.0000   UP       BR    4800  0    
2019/06/15  16:15:00  BASE  11.3837  60   12.9184  53   -0.6  92    -1.8  3     0     981.9    NA       0.0000   UP       BR    4900  0    
2019/06/15  16:16:00  BASE  11.1308  62   12.9184  53   -0.6  92    -1.7  3     0     981.9    NA       0.0000   UP       BR    5000  0    
2019/06/15  16:17:00  BASE  10.8839  65   12.5832  58   -0.6  92    -1.7  3     0     981.9    NA       0.0000   UP       BR    6000  0    
2019/06/15  16:18:00  BASE  10.9603  67   12.5832  58   -0.6  92    -1.7  3     0     981.8    NA       0.0000   UP       BR    5000  0    
2019/06/15  16:19:00  BASE  10.7016  68   12.248   65   -0.5  92    -1.7  3     0     981.8    NA       0.0000   UP       BR    5000  0    
2019/06/15  16:20:00  BASE  10.6369  70   12.1304  61   -0.5  91    -1.7  3     0     981.8    NA       0.0000   UP       BR    5000  0    
2019/06/15  16:21:00  BASE  10.6722  75   12.1304  61   -0.5  91    -1.8  3     0     981.8    NA       0.0000   UP       BR    6000  0    
2019/06/15  16:22:00  BASE  10.19    78   12.1304  61   -0.5  91    -1.8  3     0     981.8    NA       0.0000   UP       BR    6000  0    
2019/06/15  16:23:00  BASE  9.46092  81   12.1304  61   -0.5  91    -1.8  3     0     981.8    NA       0.0000   UP       BR    7000  0    
2019/06/15  16:24:00  BASE  9.19044  87   12.0716  76   -0.5  91    -1.8  3     0     981.8    NA       0.0000   UP       BR    7000  0    
2019/06/15  16:25:01  BASE  8.7024   91   12.0716  76   -0.5  91    -1.8  3     0     981.8    NA       0.0000   UP       BR    8000  0    
2019/06/15  16:26:00  BASE  7.81452  94   12.0716  76   -0.6  91    -1.8  3     0     981.8    NA       0.0000   UP       BR    8000  0    
2019/06/15  16:27:00  BASE  7.1736   101  12.0716  76   -0.6  91    -1.8  3     0     981.8    NA       0.0000   UP       BR    7000  0    
2019/06/15  16:28:00  BASE  6.66792  111  12.0716  76   -0.7  91    -2.0  3     0     981.4    NA       0.0000   UP       BR    8000  0    
2019/06/15  16:29:00  BASE  6.69144  113  12.0716  76   -0.9  92    -2.1  3     0     981.6    NA       0.0000   UP       BR    8000  0    
2019/06/15  16:30:00  BASE  6.77964  109  11.1896  76   -1.0  92    -2.1  3     0     981.6    NA       0.0000   UP       BR    8000  0    
2019/06/15  16:31:00  BASE  6.7326   113  11.1896  76   -1.2  92    -2.3  3     0     981.6    NA       0.0000   UP       BR    8000  0    
2019/06/15  16:32:00  BASE  6.69732  117  10.3782  88   -1.4  93    -2.4  3     0     981.4    NA       0.0000   UP       BR    8000  0    
2019/06/15  16:33:00  BASE  6.92664  120  10.3782  88   -1.5  93    -2.4  3     0     981.4    NA       0.0000   UP       BR    8000  0    
2019/06/15  16:34:00  BASE  7.36764  120  8.98464  90   -1.6  94    -2.4  3     0     981.6    NA       0.0000   UP       BR    8000  0    
2019/06/15  16:35:00  BASE  7.42056  121  8.62008  96   -1.8  94    -2.5  3     0     981.4    NA       0.0000   UP       BR    8000  0    
2019/06/15  16:36:00  BASE  6.9384   121  8.2908   113  -1.8  95    -2.5  3     0     981.3    NA       0.0000   UP       BR    8000  0    
2019/06/15  16:37:00  BASE  6.9384   122  8.2908   113  -1.9  96    -2.5  3     0     981.3    NA       0.0000   UP       BR    8000  0    
2019/06/15  16:38:00  BASE  7.27356  126  8.2908   113  -1.9  96    -2.4  3     0     981.2    NA       0.0000   BR       8000  0     0    
2019/06/15  16:39:00  BASE  7.09716  125  8.2908   113  -1.9  97    -2.4  3     0     981.0    NA       0.0000   BR       8000  0     0    
2019/06/15  16:40:00  BASE  7.0854   124  8.2908   113  -2.0  97    -2.3  3     0     981.0    NA       0.0000   BR       8000  0     0    
2019/06/15  16:41:00  BASE  7.35     123  8.2908   113  -2.0  98    -2.3  3     0     981.2    NA       0.0000   BR       8000  0     0    
2019/06/15  16:42:00  BASE  7.27944  125  8.2908   113  -2.0  98    -2.2  3     0     981.1    NA       0.0000   BR       8000  0     0    
2019/06/15  16:43:00  BASE  7.16184  126  8.2908   113  -2.0  99    -2.1  3     0     981.0    NA       0.0000   BR       8000  0     0    
2019/06/15  16:44:00  BASE  7.15596  126  8.07912  128  -2.0  99    -2.1  3     0     981.0    NA       0.0000   BR       8000  0     0    
2019/06/15  16:45:00  BASE  6.97368  129  8.07912  128  -2.0  100   -2.0  3     0     980.8    NA       0.0000   BR       8000  0     0    
2019/06/15  16:46:00  BASE  7.15008  131  8.19672  127  -2.0  100   -2.0  3     0     980.9    NA       0.0000   BR       8000  0     0    
2019/06/15  16:47:00  BASE  7.40292  127  8.19672  127  -2.0  100   -2.0  3     0     980.8    NA       0.0000   BR       8000  0     0    
2019/06/15  16:48:00  BASE  6.90312  124  8.19672  127  -2.0  100   -2.0  3     0     980.7    NA       0.0000   BR       8000  0     0    
2019/06/15  16:49:00  BASE  6.70908  126  8.19672  127  -2.0  100   -2.0  3     0     980.6    NA       0.0000   BR       8000  0     0    
2019/06/15  16:50:00  BASE  6.79728  128  8.19672  127  -2.0  100   -2.0  3     0     980.5    NA       0.0000   BR       8000  0     0    
2019/06/15  16:51:00  BASE  7.0266   129  8.19672  127  -2.0  100   -2.0  3     0     980.4    NA       0.0000   BR       8000  0     0    
2019/06/15  16:52:00  BASE  7.5264   133  8.19672  127  -2.0  100   -2.0  3     0     980.3    NA       0.0000   BR       8000  0     0    
2019/06/15  16:53:00  BASE  7.44996  129  8.19672  127  -2.0  100   -2.0  3     0     980.3    NA       0.0000   BR       8000  0     0    
2019/06/15  16:54:00  BASE  7.34412  124  8.19672  127  -2.0  100   -2.0  3     0     980.2    NA       0.0000   BR       8000  0     0    
2019/06/15  16:55:00  BASE  7.50876  127  8.19672  127  -1.9  100   -1.9  3     0     980.1    NA       0.0000   BR       8000  0     0    
2019/06/15  16:56:00  BASE  7.62048  129  8.2908   132  -1.9  100   -1.9  3     0     980.1    NA       0.0000   BR       8000  0     0    
2019/06/15  16:57:00  BASE  7.5558   127  8.2908   132  -1.9  100   -1.9  3     0     980.0    NA       0.0000   BR       8000  0     0    
2019/06/15  16:58:00  BASE  7.41468  125  8.2908   132  -1.8  100   -1.8  3     0     980.1    NA       0.0000   BR       8000  0     0    
2019/06/15  16:59:00  BASE  7.30884  126  8.2908   132  -1.8  100   -1.8  3     0     979.9    NA       0.0000   BR       8000  2920  0    
2019/06/15  17:00:00  BASE  7.3206   127  8.3202   128  -1.8  100   -1.8  3     0     980.0    NA       0.0000   BR       8000  0     0    
2019/06/15  17:01:00  BASE  7.57344  124  8.53188  126  -1.8  100   -1.8  3     0     979.9    NA       0.0000   BR       8000  0     0    
2019/06/15  17:02:00  BASE  7.35     124  8.53188  126  -1.8  100   -1.8  3     0     979.8    NA       0.0000   BR       8000  0     0    
2019/06/15  17:03:00  BASE  7.25592  124  8.53188  126  -1.8  100   -1.8  3     0     979.8    NA       0.0000   BR       8000  0     0    
2019/06/15  17:04:00  BASE  7.48524  122  8.53188  126  -1.8  100   -1.8  3     0     979.8    NA       0.0000   BR       8000  0     0    
2019/06/15  17:05:00  BASE  7.47936  118  8.53188  126  -1.8  100   -1.8  3     0     979.8    NA       0.0000   BR       8000  0     0    
2019/06/15  17:06:00  BASE  7.19712  119  8.53188  126  -1.8  100   -1.8  4     0     979.7    NA       0.0000   BR       8000  0     0    
2019/06/15  17:07:00  BASE  6.6738   121  8.53188  126  -1.8  100   -1.8  4     0     979.7    NA       0.0000   BR       8000  0     0    
2019/06/15  17:08:00  BASE  6.66204  121  8.53188  126  -1.8  100   -1.8  4     0     979.7    NA       0.0000   BR       8000  0     0    
2019/06/15  17:09:00  BASE  6.53856  124  8.53188  126  -1.7  100   -1.7  4     0     979.5    NA       0.0000   BR       8000  0     0    
2019/06/15  17:10:00  BASE  5.96232  128  8.53188  126  -1.7  100   -1.7  4     0     979.4    NA       0.0000   UP       BR    8000  0    
2019/06/15  17:11:00  BASE  5.65068  127  8.25552  126  -1.7  100   -1.7  4     0     979.4    NA       0.0000   UP       BR    8000  0    
2019/06/15  17:12:00  BASE  5.47428  125  8.25552  126  -1.7  100   -1.7  4     0     979.3    NA       0.0000   UP       BR    8000  0    
2019/06/15  17:13:00  BASE  5.86236  125  8.04384  124  -1.7  100   -1.7  3     0     979.3    NA       0.0000   UP       BR    9000  0    
2019/06/15  17:14:00  BASE  6.57972  124  8.01444  128  -1.7  100   -1.7  3     0     979.3    NA       0.0000   UP       BR    9000  0    
2019/06/15  17:15:00  BASE  7.30296  122  8.16732  121  -1.6  100   -1.6  3     0     979.2    NA       0.0000   UP       BR    9000  0    
2019/06/15  17:16:00  BASE  7.80276  117  8.16732  121  -1.6  100   -1.6  3     0     979.2    NA       0.0000   UP       BR    9000  0    
2019/06/15  17:17:00  BASE  7.64988  115  8.16732  121  -1.5  100   -1.5  3     0     979.1    NA       0.0000   UP       BR    9999  0    
2019/06/15  17:18:00  BASE  7.60872  112  8.2908   107  -1.4  100   -1.4  3     0     979.1    NA       0.0000   UP       BR    9999  0    
2019/06/15  17:19:00  BASE  8.04384  109  9.19632  108  -1.3  100   -1.3  3     0     979.0    NA       0.0000   UP       BR    9000  0    
2019/06/15  17:20:00  BASE  8.33784  113  9.19632  108  -1.2  100   -1.2  3     0     979.0    NA       0.0000   UP       BR    9000  0    
2019/06/15  17:21:00  BASE  7.76748  124  9.19632  108  -1.1  99    -1.2  3     0     978.7    NA       0.0000   UP       BR    9000  0    
2019/06/15  17:22:00  BASE  6.90312  134  9.19632  108  -1.0  98    -1.2  3     0     978.8    NA       0.0000   UP       BR    9000  0    
2019/06/15  17:23:00  BASE  6.86784  133  9.19632  108  -1.0  98    -1.4  2     0     978.7    NA       0.0000   UP       BR    9000  0    
2019/06/15  17:24:00  BASE  7.07952  132  9.19632  108  -1.1  97    -1.5  2     0     978.6    NA       0.0000   UP       BR    9000  0    
2019/06/15  17:25:00  BASE  6.53856  131  9.19632  108  -1.1  96    -1.7  2     0     978.5    NA       0.0000   UP       BR    9000  0    
2019/06/15  17:26:00  BASE  5.9976   125  9.19632  108  -1.3  96    -1.8  2     0     978.6    NA       0.0000   UP       BR    9999  0    
2019/06/15  17:27:00  BASE  6.29748  118  9.19632  108  -1.3  96    -1.9  2     0     978.6    NA       0.0000   UP       BR    9000  0    
2019/06/15  17:28:00  BASE  6.5562   124  9.19632  108  -1.4  96    -1.9  2     0     978.4    NA       0.0000   UP       BR    9000  0    
2019/06/15  17:29:00  BASE  6.60912  129  9.16692  109  -1.4  97    -1.8  2     0     978.4    NA       0.0000   UP       BR    9000  0    
2019/06/15  17:30:00  BASE  6.69732  127  7.86744  133  -1.3  97    -1.8  2     0     978.3    NA       0.0000   UP       BR    8000  0    
2019/06/15  17:31:00  BASE  6.77964  122  7.77336  132  -1.3  97    -1.7  2     0     978.3    NA       0.0000   UP       BR    7000  0    
2019/06/15  17:32:00  BASE  6.55032  119  7.74396  125  -1.2  97    -1.7  2     0     978.2    NA       0.0000   UP       BR    9999  0    
2019/06/15  17:33:00  BASE  6.98544  119  8.86116  100  -1.2  97    -1.6  2     0     978.2    NA       0.0000   UP       BR    9999  0    
2019/06/15  17:34:00  BASE  6.97956  113  8.86116  100  -1.1  97    -1.5  2     0     978.0    NA       0.0000   UP       BR    9999  0    
2019/06/15  17:35:00  BASE  6.41508  111  8.86116  100  -0.9  97    -1.4  2     0     978.1    NA       0.0000   UP       BR    9999  0    
2019/06/15  17:36:00  BASE  6.77964  113  8.86116  100  -0.8  96    -1.3  2     0     978.0    NA       0.0000   UP       BR    9999  0    
2019/06/15  17:37:00  BASE  7.6734   111  9.67848  92   -0.6  96    -1.1  2     0     978.0    NA       0.0000   UP       BR    9999  0    
2019/06/15  17:38:00  BASE  7.8498   116  9.67848  92   -0.3  95    -1.0  2     0     977.9    NA       0.0000   UP       BR    9999  0    
2019/06/15  17:39:00  BASE  7.48524  120  9.67848  92   -0.1  93    -1.1  2     0     977.9    NA       0.0000   UP       BR    9999  0    
2019/06/15  17:40:00  BASE  7.66752  125  9.67848  92   0.0   92    -1.2  2     0     977.8    NA       0.0000   UP       9999  0     0    
2019/06/15  17:41:00  BASE  7.71456  135  9.67848  92   0.1   90    -1.4  2     0     977.6    NA       0.0000   UP       9999  0     0    
2019/06/15  17:42:00  BASE  7.80864  138  10.3135  130  0.0   89    -1.6  2     0     977.4    NA       0.0000   UP       9999  0     0    
2019/06/15  17:43:00  BASE  8.86704  131  12.007   137  -0.1  87    -1.9  2     0     977.5    NA       0.0000   UP       8000  0     0    
2019/06/15  17:44:00  BASE  9.4668   134  12.007   137  -0.1  87    -2.0  2     0     977.5    NA       0.0000   UP       BR    6000  0    
2019/06/15  17:45:00  BASE  8.95524  139  12.007   137  -0.2  87    -2.2  2     0     977.5    NA       0.0000   UP       BR    7000  0    
2019/06/15  17:46:00  BASE  8.69064  136  12.007   137  -0.2  87    -2.2  2     0     977.5    NA       0.0000   UP       BR    6000  0    
2019/06/15  17:47:00  BASE  8.1438   134  12.007   137  -0.2  86    -2.2  2     0     977.3    NA       0.0000   UP       BR    8000  0    
2019/06/15  17:48:00  BASE  8.30844  129  12.007   137  -0.2  86    -2.2  2     0     977.4    NA       0.0000   UP       BR    8000  0    
2019/06/15  17:49:00  BASE  8.97288  127  12.007   137  -0.3  86    -2.3  2     0     977.4    NA       0.0000   UP       BR    8000  0    
2019/06/15  17:50:00  BASE  8.67888  124  12.007   137  -0.4  86    -2.4  2     0     977.3    NA       0.0000   UP       BR    9999  0    
2019/06/15  17:51:00  BASE  8.24376  117  12.007   137  -0.4  86    -2.4  2     0     977.3    NA       0.0000   UP       BR    9999  0    
2019/06/15  17:52:00  BASE  8.24964  115  12.007   137  -0.5  87    -2.4  2     0     977.3    NA       0.0000   UP       BR    9999  0    
2019/06/15  17:53:00  BASE  8.36136  123  10.6487  129  -0.6  87    -2.4  2     0     977.2    NA       0.0000   UP       BR    9999  0    
2019/06/15  17:54:00  BASE  8.32608  127  10.6487  129  -0.6  88    -2.4  2     0     977.2    NA       0.0000   UP       BR    9999  0    
2019/06/15  17:55:00  BASE  8.06148  129  10.6487  129  -0.6  88    -2.4  2     0     977.1    NA       0.0000   UP       9999  0     0    
2019/06/15  17:56:00  BASE  7.13832  126  10.6487  129  -0.6  89    -2.3  2     0     977.0    NA       0.0000   UP       9999  0     0    
2019/06/15  17:57:00  BASE  6.05052  118  10.4958  121  -0.6  89    -2.2  2     0     976.8    NA       0.0000   UP       9999  0     0    
2019/06/15  17:58:00  BASE  6.7326   114  10.0724  133  -0.6  90    -2.0  2     0     976.8    NA       0.0000   UP       9999  0     0    
2019/06/15  17:59:00  BASE  8.24964  110  10.0724  133  -0.4  90    -1.9  2     0     976.9    NA       0.0000   UP       9999  0     0    
2019/06/15  18:00:00  BASE  8.84352  107  10.0724  133  -0.3  90    -1.7  1     0     976.8    NA       0.0000   UP       9000  0     0    
2019/06/15  18:01:00  BASE  8.78472  108  10.0724  133  -0.1  90    -1.5  1     0     976.8    NA       0.0000   UP       9000  0     0    
2019/06/15  18:02:00  BASE  8.87292  108  10.0724  133  0.0   90    -1.4  1     0     976.7    NA       0.0000   UP       8000  0     0    
2019/06/15  18:03:00  BASE  9.32568  104  10.3135  86   0.1   90    -1.4  1     0     976.7    NA       0.0000   UP       8000  0     0    
2019/06/15  18:04:00  BASE  9.30804  100  10.3135  86   0.1   90    -1.4  1     0     976.7    NA       0.0000   UP       BR    8000  0    
2019/06/15  18:05:00  BASE  8.86116  100  10.3135  86   0.1   90    -1.4  1     0     976.6    NA       0.0000   UP       BR    7000  0    
2019/06/15  18:06:00  BASE  8.56716  102  10.3135  86   0.0   90    -1.4  1     0     976.6    NA       0.0000   UP       BR    8000  0    
2019/06/15  18:07:00  BASE  8.27904  103  10.3135  86   -0.0  90    -1.4  1     0     976.6    NA       0.0000   UP       BR    8000  0    
2019/06/15  18:08:00  BASE  7.70868  101  10.3135  86   -0.1  91    -1.4  1     0     976.5    NA       0.0000   UP       BR    6000  0    
2019/06/15  18:09:00  BASE  7.25592  91   10.3135  86   -0.1  92    -1.3  1     0     976.4    NA       0.0000   UP       BR    4900  0    
2019/06/15  18:10:00  BASE  8.24376  80   11.1014  79   -0.2  93    -1.2  1     0     976.3    NA       0.0000   UP       BR    4700  0    
2019/06/15  18:11:00  BASE  10.5487  76   13.8239  72   -0.1  94    -1.0  1     0     976.2    NA       0.0000   UP       BR    3600  0    
2019/06/15  18:12:00  BASE  12.2245  74   14.7     70   -0.1  95    -0.8  1     0     976.1    NA       0.0000   -SN      BR    3100  0    
2019/06/15  18:13:00  BASE  13.1418  68   14.7     70   0.1   95    -0.6  1     0     976.0    NA       0.0000   -SN      BR    3000  0    
2019/06/15  18:14:00  BASE  13.5358  64   14.7588  65   0.2   96    -0.4  1     0     975.9    NA       0.0000   -SN      BR    4000  0    
2019/06/15  18:15:00  BASE  13.9474  63   15.1528  68   0.3   96    -0.3  1     0     975.8    NA       0.0000   -SN      BR    3900  0    
2019/06/15  18:16:00  BASE  14.2884  61   15.8819  57   0.3   96    -0.3  1     0     975.7    NA       0.0000   -SN      BR    3700  0    
2019/06/15  18:17:00  BASE  14.4766  60   16.4875  56   0.3   96    -0.2  1     0     975.6    NA       0.0000   -SN      BR    3500  0    
2019/06/15  18:18:00  BASE  14.2649  59   16.4875  56   0.4   96    -0.2  1     0     975.6    NA       0.0000   -SN      BR    3700  0    
2019/06/15  18:19:00  BASE  13.9474  60   16.4875  56   0.4   96    -0.2  1     0     975.6    NA       0.0000   -SN      BR    4000  0    
2019/06/15  18:20:00  BASE  13.8239  61   16.4875  56   0.4   96    -0.2  1     0     975.6    NA       0.0000   -SN      BR    3700  0    
2019/06/15  18:21:00  BASE  14.1414  62   16.4875  56   0.5   96    -0.2  1     0     975.6    NA       0.0000   -SN      BR    3800  0    
2019/06/15  18:22:00  BASE  14.1532  61   16.4875  56   0.5   95    -0.1  1     0     975.6    NA       0.0000   -SN      BR    4200  0    
2019/06/15  18:23:00  BASE  13.6534  60   16.4875  56   0.6   95    -0.1  1     0     975.5    NA       0.0000   -SN      BR    3800  0    
2019/06/15  18:24:00  BASE  13.918   60   16.4875  56   0.6   95    -0.1  1     0     975.4    NA       0.0000   -SN      BR    3400  0    
2019/06/15  18:25:00  BASE  13.8298  61   16.4875  56   0.6   95    -0.1  1     0     975.5    NA       0.0000   -SN      BR    3400  0    
2019/06/15  18:26:00  BASE  13.5416  63   16.4875  56   0.6   95    -0.1  1     0     975.4    NA       0.0000   -SN      BR    3400  0    
2019/06/15  18:27:00  BASE  13.277   61   16.3346  56   0.6   95    -0.1  1     0     975.4    NA       0.0000   -SN      BR    3300  0    
2019/06/15  18:28:00  BASE  13.1653  61   16.3346  56   0.6   95    -0.1  1     0     975.3    NA       0.0000   -SN      BR    3500  0    
2019/06/15  18:29:00  BASE  13.3711  62   16.3346  56   0.6   95    -0.1  1     0     975.3    NA       0.0000   -SN      BR    3700  0    
2019/06/15  18:30:00  BASE  13.7592  61   16.3346  56   0.6   95    -0.1  1     0     975.2    NA       0.0000   -SN      BR    3600  0    
2019/06/15  18:31:00  BASE  13.4182  59   16.123   59   0.6   95    -0.1  1     0     975.2    NA       0.0000   -SN      BR    3600  0    
2019/06/15  18:32:00  BASE  13.3358  57   16.123   59   0.6   95    -0.1  1     0     975.2    NA       0.0000   -SN      BR    3400  0    
2019/06/15  18:33:00  BASE  13.4417  54   16.123   59   0.6   95    -0.1  1     0     975.1    NA       0.0000   -SN      BR    3500  0    
2019/06/15  18:34:00  BASE  13.3182  54   16.123   59   0.6   95    -0.1  1     0     975.1    NA       0.0000   -SN      BR    3600  0    
2019/06/15  18:35:00  BASE  13.5593  54   16.123   59   0.6   95    -0.1  1     0     975.0    NA       0.0000   -SN      BR    3400  0    
2019/06/15  18:36:00  BASE  13.2124  54   16.123   59   0.6   96    -0.0  1     0     975.0    NA       0.0000   -SN      BR    3500  0    
2019/06/15  18:37:00  BASE  13.0301  54   16.123   59   0.6   96    -0.0  1     0     975.1    NA       0.0000   -SN      BR    3300  0    
2019/06/15  18:38:00  BASE  12.9772  55   16.123   59   0.6   96    -0.0  1     0     975.0    NA       0.0000   -SN      BR    3400  0    
2019/06/15  18:39:00  BASE  12.7655  57   16.123   59   0.6   96    -0.0  1     0     975.1    NA       0.0000   -SN      BR    3700  0    
2019/06/15  18:40:00  BASE  12.5832  57   15.729   50   0.6   96    0.0   0     0     975.1    NA       0.0000   -SN      BR    3700  0    
2019/06/15  18:41:00  BASE  12.6832  60   15.729   50   0.6   96    0.1   0     0     975.1    NA       0.0000   -SN      BR    3500  0    
2019/06/15  18:42:00  BASE  12.8243  60   15.729   50   0.6   97    0.1   0     0     975.1    NA       0.0000   -SN      BR    3500  0    
2019/06/15  18:43:00  BASE  12.6185  59   15.729   50   0.6   97    0.1   0     0     975.1    NA       0.0000   -SN      BR    3700  0    
2019/06/15  18:44:00  BASE  12.4656  60   15.2468  41   0.6   97    0.2   0     0     975.1    NA       0.0000   -SN      BR    3700  0    
2019/06/15  18:45:00  BASE  12.1775  60   14.7588  61   0.6   97    0.2   0     0     975.1    NA       0.0000   -SN      BR    3700  0    
2019/06/15  18:46:00  BASE  11.5954  60   14.7588  61   0.6   97    0.2   0     0     975.0    NA       0.0000   -SN      BR    3500  0    
2019/06/15  18:47:00  BASE  11.1838  57   14.7588  61   0.6   97    0.2   0     0     974.9    NA       0.0000   -SN      BR    3800  0    
2019/06/15  18:48:00  BASE  11.3896  54   14.7588  61   0.7   97    0.2   0     0     974.9    NA       0.0000   -SN      BR    4500  0    
2019/06/15  18:49:00  BASE  11.7482  50   14.7588  61   0.7   97    0.3   0     0     974.8    NA       0.0000   -SN      BR    5000  0    
2019/06/15  18:50:00  BASE  12.4832  48   15.2174  53   0.7   97    0.3   0     0     974.7    NA       0.0000   -SN      BR    4800  0    
2019/06/15  18:51:00  BASE  13.424   48   15.4291  48   0.8   97    0.3   0     0     974.6    NA       0.0000   -SN      BR    3800  0    
2019/06/15  18:52:00  BASE  13.6651  47   15.7584  49   0.8   97    0.4   0     0     974.6    NA       0.0000   -SN      BR    3400  0    
2019/06/15  18:53:00  BASE  13.424   48   15.7584  49   0.8   97    0.4   0     0     974.6    NA       0.0000   -SN      BR    3400  0    
2019/06/15  18:54:00  BASE  12.4303  47   15.7584  49   0.8   97    0.4   0     0     974.6    NA       0.0000   -SN      BR    3800  0    
2019/06/15  18:55:00  BASE  12.4656  48   15.7584  49   0.8   97    0.4   0     0     974.6    NA       0.0000   -SN      BR    4100  0    
2019/06/15  18:56:00  BASE  13.3711  48   15.7584  49   0.8   97    0.4   0     0     974.5    NA       0.0000   -SN      BR    3600  0    
2019/06/15  18:57:00  BASE  13.0066  47   15.7584  49   0.8   97    0.4   0     0     974.5    NA       0.0000   -SN      BR    3600  0    
2019/06/15  18:58:00  BASE  12.9184  49   15.7584  49   0.8   97    0.4   0     0     974.5    NA       0.0000   -SN      BR    3600  0    
2019/06/15  18:59:00  BASE  12.9713  48   15.7584  49   0.8   97    0.4   0     0     974.4    NA       0.0000   -SN      BR    3600  0    
2019/06/15  19:00:00  BASE  12.4362  51   15.7584  49   0.8   97    0.4   0     0     974.5    NA       0.0000   -SN      BR    4100  0    
2019/06/15  19:01:00  BASE  12.2128  52   15.7584  49   0.8   97    0.4   0     0     974.5    NA       0.0000   -SN      BR    4500  0    
2019/06/15  19:02:00  BASE  12.9242  53   16.1524  57   0.8   97    0.3   0     0     974.5    NA       0.0000   -SN      BR    4200  0    
2019/06/15  19:03:00  BASE  12.5244  54   16.1524  57   0.7   97    0.3   0     0     974.5    NA       0.0000   -SN      BR    4100  0    
2019/06/15  19:04:00  BASE  11.8188  53   16.1524  57   0.7   97    0.3   0     0     974.5    NA       0.0000   -SN      BR    4300  0    
2019/06/15  19:05:00  BASE  12.2245  54   16.1524  57   0.7   97    0.3   0     0     974.5    NA       0.0000   -SN      BR    4500  0    
2019/06/15  19:06:00  BASE  11.8658  53   16.1524  57   0.6   97    0.3   0     0     974.5    NA       0.0000   -SN      BR    4700  0    
2019/06/15  19:07:00  BASE  12.0658  49   16.1524  57   0.6   98    0.3   0     0     974.3    NA       0.0000   -SN      BR    4600  0    
2019/06/15  19:08:00  BASE  12.889   51   16.1524  57   0.6   98    0.3   0     0     974.3    NA       0.0000   -SN      BR    5000  0    
2019/06/15  19:09:00  BASE  13.1536  52   16.1524  57   0.6   98    0.3   0     0     974.3    NA       0.0000   -SN      BR    7000  0    
2019/06/15  19:10:00  BASE  13.3417  51   16.1524  57   0.6   98    0.3   0     0     974.2    NA       0.0000   -SN      BR    8000  0    
2019/06/15  19:11:00  BASE  14.0532  50   16.1524  57   0.5   98    0.3   0     0     974.1    NA       0.0000   -SN      BR    9000  0    
2019/06/15  19:12:00  BASE  14.1414  51   16.0642  51   0.5   98    0.2   0     0     974.2    NA       0.0000   -SN      BR    9000  0    
2019/06/15  19:13:00  BASE  13.6063  51   16.0642  51   0.5   98    0.2   0     0     974.1    NA       0.0000   -SN      BR    9999  0    
2019/06/15  19:14:00  BASE  14.0944  50   16.9697  52   0.4   98    0.2   0     0     974.1    NA       0.0000   -SN      BR    9999  0    
2019/06/15  19:15:00  BASE  14.5471  50   16.9697  52   0.4   98    0.1   0     0     974.1    NA       0.0000   -SN      BR    9999  0    
2019/06/15  19:16:00  BASE  14.5706  52   16.9697  52   0.4   98    0.1   0     0     974.1    NA       0.0000   -SN      BR    9999  0    
2019/06/15  19:17:00  BASE  14.259   53   16.9697  52   0.4   98    0.1   0     0     974.2    NA       0.0000   -SN      BR    9999  0    
2019/06/15  19:18:00  BASE  13.9532  55   16.9697  52   0.4   98    0.1   0     0     974.2    NA       0.0000   -SN      BR    9999  0    
2019/06/15  19:19:00  BASE  14.212   58   16.9697  52   0.4   98    0.1   0     0     974.2    NA       0.0000   -SN      9999  0     0    
2019/06/15  19:20:00  BASE  14.0885  59   16.9697  52   0.4   98    0.1   0     0     974.2    NA       0.0000   -SN      9999  0     0    
2019/06/15  19:21:00  BASE  14.1061  60   16.9697  52   0.3   98    0.1   0     0     974.2    NA       0.0000   -SN      9999  0     0    
2019/06/15  19:22:00  BASE  13.9885  62   16.9697  52   0.3   98    0.1   0     0     974.2    NA       0.0000   -SN      9999  0     0    
2019/06/15  19:23:00  BASE  13.4711  63   16.9697  52   0.3   98    0.0   0     0     974.2    NA       0.0000   -SN      9999  0     0    
2019/06/15  19:24:00  BASE  13.8415  62   16.4228  56   0.3   98    0.0   0     0     974.2    NA       0.0000   -SN      9999  0     0    
2019/06/15  19:25:00  BASE  14.1002  63   15.6996  56   0.4   97    0.0   0     0     974.2    NA       0.0000   -SN      9999  0     0    
2019/06/15  19:26:00  BASE  13.0654  66   15.6996  56   0.4   97    -0.0  0     0     974.3    NA       0.0000   -SN      9999  0     0    
2019/06/15  19:27:00  BASE  12.7184  69   15.6996  56   0.4   97    -0.0  0     0     974.3    NA       0.0000   -SN      9999  0     0    
2019/06/15  19:28:00  BASE  12.5773  72   15.6408  59   0.4   97    -0.0  0     0     974.4    NA       0.0000   -SN      9999  0     0    
2019/06/15  19:29:00  BASE  11.6659  75   15.6408  59   0.4   97    -0.0  0     0     974.4    NA       0.0000   -SN      9999  6660  0    
2019/06/15  19:30:00  BASE  10.7604  80   15.6408  59   0.4   97    -0.0  0     0     974.4    NA       0.0000   -SN      9999  6200  0    
2019/06/15  19:31:00  BASE  9.6138   89   15.2468  60   0.4   96    -0.1  0     0     974.4    NA       0.0000   9999     6430  0     0    
2019/06/15  19:32:00  BASE  9.408    96   15.2468  60   0.4   96    -0.2  0     0     974.5    NA       0.0000   9999     6370  0     0    
2019/06/15  19:33:00  BASE  9.7902   98   15.2468  60   0.2   96    -0.4  0     0     974.5    NA       0.0000   9999     6370  0     0    
2019/06/15  19:34:00  BASE  10.0489  100  15.2468  60   0.1   95    -0.6  0     0     974.6    NA       0.0000   9999     6760  0     0    
2019/06/15  19:35:00  BASE  10.29    101  14.0944  71   -0.1  95    -0.8  0     0     974.5    NA       0.0000   9999     6790  0     0    
2019/06/15  19:36:00  BASE  10.337   102  14.0944  71   -0.3  95    -1.0  0     0     974.5    NA       0.0000   9999     6760  0     0    
2019/06/15  19:37:00  BASE  9.69024  102  13.036   66   -0.4  94    -1.2  0     0     974.4    NA       0.0000   9999     6660  0     0    
2019/06/15  19:38:00  BASE  8.85528  100  12.9772  79   -0.5  94    -1.3  0     0     974.4    NA       0.0000   9999     5640  0     0    
2019/06/15  19:39:00  BASE  8.72004  98   11.466   96   -0.6  94    -1.4  0     0     974.3    NA       0.0000   9999     5610  0     0    
2019/06/15  19:40:00  BASE  8.42604  96   11.466   96   -0.6  94    -1.4  0     0     974.2    NA       0.0000   9999     6400  0     0    
2019/06/15  19:41:00  BASE  8.07324  96   11.466   96   -0.6  94    -1.5  0     0     974.3    NA       0.0000   9999     6300  0     0    
2019/06/15  19:42:00  BASE  8.2614   98   11.466   96   -0.6  94    -1.5  0     0     974.2    NA       0.0000   9999     6300  0     0    
2019/06/15  19:43:00  BASE  8.36724  101  11.466   96   -0.5  93    -1.5  0     0     974.2    NA       0.0000   9999     5220  0     0    
2019/06/15  19:44:00  BASE  9.3492   103  11.5248  104  -0.5  93    -1.5  0     0     974.3    NA       0.0000   9999     5350  0     0    
2019/06/15  19:45:00  BASE  10.0607  102  11.5248  104  -0.5  93    -1.6  0     0     974.3    NA       0.0000   9999     5120  0     0    
2019/06/15  19:46:00  BASE  10.4429  103  12.248   102  -0.6  92    -1.7  0     0     974.3    NA       0.0000   9999     4630  0     0    
2019/06/15  19:47:00  BASE  10.6546  101  12.248   102  -0.6  92    -1.8  0     0     974.2    NA       0.0000   9999     4400  0     0    
2019/06/15  19:48:00  BASE  10.3018  100  12.248   102  -0.7  92    -1.9  0     0     974.2    NA       0.0000   9999     3810  0     0    
2019/06/15  19:49:00  BASE  10.2547  102  12.248   102  -0.7  91    -1.9  0     0     974.3    NA       0.0000   9999     5350  0     0    
2019/06/15  19:50:00  BASE  10.3018  102  12.248   102  -0.8  91    -2.0  0     0     974.3    NA       0.0000   9999     5280  0     0    
2019/06/15  19:51:00  BASE  10.337   104  12.248   102  -0.8  91    -2.1  0     0     974.2    NA       0.0000   9999     5320  0     0    
2019/06/15  19:52:00  BASE  9.9666   104  12.248   102  -0.8  91    -2.1  0     0     974.1    NA       0.0000   9999     5680  0     0    
2019/06/15  19:53:00  BASE  9.88428  107  12.248   102  -0.9  91    -2.1  0     0     974.1    NA       0.0000   9999     5740  0     0    
2019/06/15  19:54:00  BASE  10.3606  113  12.248   102  -0.9  91    -2.2  0     0     974.1    NA       0.0000   9999     4130  0     0    
2019/06/15  19:55:00  BASE  10.5958  114  12.248   102  -0.9  91    -2.2  0     0     974.1    NA       0.0000   9999     3580  0     0    
2019/06/15  19:56:00  BASE  9.88428  109  11.3719  113  -0.8  91    -2.1  0     0     974.1    NA       0.0000   9999     5280  0     0    
2019/06/15  19:57:00  BASE  9.09048  102  11.3719  113  -0.8  91    -2.1  0     0     974.0    NA       0.0000   9999     3840  0     0    
2019/06/15  19:58:00  BASE  8.66712  102  11.3719  113  -0.8  91    -2.1  0     0     974.2    NA       0.0000   9999     4040  0     0    
2019/06/15  19:59:00  BASE  8.42604  105  11.3719  113  -0.8  90    -2.2  0     0     974.1    NA       0.0000   9999     4000  0     0    
2019/06/15  20:00:00  BASE  8.70828  110  11.3719  113  -0.8  90    -2.2  0     0     974.1    NA       0.0000   9999     4000  0     0    
2019/06/15  20:01:00  BASE  9.62556  122  11.5542  126  -0.8  90    -2.2  0     0     974.1    NA       0.0000   9999     3740  0     0    
2019/06/15  20:02:00  BASE  9.10224  131  11.5542  126  -0.8  90    -2.2  0     0     973.9    NA       0.0000   9999     3740  4720  0    
2019/06/15  20:03:00  BASE  8.01444  123  11.5542  126  -0.8  90    -2.2  0     0     974.0    NA       0.0000   9999     3580  0     0    
2019/06/15  20:04:00  BASE  7.63812  115  11.5542  126  -0.7  90    -2.2  0     0     974.0    NA       0.0000   9999     3710  0     0    
2019/06/15  20:05:00  BASE  7.33824  115  11.5542  126  -0.7  89    -2.2  0     0     974.1    NA       0.0000   9999     4560  0     0    
2019/06/15  20:06:00  BASE  7.41468  110  11.5542  126  -0.7  89    -2.3  0     0     974.1    NA       0.0000   9999     4890  0     0    
2019/06/15  20:07:00  BASE  7.38528  115  11.5542  126  -0.7  89    -2.4  0     0     973.9    NA       0.0000   9999     3940  0     0    
2019/06/15  20:08:00  BASE  6.77376  128  11.5542  126  -0.7  88    -2.4  0     0     973.7    NA       0.0000   9999     4590  0     0    
2019/06/15  20:09:00  BASE  6.69732  119  11.5542  126  -0.7  88    -2.5  0     0     974.0    NA       0.0000   9999     4560  0     0    
2019/06/15  20:10:00  BASE  7.31472  110  11.5542  126  -0.8  88    -2.5  0     0     974.0    NA       0.0000   9999     5090  0     0    
2019/06/15  20:11:00  BASE  7.44408  123  9.28452  141  -0.8  88    -2.5  0     0     973.9    NA       0.0000   9999     4560  0     0    
2019/06/15  20:12:00  BASE  7.056    122  8.56128  118  -0.8  88    -2.5  0     0     974.0    NA       0.0000   9999     4530  0     0    
2019/06/15  20:13:00  BASE  6.71496  112  8.22612  112  -0.8  88    -2.4  0     0     973.9    NA       0.0000   9999     3450  0     0    
2019/06/15  20:14:00  BASE  6.39156  116  8.16732  110  -0.8  88    -2.4  0     0     973.7    NA       0.0000   9999     3450  0     0    
2019/06/15  20:15:00  BASE  6.027    123  8.16732  110  -0.7  88    -2.4  0     0     973.7    NA       0.0000   9999     3710  0     0    
2019/06/15  20:16:00  BASE  6.66792  114  8.50248  101  -0.7  88    -2.4  0     0     973.9    NA       0.0000   9999     3150  0     0    
2019/06/15  20:17:00  BASE  6.59736  107  8.50248  101  -0.7  88    -2.4  0     0     973.8    NA       0.0000   9999     3280  0     0    
2019/06/15  20:18:00  BASE  5.86824  124  8.50248  101  -0.7  88    -2.4  0     0     973.5    NA       0.0000   9999     2620  0     0    
2019/06/15  20:19:00  BASE  6.3798   129  8.50248  101  -0.7  88    -2.4  0     0     973.5    NA       0.0000   9999     2850  0     0    
2019/06/15  20:20:00  BASE  6.97368  118  8.50248  101  -0.7  88    -2.5  0     0     973.7    NA       0.0000   UP       9999  0     0    
2019/06/15  20:21:00  BASE  6.92664  112  8.50248  101  -0.7  88    -2.4  0     0     973.8    NA       0.0000   UP       9999  2990  0    
2019/06/15  20:22:00  BASE  6.0858   105  8.50248  101  -0.7  88    -2.4  0     0     973.7    NA       0.0000   UP       9999  4560  0    
2019/06/15  20:23:00  BASE  4.89804  102  8.50248  101  -0.7  88    -2.4  0     0     973.7    NA       0.0000   UP       9999  3480  0    
2019/06/15  20:24:00  BASE  4.41     116  8.50248  101  -0.7  88    -2.4  0     0     973.6    NA       0.0000   UP       9999  4490  0    
2019/06/15  20:25:00  BASE  5.54484  132  8.50248  101  -0.7  88    -2.3  0     0     973.7    NA       0.0000   UP       9999  3900  0    
2019/06/15  20:26:00  BASE  5.86824  136  8.10852  136  -0.6  88    -2.3  0     0     973.7    NA       0.0000   UP       9999  1250  0    
2019/06/15  20:27:00  BASE  4.72164  133  8.10852  136  -0.6  88    -2.4  0     0     973.8    NA       0.0000   UP       9999  3450  0    
2019/06/15  20:28:00  BASE  4.33356  137  8.10852  136  -0.6  88    -2.4  0     0     973.7    NA       0.0000   UP       9999  5280  0    
2019/06/15  20:29:00  BASE  4.16892  139  8.10852  136  -0.6  88    -2.4  0     0     973.7    NA       0.0000   UP       9999  5020  0    
2019/06/15  20:30:00  BASE  4.12188  128  8.10852  136  -0.6  87    -2.4  0     0     973.8    NA       0.0000   UP       9999  4070  0    
2019/06/15  20:31:00  BASE  4.78632  124  8.10852  136  -0.6  87    -2.4  0     0     973.9    NA       0.0000   UP       8000  3810  0    
2019/06/15  20:32:00  BASE  5.13324  129  8.10852  136  -0.6  87    -2.4  0     0     973.9    NA       0.0000   UP       5000  0     0    
2019/06/15  20:33:00  BASE  4.36884  124  8.10852  136  -0.6  88    -2.4  0     0     973.9    NA       0.0000   -SN      5000  3580  0    
2019/06/15  20:34:00  BASE  3.84552  114  8.10852  136  -0.6  88    -2.4  0     0     973.9    NA       0.0000   -SN      BR    8000  2950 
2019/06/15  20:35:00  BASE  4.38648  114  5.92704  130  -0.7  89    -2.3  0     0     974.0    NA       0.0000   -SN      BR    9999  820  
2019/06/15  20:36:00  BASE  4.83924  121  5.92704  130  -0.7  89    -2.2  0     0     974.0    NA       0.0000   -SN      BR    9999  2430 
2019/06/15  20:37:00  BASE  4.6746   129  5.92704  130  -0.7  90    -2.1  0     0     973.9    NA       0.0000   -SN      BR    8000  1310 
2019/06/15  20:38:00  BASE  4.92744  136  5.92704  130  -0.6  90    -2.1  0     0     973.9    NA       0.0000   -SN      BR    8000  0    
2019/06/15  20:39:00  BASE  5.2038   142  5.92704  130  -0.7  91    -2.0  0     0     973.8    NA       0.0000   -SN      BR    8000  0    
2019/06/15  20:40:00  BASE  5.12148  144  5.92704  130  -0.7  91    -2.0  0     0     973.8    NA       0.0000   -SN      BR    9999  0    
2019/06/15  20:41:00  BASE  5.25672  137  5.86824  146  -0.7  91    -1.9  0     0     973.8    NA       0.0000   -SN      BR    9999  460  
2019/06/15  20:42:00  BASE  5.19792  134  5.86824  146  -0.7  92    -1.9  0     0     973.8    NA       0.0000   -SN      BR    9999  0    
2019/06/15  20:43:00  BASE  4.86276  139  6.02112  134  -0.8  92    -1.9  0     0     973.7    NA       0.0000   -SN      BR    9999  0    
2019/06/15  20:44:00  BASE  5.07444  135  6.16812  140  -0.8  93    -1.8  0     0     973.9    NA       0.0000   -SN      BR    7000  0    
2019/06/15  20:45:00  BASE  5.56836  124  6.2622   120  -0.8  93    -1.7  0     0     974.0    NA       0.0000   -SN      BR    5000  0    
2019/06/15  20:46:00  BASE  5.96232  119  6.80316  124  -0.8  94    -1.7  0     0     974.0    NA       0.0000   -SN      BR    5000  0    
2019/06/15  20:47:00  BASE  6.2622   124  6.80316  124  -0.8  95    -1.6  0     0     974.0    NA       0.0000   -SN      BR    9000  0    
2019/06/15  20:48:00  BASE  6.18576  130  6.80316  124  -0.8  95    -1.5  0     0     974.0    NA       0.0000   -SN      BR    8000  2200 
2019/06/15  20:49:00  BASE  6.23868  142  6.80316  124  -0.9  96    -1.4  0     0     973.8    NA       0.0000   -SN      BR    7000  0    
2019/06/15  20:50:00  BASE  6.25044  150  6.80316  124  -0.9  97    -1.4  0     0     973.8    NA       0.0000   -SN      BR    7000  2690 
2019/06/15  20:51:00  BASE  5.50956  148  6.80316  124  -0.9  98    -1.3  0     0     973.9    NA       0.0000   -SN      BR    7000  2660 
2019/06/15  20:52:00  BASE  4.8216   137  6.80316  124  -1.0  98    -1.2  0     0     974.1    NA       0.0000   -SN      BR    9000  2620 
2019/06/15  20:53:00  BASE  4.62756  133  6.80316  124  -1.0  99    -1.1  0     0     974.0    NA       0.0000   -SN      BR    9000  2760 
2019/06/15  20:54:00  BASE  5.04504  143  6.80316  124  -1.0  99    -1.1  0     0     973.9    NA       0.0000   -SN      BR    7000  0    
2019/06/15  20:55:00  BASE  5.50368  154  6.80316  124  -1.0  100   -1.1  0     0     973.8    NA       0.0000   -SN      BR    8000  2200 
2019/06/15  20:56:00  BASE  5.57424  154  6.77376  144  -1.1  100   -1.1  0     0     973.8    NA       0.0000   -SN      BR    9000  0    
2019/06/15  20:57:00  BASE  5.74476  146  6.77376  144  -1.1  100   -1.1  0     0     974.0    NA       0.0000   -SN      BR    8000  3480 
2019/06/15  20:58:00  BASE  5.733    143  6.77376  144  -1.1  100   -1.1  0     0     973.9    NA       0.0000   -SN      BR    8000  3450 
2019/06/15  20:59:00  BASE  5.65656  144  6.56208  150  -1.1  100   -1.1  0     0     973.8    NA       0.0000   -SN      BR    7000  2300 
2019/06/15  21:00:00  BASE  6.03288  140  7.59108  133  -1.1  100   -1.1  0     0     973.9    NA       0.0000   -SN      BR    6000  2200 
2019/06/15  21:01:00  BASE  6.00348  129  7.59108  133  -1.1  100   -1.1  0     0     973.9    NA       0.0000   -SN      BR    6000  2690 
2019/06/15  21:02:00  BASE  5.9976   122  7.59108  133  -1.1  100   -1.1  0     0     974.0    NA       0.0000   -SN      BR    6000  2560 
2019/06/15  21:03:00  BASE  6.36216  122  7.59108  133  -1.1  100   -1.1  0     0     974.0    NA       0.0000   -SN      BR    4300  2030 
2019/06/15  21:04:00  BASE  6.12696  129  7.59108  133  -1.1  100   -1.1  0     0     974.0    NA       0.0000   -SN      BR    3600  0    
2019/06/15  21:05:00  BASE  6.39156  142  7.59108  150  -1.1  100   -1.1  0     0     973.8    NA       0.0000   -SN      BR    3100  0    
2019/06/15  21:06:00  BASE  7.23828  151  8.4378   152  -1.1  100   -1.1  0     0     973.7    NA       0.0000   -SN      BR    2000  300  
2019/06/15  21:07:00  BASE  7.34412  154  8.4378   152  -1.1  100   -1.1  0     0     973.6    NA       0.0000   -SN      BR    1000  0    
2019/06/15  21:08:00  BASE  6.7914   153  8.4378   152  -1.2  100   -1.2  0     0     973.7    NA       0.0000   -SN      BR    0900  330  
2019/06/15  21:09:00  BASE  6.0564   150  8.4378   152  -1.2  100   -1.2  0     0     973.7    NA       0.0000   -SN      BR    1300  0    
2019/06/15  21:10:00  BASE  5.72124  145  8.4378   152  -1.2  100   -1.2  0     0     973.8    NA       0.0000   -SN      BR    1300  0    
2019/06/15  21:11:00  BASE  5.97408  138  8.4378   152  -1.2  100   -1.2  0     0     973.9    NA       0.0000   -SN      BR    1500  0    
2019/06/15  21:12:00  BASE  6.04464  131  8.4378   152  -1.2  100   -1.2  0     0     974.0    NA       0.0000   -SN      BR    1500  330  
2019/06/15  21:13:00  BASE  5.36844  132  8.4378   152  -1.3  100   -1.3  0     0     974.0    NA       0.0000   -SN      BR    2100  330  
2019/06/15  21:14:00  BASE  4.45116  135  8.4378   152  -1.3  100   -1.3  0     0     973.9    NA       0.0000   -SN      BR    3400  0    
2019/06/15  21:15:00  BASE  4.29828  136  8.4378   152  -1.3  100   -1.3  0     0     973.9    NA       0.0000   -SN      BR    3000  0    
2019/06/15  21:16:00  BASE  4.83336  131  7.47348  155  -1.3  100   -1.3  0     0     974.0    NA       0.0000   -SN      BR    3100  0    
2019/06/15  21:17:00  BASE  5.0568   127  7.2912   153  -1.3  100   -1.3  0     0     974.0    NA       0.0000   -SN      BR    3100  260  
2019/06/15  21:18:00  BASE  4.75692  129  6.74436  132  -1.3  100   -1.3  0     0     973.9    NA       0.0000   -SN      BR    2100  0    
2019/06/15  21:19:00  BASE  4.59816  130  6.74436  132  -1.3  100   -1.3  0     0     973.9    NA       0.0000   -SN      BR    2000  230  
2019/06/15  21:20:00  BASE  4.5864   127  6.74436  132  -1.4  100   -1.4  0     0     973.9    NA       0.0000   -SN      BR    3500  0    
2019/06/15  21:21:00  BASE  4.52172  121  6.53268  128  -1.4  100   -1.4  0     0     973.9    NA       0.0000   -SN      BR    3400  0    
2019/06/15  21:22:00  BASE  4.70988  118  5.68596  127  -1.4  100   -1.4  0     0     973.9    NA       0.0000   -SN      BR    3200  0    
2019/06/15  21:23:00  BASE  4.94508  122  5.68596  134  -1.4  100   -1.4  0     0     973.8    NA       0.0000   -SN      BR    2500  0    
2019/06/15  21:24:00  BASE  5.31552  135  6.2328   147  -1.4  100   -1.4  0     0     973.8    NA       0.0000   -SN      BR    1900  0    
2019/06/15  21:25:00  BASE  5.86824  144  6.3798   147  -1.4  100   -1.4  0     0     973.8    NA       0.0000   -SN      BR    1600  300  
2019/06/15  21:26:00  BASE  5.47428  140  6.3798   147  -1.4  100   -1.4  0     0     973.8    NA       0.0000   -SN      BR    1500  300  
2019/06/15  21:27:00  BASE  4.2336   135  6.3798   147  -1.4  100   -1.4  0     0     973.7    NA       0.0000   -SN      BR    2200  330  
2019/06/15  21:28:00  BASE  3.92784  131  6.3798   147  -1.4  100   -1.4  0     0     973.7    NA       0.0000   -SN      BR    3800  0    
2019/06/15  21:29:00  BASE  4.97448  129  6.3798   147  -1.4  100   -1.4  0     0     973.7    NA       0.0000   -SN      BR    3500  0    
2019/06/15  21:30:00  BASE  5.4096   125  6.3798   147  -1.4  100   -1.4  0     0     973.7    NA       0.0000   -SN      BR    3300  0    
2019/06/15  21:31:00  BASE  5.20968  118  6.3798   147  -1.4  100   -1.4  0     0     973.8    NA       0.0000   -SN      BR    3000  0    
2019/06/15  21:32:00  BASE  5.66244  112  6.62676  107  -1.4  100   -1.4  0     0     973.8    NA       0.0000   -SN      BR    2800  0    
2019/06/15  21:33:00  BASE  5.97996  111  6.62676  115  -1.4  100   -1.4  0     0     973.8    NA       0.0000   -SN      BR    3000  0    
2019/06/15  21:34:00  BASE  6.04464  118  6.65616  121  -1.4  100   -1.4  0     0     973.7    NA       0.0000   -SN      BR    3300  230  
2019/06/15  21:35:00  BASE  6.06228  130  6.65616  121  -1.4  100   -1.4  0     0     973.6    NA       0.0000   -SN      BR    3400  0    
2019/06/15  21:36:00  BASE  5.82708  141  6.65616  121  -1.4  100   -1.4  0     0     973.5    NA       0.0000   -SN      BR    3200  0    
2019/06/15  21:37:00  BASE  5.92116  140  6.65616  121  -1.4  100   -1.4  0     0     973.6    NA       0.0000   -SN      BR    3000  0    
2019/06/15  21:38:00  BASE  6.39744  138  7.56168  143  -1.4  100   -1.4  0     0     973.6    NA       0.0000   -SN      BR    2800  0    
2019/06/15  21:39:00  BASE  6.82668  142  7.59108  137  -1.4  100   -1.4  0     0     973.5    NA       0.0000   -SN      BR    1400  0    
2019/06/15  21:40:00  BASE  6.8796   144  7.59108  137  -1.4  100   -1.4  0     0     973.5    NA       0.0000   -SN      BR    0700  0    
2019/06/15  21:41:00  BASE  6.65616  144  7.59108  137  -1.4  100   -1.4  0     0     973.6    NA       0.0000   -SN      BR    0800  0    
2019/06/15  21:42:00  BASE  6.66204  138  7.86744  139  -1.4  100   -1.4  0     0     973.7    NA       0.0000   -SN      BR    2100  0    
2019/06/15  21:43:00  BASE  6.49152  125  7.86744  139  -1.4  100   -1.4  0     0     973.7    NA       0.0000   -SN      BR    2200  0    
2019/06/15  21:44:00  BASE  6.1446   116  7.86744  139  -1.4  100   -1.4  0     0     973.7    NA       0.0000   -SN      BR    1400  0    
2019/06/15  21:45:00  BASE  5.95644  121  7.86744  139  -1.4  100   -1.4  0     0     973.7    NA       0.0000   -SN      BR    1200  0    
2019/06/15  21:46:00  BASE  5.72712  136  7.86744  139  -1.4  100   -1.4  0     0     973.5    NA       0.0000   -SN      BR    1900  0    
2019/06/15  21:47:00  BASE  5.92704  151  7.86744  139  -1.4  100   -1.4  0     0     973.3    NA       0.0000   -SN      BR    1200  0    
2019/06/15  21:48:00  BASE  6.23868  156  7.86744  139  -1.4  100   -1.4  0     0     973.4    NA       0.0000   -SN      BR    0750  0    
2019/06/15  21:49:00  BASE  5.20968  148  7.86744  139  -1.4  100   -1.4  0     0     973.5    NA       0.0000   -SN      BR    0700  0    
2019/06/15  21:50:00  BASE  3.99252  126  7.86744  139  -1.4  100   -1.4  0     0     973.6    NA       0.0000   -SN      BR    1100  0    
2019/06/15  21:51:00  BASE  4.09836  121  7.86744  139  -1.4  100   -1.4  0     0     973.6    NA       0.0000   -SN      BR    2600  0    
2019/06/15  21:52:00  BASE  4.22184  137  7.10892  117  -1.4  100   -1.4  0     0     973.5    NA       0.0000   -SN      BR    2700  0    
2019/06/15  21:53:00  BASE  3.55152  141  7.05012  150  -1.4  100   -1.4  0     0     973.5    NA       0.0000   -SN      BR    1900  0    
2019/06/15  21:54:00  BASE  2.5284   130  7.05012  150  -1.4  100   -1.4  0     0     973.4    NA       0.0000   -SN      BR    1600  0    
2019/06/15  21:55:00  BASE  2.2638   105  7.05012  150  -1.4  100   -1.4  0     0     973.5    NA       0.2540   -SN      BR    3300  0    
2019/06/15  21:56:00  BASE  3.1164   92   7.05012  150  -1.4  100   -1.4  0     0     973.5    NA       0.0000   -SN      BR    3400  0    
2019/06/15  21:57:00  BASE  3.9102   105  7.05012  150  -1.4  100   -1.4  0     0     973.4    NA       0.0000   -SN      BR    3400  0    
2019/06/15  21:58:00  BASE  4.00428  119  5.50368  95   -1.3  100   -1.3  0     0     973.4    NA       0.0000   -SN      BR    3400  0    
2019/06/15  21:59:00  BASE  4.39236  136  5.92704  154  -1.3  100   -1.3  0     0     973.4    NA       0.0000   -SN      BR    2200  230  
2019/06/15  22:00:00  BASE  5.58012  150  6.86784  148  -1.3  100   -1.3  0     0     973.3    NA       0.0000   -SN      BR    1400  260  
2019/06/15  22:01:00  BASE  6.20928  149  6.86784  148  -1.3  100   -1.3  0     0     973.4    NA       0.0000   -SN      BR    1500  360  
2019/06/15  22:02:00  BASE  5.56248  147  6.86784  148  -1.3  100   -1.3  0     0     973.4    NA       0.0000   -SN      BR    1800  360  
2019/06/15  22:03:00  BASE  4.7922   139  6.86784  148  -1.3  100   -1.3  0     0     973.5    NA       0.0000   -SN      BR    2400  300  
2019/06/15  22:04:00  BASE  4.72752  123  6.86784  148  -1.3  100   -1.3  0     0     973.5    NA       0.0000   -SN      BR    5000  0    
2019/06/15  22:05:00  BASE  4.54524  117  6.86784  148  -1.3  100   -1.3  0     0     973.5    NA       0.0000   -SN      BR    5000  360  
2019/06/15  22:06:00  BASE  4.19832  112  6.86784  148  -1.3  100   -1.3  0     0     973.5    NA       0.0000   -SN      BR    5000  360  
2019/06/15  22:07:00  BASE  4.7628   101  6.86784  148  -1.2  100   -1.2  0     0     973.6    NA       0.0000   -SN      BR    5000  360  
2019/06/15  22:08:00  BASE  5.00388  99   6.86784  148  -1.2  100   -1.2  0     0     973.6    NA       0.0000   -SN      BR    5000  360  
2019/06/15  22:09:00  BASE  4.28652  110  6.86784  148  -1.2  100   -1.2  0     0     973.5    NA       0.0000   -SN      BR    5000  360  
2019/06/15  22:10:00  BASE  4.19244  121  6.68556  149  -1.2  100   -1.2  0     0     973.5    NA       0.0000   -SN      BR    8000  0    
2019/06/15  22:11:00  BASE  4.85688  119  5.80944  112  -1.2  100   -1.2  0     0     973.6    NA       0.0000   -SN      BR    8000  330  
2019/06/15  22:12:00  BASE  5.01564  114  5.80944  112  -1.2  100   -1.2  0     0     973.6    NA       0.0000   -SN      BR    7000  300  
2019/06/15  22:13:00  BASE  4.704    119  5.80944  112  -1.2  100   -1.2  0     0     973.6    NA       0.0000   -SN      BR    6000  300  
2019/06/15  22:14:00  BASE  4.5276   126  5.80944  112  -1.2  100   -1.2  0     0     973.5    NA       0.0000   -SN      BR    3000  300  
2019/06/15  22:15:00  BASE  4.71576  138  5.80944  112  -1.2  100   -1.2  0     0     973.4    NA       0.0000   -SN      BR    1800  260  
2019/06/15  22:16:00  BASE  5.05092  149  5.80944  112  -1.2  100   -1.2  0     0     973.4    NA       0.0000   -SN      BR    1700  260  
2019/06/15  22:17:00  BASE  4.78632  147  5.80944  112  -1.2  100   -1.2  0     0     973.4    NA       0.0000   -SN      BR    2500  330  
2019/06/15  22:18:00  BASE  4.28064  141  5.80944  112  -1.2  100   -1.2  0     0     973.5    NA       0.0000   -SN      BR    7000  330  
2019/06/15  22:19:00  BASE  3.52212  139  5.80944  112  -1.2  100   -1.2  0     0     973.5    NA       0.0000   -SN      BR    8000  330  
2019/06/15  22:20:00  BASE  3.3222   127  5.80944  112  -1.2  100   -1.2  0     0     973.4    NA       0.0000   -SN      BR    8000  300  
2019/06/15  22:21:00  BASE  3.94548  97   5.53308  150  -1.2  100   -1.2  0     0     973.4    NA       0.0000   -SN      BR    8000  330  
2019/06/15  22:22:00  BASE  4.68636  97   5.74476  115  -1.2  100   -1.2  0     0     973.4    NA       0.0000   -SN      BR    8000  330  
2019/06/15  22:23:00  BASE  5.62716  119  6.86784  125  -1.2  100   -1.2  0     0     973.4    NA       0.0000   -SN      BR    9999  360  
2019/06/15  22:24:00  BASE  6.027    128  6.86784  125  -1.2  100   -1.2  0     0     973.4    NA       0.0000   -SN      BR    9999  360  
2019/06/15  22:25:00  BASE  5.4096   132  6.86784  125  -1.2  100   -1.2  0     0     973.3    NA       0.0000   -SN      BR    9999  0    
2019/06/15  22:26:00  BASE  4.43352  137  6.86784  125  -1.2  100   -1.2  0     0     973.3    NA       0.0000   -SN      BR    9999  390  
2019/06/15  22:27:00  BASE  3.86904  136  6.86784  125  -1.2  100   -1.2  0     0     973.4    NA       0.0000   -SN      BR    8000  360  
2019/06/15  22:28:00  BASE  3.91608  121  6.86784  125  -1.2  100   -1.2  0     0     973.4    NA       0.0000   -SN      BR    5000  300  
2019/06/15  22:29:00  BASE  4.12776  109  6.86784  125  -1.2  100   -1.2  0     0     973.5    NA       0.0000   -SN      BR    5000  330  
2019/06/15  22:30:00  BASE  3.95136  111  6.86784  125  -1.2  100   -1.2  0     0     973.5    NA       0.0000   -SN      BR    4800  300  
2019/06/15  22:31:00  BASE  3.47508  108  6.86784  125  -1.2  100   -1.2  0     0     973.5    NA       0.0000   -SN      BR    4500  300  
2019/06/15  22:32:00  BASE  3.38688  104  6.86784  125  -1.2  100   -1.2  0     0     973.5    NA       0.0000   -SN      BR    4400  260  
2019/06/15  22:33:00  BASE  3.68088  108  6.3798   131  -1.2  100   -1.2  0     0     973.4    NA       0.0000   -SN      BR    4500  260  
2019/06/15  22:34:00  BASE  3.7338   112  5.53308  130  -1.3  100   -1.3  0     0     973.4    NA       0.0000   -SN      BR    2900  0    
2019/06/15  22:35:00  BASE  3.54564  112  4.62756  110  -1.3  100   -1.3  0     0     973.4    NA       0.0000   -SN      BR    2400  230  
2019/06/15  22:36:00  BASE  3.12816  116  4.62756  110  -1.3  100   -1.3  0     0     973.4    NA       0.0000   -SN      BR    3400  230  
2019/06/15  22:37:00  BASE  2.8224   121  4.62756  110  -1.3  100   -1.3  0     0     973.3    NA       0.0000   -SN      BR    3100  230  
2019/06/15  22:38:00  BASE  3.36924  120  4.78044  119  -1.3  100   -1.3  0     0     973.3    NA       0.0000   -SN      BR    2900  260  
2019/06/15  22:39:00  BASE  3.822    109  4.78044  119  -1.2  100   -1.2  0     0     973.3    NA       0.0000   -SN      BR    2700  1480 
2019/06/15  22:40:00  BASE  3.51036  100  4.78044  119  -1.2  100   -1.2  0     0     973.3    NA       0.0000   -SN      BR    2800  0    
2019/06/15  22:41:00  BASE  3.12228  106  4.78044  119  -1.1  100   -1.1  0     0     973.3    NA       0.0000   -SN      BR    2700  0    
2019/06/15  22:42:00  BASE  2.85768  123  4.78044  119  -1.0  100   -1.0  0     0     973.3    NA       0.0000   -SN      BR    2700  0    
2019/06/15  22:43:00  BASE  2.71068  135  4.78044  119  -1.0  100   -1.0  0     0     973.4    NA       0.0000   -SN      BR    2600  0    
2019/06/15  22:44:00  BASE  2.52252  136  4.78044  119  -1.0  100   -1.0  0     0     973.4    NA       0.0000   -SN      BR    2500  0    
2019/06/15  22:45:00  BASE  2.49312  132  4.78044  119  -1.0  100   -1.0  0     0     973.4    NA       0.0000   -SN      BR    2500  0    
2019/06/15  22:46:00  BASE  2.75184  134  4.78044  119  -1.1  100   -1.1  0     0     973.4    NA       0.0000   -SN      BR    2200  0    
2019/06/15  22:47:00  BASE  3.06348  144  4.78044  119  -1.1  100   -1.1  0     0     973.4    NA       0.0000   -SN      BR    1900  0    
2019/06/15  22:48:00  BASE  3.1752   146  3.99252  101  -1.2  100   -1.2  0     0     973.3    NA       0.0000   -SN      BR    1400  0    
2019/06/15  22:49:00  BASE  3.19284  142  3.86904  141  -1.2  100   -1.2  0     0     973.3    NA       0.0000   -SN      BR    1000  0    
2019/06/15  22:50:00  BASE  3.36924  139  3.86904  141  -1.3  100   -1.3  0     0     973.3    NA       0.0000   -SN      BR    0800  0    
2019/06/15  22:51:00  BASE  3.35748  141  3.86904  141  -1.3  100   -1.3  0     0     973.2    NA       0.0000   -SN      BR    0900  0    
2019/06/15  22:52:00  BASE  3.1752   148  4.263    151  -1.3  100   -1.3  0     0     973.2    NA       0.0000   -SN      BR    0900  0    
2019/06/15  22:53:00  BASE  3.68088  152  4.65696  152  -1.3  100   -1.3  0     0     973.2    NA       0.0000   -SN      BR    0900  0    
2019/06/15  22:54:00  BASE  3.83964  147  4.65696  152  -1.3  100   -1.3  0     0     973.3    NA       0.0000   -SN      BR    0800  0    
2019/06/15  22:55:00  BASE  2.91648  145  4.65696  152  -1.3  100   -1.3  0     0     973.3    NA       0.0000   +SN      BR    0700  0    
2019/06/15  22:56:00  BASE  2.0874   143  4.65696  152  -1.3  100   -1.3  0     0     973.3    NA       0.0000   +SN      BR    0750  0    
2019/06/15  22:57:00  BASE  1.48764  127  4.65696  152  -1.3  100   -1.3  0     0     973.4    NA       0.0000   SN       FZFG  0800  0    
2019/06/15  22:58:00  BASE  1.21716  112  4.65696  152  -1.3  100   -1.3  0     0     973.4    NA       0.0000   SN       FZFG  0800  0    
2019/06/15  22:59:00  BASE  1.7934   118  4.65696  152  -1.3  100   -1.3  0     0     973.4    NA       0.0000   SN       FZFG  0750  0    
2019/06/15  23:00:00  BASE  3.03408  132  4.65696  152  -1.2  100   -1.2  0     0     973.4    NA       0.0000   SN       FZFG  0700  0    
2019/06/15  23:01:00  BASE  4.15716  147  5.02152  162  -1.2  100   -1.2  0     0     973.2    NA       0.0000   SN       FZFG  0700  0    
2019/06/15  23:02:00  BASE  4.55112  166  5.02152  162  -1.2  100   -1.2  0     0     973.2    NA       0.0000   SN       FZFG  0800  0    
2019/06/15  23:03:00  BASE  3.89844  177  5.02152  162  -1.2  100   -1.2  0     0     973.2    NA       0.0000   SN       FZFG  1000  0    
2019/06/15  23:04:00  BASE  3.45744  176  5.02152  162  -1.2  100   -1.2  0     0     973.3    NA       0.0000   SN       FZFG  1100  0    
2019/06/15  23:05:00  BASE  3.381    168  5.02152  162  -1.2  100   -1.2  0     0     973.3    NA       0.0000   SN       FZFG  1500  0    
2019/06/15  23:06:00  BASE  3.19872  154  5.02152  162  -1.2  100   -1.2  0     0     973.3    NA       0.0000   +SN      BR    2600  300  
2019/06/15  23:07:00  BASE  3.03408  128  5.02152  162  -1.2  100   -1.2  0     0     973.4    NA       0.0000   SN       BR    3000  300  
2019/06/15  23:08:00  BASE  2.74596  112  5.02152  162  -1.2  100   -1.2  0     0     973.4    NA       0.0000   -SN      BR    3400  300  
2019/06/15  23:09:00  BASE  3.087    132  5.02152  162  -1.2  100   -1.2  0     0     973.3    NA       0.0000   -SN      BR    3100  300  
2019/06/15  23:10:00  BASE  3.2928   153  5.02152  162  -1.2  100   -1.2  0     0     973.4    NA       0.0000   -SN      BR    3100  300  
2019/06/15  23:11:00  BASE  3.48096  138  4.99212  171  -1.2  100   -1.2  0     0     973.4    NA       0.0000   -SN      BR    3700  330  
2019/06/15  23:12:00  BASE  4.06308  124  5.08032  119  -1.1  100   -1.1  0     0     973.5    NA       0.0000   -SN      BR    3900  360  
2019/06/15  23:13:00  BASE  3.93372  128  5.08032  119  -1.1  100   -1.1  0     0     973.4    NA       0.0000   -SN      BR    4000  330  
2019/06/15  23:14:00  BASE  3.75732  131  5.08032  119  -1.1  100   -1.1  0     0     973.4    NA       0.0000   -SN      BR    4200  330  
2019/06/15  23:15:00  BASE  4.42764  125  5.78004  121  -1.1  100   -1.1  0     0     973.4    NA       0.0000   -SN      BR    3900  330  
2019/06/15  23:16:00  BASE  5.16264  117  5.80944  110  -1.1  100   -1.1  0     0     973.4    NA       0.0000   -SN      BR    2600  330  
2019/06/15  23:17:00  BASE  5.46252  108  5.80944  110  -1.1  100   -1.1  0     0     973.4    NA       0.0000   -SN      BR    2400  260  
2019/06/15  23:18:00  BASE  5.22144  102  5.80944  110  -1.1  100   -1.1  0     0     973.5    NA       0.0000   -SN      BR    2400  260  
2019/06/15  23:19:00  BASE  4.4982   108  5.80944  110  -1.1  100   -1.1  0     0     973.5    NA       0.0000   -SN      BR    1700  0    
2019/06/15  23:20:00  BASE  4.35708  115  5.80944  110  -1.1  100   -1.1  0     0     973.5    NA       0.0000   -SN      BR    2300  200  
2019/06/15  23:21:00  BASE  5.06268  117  5.80944  113  -1.1  100   -1.1  0     0     973.4    NA       0.0000   -SN      BR    3600  0    
2019/06/15  23:22:00  BASE  5.1744   119  5.80944  113  -1.1  100   -1.1  0     0     973.4    NA       0.0000   -SN      BR    3500  0    
2019/06/15  23:23:00  BASE  4.80984  129  6.13872  137  -1.1  100   -1.1  0     0     973.4    NA       0.0000   -SN      BR    2200  0    
2019/06/15  23:24:00  BASE  5.145    129  6.68556  119  -1.1  100   -1.1  0     0     973.4    NA       0.0000   -SN      BR    1500  0    
2019/06/15  23:25:00  BASE  5.733    119  6.77376  103  -1.0  100   -1.0  0     0     973.4    NA       0.0000   -SN      BR    1500  0    
2019/06/15  23:26:00  BASE  5.23908  122  6.77376  103  -0.9  100   -0.9  0     0     973.3    NA       0.0000   -SN      BR    1900  0    
2019/06/15  23:27:00  BASE  5.36256  123  6.77376  103  -0.9  100   -0.9  0     0     973.4    NA       0.0000   -SN      BR    2200  230  
2019/06/15  23:28:00  BASE  5.68008  114  6.77376  103  -0.8  100   -0.8  0     0     973.3    NA       0.0000   -SN      BR    1900  230  
2019/06/15  23:29:00  BASE  4.83336  99   6.77376  103  -0.7  100   -0.7  0     0     973.3    NA       0.0000   -SN      BR    3500  260  
2019/06/15  23:30:00  BASE  3.5868   93   6.77376  103  -0.6  100   -0.6  0     0     973.3    NA       0.0000   -SN      BR    3500  230  
2019/06/15  23:31:00  BASE  4.26888  126  7.13832  156  -0.6  100   -0.6  0     0     973.3    NA       0.0000   -SN      BR    3600  230  
2019/06/15  23:32:00  BASE  5.83884  150  7.16772  158  -0.6  100   -0.6  0     0     973.3    NA       0.0000   -SN      BR    2400  0    
2019/06/15  23:33:00  BASE  4.97448  156  7.16772  158  -0.6  100   -0.6  0     0     973.3    NA       0.0000   -SN      BR    1700  330  
2019/06/15  23:34:00  BASE  3.94548  160  7.16772  158  -0.7  100   -0.7  0     0     973.3    NA       0.0000   -SN      BR    2500  300  
2019/06/15  23:35:00  BASE  4.08072  164  7.16772  158  -0.9  100   -0.9  0     0     973.4    NA       0.0000   -SN      BR    2600  300  
2019/06/15  23:36:00  BASE  3.95136  173  7.16772  158  -0.9  100   -0.9  0     0     973.4    NA       0.0000   -SN      BR    1700  300  
2019/06/15  23:37:00  BASE  3.05172  174  7.16772  158  -1.0  100   -1.0  0     0     973.4    NA       0.0000   -SN      BR    2400  0    
2019/06/15  23:38:00  BASE  2.59896  163  7.16772  158  -1.0  100   -1.0  0     0     973.4    NA       0.0000   -SN      BR    4800  330  
2019/06/15  23:39:00  BASE  2.78712  161  7.16772  158  -1.0  100   -1.0  0     0     973.3    NA       0.0000   -SN      BR    3000  330  
2019/06/15  23:40:00  BASE  3.03996  175  7.16772  158  -1.1  100   -1.1  0     0     973.3    NA       0.0000   -SN      BR    2600  330  
2019/06/15  23:41:00  BASE  2.4108   170  7.16772  158  -1.1  100   -1.1  0     0     973.4    NA       0.0000   -SN      BR    5000  330  
2019/06/15  23:42:00  BASE  1.37004  165  5.3214   158  -1.1  100   -1.1  0     0     973.5    NA       0.0000   -SN      BR    5000  360  
2019/06/15  23:43:00  BASE  1.66992  161  4.65696  174  -1.1  100   -1.1  0     0     973.5    NA       0.0000   -SN      BR    6000  360  
2019/06/15  23:44:00  BASE  2.21676  155  4.65696  174  -1.1  100   -1.1  0     0     973.5    NA       0.0000   -SN      BR    5000  330  
2019/06/15  23:45:01  BASE  1.86396  135  4.02192  183  -1.0  100   -1.0  0     0     973.5    NA       0.0000   -SN      BR    4500  0    
2019/06/15  23:46:00  BASE  2.51076  103  4.47468  98   -1.0  100   -1.0  0     0     973.6    NA       0.0000   -SN      BR    5000  360  
2019/06/15  23:47:00  BASE  3.56328  101  4.47468  98   -0.9  100   -0.9  0     0     973.6    NA       0.0000   -SN      BR    6000  1570 
2019/06/15  23:48:00  BASE  3.33396  108  4.47468  98   -0.9  100   -0.9  0     0     973.7    NA       0.0000   -SN      BR    5000  1480 
2019/06/15  23:49:00  BASE  2.59896  109  4.47468  98   -0.9  100   -0.9  0     0     973.6    NA       0.0000   -SN      BR    6000  0    
2019/06/15  23:50:00  BASE  1.97568  120  4.47468  98   -0.9  100   -0.9  0     0     973.6    NA       0.0000   -SN      BR    9999  0    
2019/06/15  23:51:00  BASE  2.205    127  4.47468  98   -0.9  100   -0.9  0     0     973.6    NA       0.0000   -SN      BR    9999  390  
2019/06/15  23:52:00  BASE  2.78124  121  4.47468  98   -0.9  100   -0.9  0     0     973.6    NA       0.0000   -SN      BR    5000  0    
2019/06/15  23:53:00  BASE  2.88708  115  4.47468  98   -0.9  100   -0.9  0     0     973.5    NA       0.0000   -SN      BR    3500  330  
2019/06/15  23:54:00  BASE  2.78124  100  4.47468  98   -0.9  100   -0.9  0     0     973.5    NA       0.0000   -SN      BR    3400  0    
2019/06/15  23:55:00  BASE  2.5872   40   4.47468  98   -0.8  100   -0.8  0     0     973.5    NA       0.0000   -SN      BR    4200  300  
2019/06/15  23:56:00  BASE  2.96352  357  4.29828  110  -0.7  100   -0.7  0     0     973.5    NA       0.0000   -SN      BR    6000  230  
2019/06/15  23:57:00  BASE  3.72204  328  7.56168  308  -0.6  100   -0.6  0     0     973.5    NA       0.0000   -SN      BR    7000  300  
2019/06/15  23:58:00  BASE  4.19832  312  7.56168  308  -0.4  100   -0.4  0     0     973.4    NA       0.0000   -SN      BR    7000  0    
2019/06/15  23:59:00  BASE  3.4398   325  7.56168  308  -0.3  100   -0.3  0     0     973.5    NA       0.0000   -SN      BR    8000  230